<?xml version="1.0" encoding="UTF-8" standalone="no" ?>
<gpx xmlns="http://www.topografix.com/GPX/1/1" xmlns:xsi="http://www.w3.org/2001/XMLSchema-instance" xsi:schemaLocation="http://www.topografix.com/GPX/1/1 http://www.topografix.com/GPX/1/1/gpx.xsd" version="1.1" creator="VisuGPX - https://www.visugpx.com">
  <metadata>
    <name>J4 - Villard Enduro</name>
    <desc><![CDATA[Traces demi journée Villard de Lans
Attention qlq erreur sur la trace, deniv erroné]]></desc>
  </metadata>
  <trk>
    <name><![CDATA[J4 - Villard Enduro_1]]></name>
    <extensions>
      <line xmlns="http://www.topografix.com/GPX/gpx_style/0/2">
        <color>0000FF</color>
        <width>4</width>
      </line>
    </extensions>
    <trkseg>
      <trkpt lat="45.07354" lon="5.5599">
        <ele>1031</ele>
      </trkpt>
      <trkpt lat="45.07354" lon="5.5599">
        <ele>1031</ele>
      </trkpt>
      <trkpt lat="45.07316" lon="5.55968">
        <ele>1028.3</ele>
      </trkpt>
      <trkpt lat="45.07316" lon="5.55968">
        <ele>1028.3</ele>
      </trkpt>
      <trkpt lat="45.07326" lon="5.5592">
        <ele>1024.5</ele>
      </trkpt>
      <trkpt lat="45.07326" lon="5.5592">
        <ele>1024.5</ele>
      </trkpt>
      <trkpt lat="45.07316" lon="5.55847">
        <ele>1023.1</ele>
      </trkpt>
      <trkpt lat="45.07316" lon="5.55847">
        <ele>1023.1</ele>
      </trkpt>
      <trkpt lat="45.0732" lon="5.55773">
        <ele>1024.2</ele>
      </trkpt>
      <trkpt lat="45.0732" lon="5.55773">
        <ele>1024.2</ele>
      </trkpt>
      <trkpt lat="45.07315" lon="5.55671">
        <ele>1029</ele>
      </trkpt>
      <trkpt lat="45.07315" lon="5.55671">
        <ele>1029</ele>
      </trkpt>
      <trkpt lat="45.07274" lon="5.55674">
        <ele>1029.5</ele>
      </trkpt>
      <trkpt lat="45.07274" lon="5.55674">
        <ele>1029.5</ele>
      </trkpt>
      <trkpt lat="45.07243" lon="5.55638">
        <ele>1028.9</ele>
      </trkpt>
      <trkpt lat="45.07243" lon="5.55638">
        <ele>1028.9</ele>
      </trkpt>
      <trkpt lat="45.07147" lon="5.55513">
        <ele>1036.1</ele>
      </trkpt>
      <trkpt lat="45.07147" lon="5.55513">
        <ele>1036.1</ele>
      </trkpt>
      <trkpt lat="45.07097" lon="5.55495">
        <ele>1037.4</ele>
      </trkpt>
      <trkpt lat="45.07097" lon="5.55495">
        <ele>1037.4</ele>
      </trkpt>
      <trkpt lat="45.07004" lon="5.55465">
        <ele>1034.8</ele>
      </trkpt>
      <trkpt lat="45.07004" lon="5.55465">
        <ele>1034.8</ele>
      </trkpt>
      <trkpt lat="45.06958" lon="5.55578">
        <ele>1038</ele>
      </trkpt>
      <trkpt lat="45.06958" lon="5.55578">
        <ele>1038</ele>
      </trkpt>
      <trkpt lat="45.06925" lon="5.55686">
        <ele>1045.7</ele>
      </trkpt>
      <trkpt lat="45.06925" lon="5.55686">
        <ele>1045.7</ele>
      </trkpt>
      <trkpt lat="45.06799" lon="5.55885">
        <ele>1064.9</ele>
      </trkpt>
      <trkpt lat="45.06799" lon="5.55885">
        <ele>1064.9</ele>
      </trkpt>
      <trkpt lat="45.06796" lon="5.56052">
        <ele>1074.4</ele>
      </trkpt>
      <trkpt lat="45.06796" lon="5.56052">
        <ele>1074.4</ele>
      </trkpt>
      <trkpt lat="45.06743" lon="5.56137">
        <ele>1079.3</ele>
      </trkpt>
      <trkpt lat="45.06743" lon="5.56137">
        <ele>1079.3</ele>
      </trkpt>
      <trkpt lat="45.06735" lon="5.56246">
        <ele>1080.5</ele>
      </trkpt>
      <trkpt lat="45.06735" lon="5.56246">
        <ele>1080.5</ele>
      </trkpt>
      <trkpt lat="45.06742" lon="5.56298">
        <ele>1220.6</ele>
        <time>2019-08-17T08:03:21Z</time>
      </trkpt>
      <trkpt lat="45.06744" lon="5.56308">
        <ele>1220.8</ele>
        <time>2019-08-17T08:03:23Z</time>
      </trkpt>
      <trkpt lat="45.06755" lon="5.56331">
        <ele>1220.2</ele>
        <time>2019-08-17T08:03:30Z</time>
      </trkpt>
      <trkpt lat="45.0676" lon="5.56338">
        <ele>1219.4</ele>
        <time>2019-08-17T08:03:34Z</time>
      </trkpt>
      <trkpt lat="45.06766" lon="5.56352">
        <ele>1218.2</ele>
        <time>2019-08-17T08:03:40Z</time>
      </trkpt>
      <trkpt lat="45.06769" lon="5.56356">
        <ele>1217.8</ele>
        <time>2019-08-17T08:03:42Z</time>
      </trkpt>
      <trkpt lat="45.06778" lon="5.56369">
        <ele>1216.6</ele>
        <time>2019-08-17T08:03:47Z</time>
      </trkpt>
      <trkpt lat="45.0678" lon="5.56372">
        <ele>1216.4</ele>
        <time>2019-08-17T08:03:48Z</time>
      </trkpt>
      <trkpt lat="45.06788" lon="5.56387">
        <ele>1215.2</ele>
        <time>2019-08-17T08:03:52Z</time>
      </trkpt>
      <trkpt lat="45.06792" lon="5.56395">
        <ele>1214.4</ele>
        <time>2019-08-17T08:03:54Z</time>
      </trkpt>
      <trkpt lat="45.06798" lon="5.56415">
        <ele>1213.4</ele>
        <time>2019-08-17T08:03:58Z</time>
      </trkpt>
      <trkpt lat="45.068" lon="5.56426">
        <ele>1213</ele>
        <time>2019-08-17T08:04:00Z</time>
      </trkpt>
      <trkpt lat="45.06799" lon="5.56438">
        <ele>1212.4</ele>
        <time>2019-08-17T08:04:02Z</time>
      </trkpt>
      <trkpt lat="45.06794" lon="5.5645">
        <ele>1212.2</ele>
        <time>2019-08-17T08:04:04Z</time>
      </trkpt>
      <trkpt lat="45.06784" lon="5.56468">
        <ele>1211.6</ele>
        <time>2019-08-17T08:04:07Z</time>
      </trkpt>
      <trkpt lat="45.06761" lon="5.56498">
        <ele>1210.4</ele>
        <time>2019-08-17T08:04:12Z</time>
      </trkpt>
      <trkpt lat="45.06756" lon="5.56504">
        <ele>1210.2</ele>
        <time>2019-08-17T08:04:13Z</time>
      </trkpt>
      <trkpt lat="45.06743" lon="5.56523">
        <ele>1209.8</ele>
        <time>2019-08-17T08:04:16Z</time>
      </trkpt>
      <trkpt lat="45.06739" lon="5.56529">
        <ele>1209.6</ele>
        <time>2019-08-17T08:04:17Z</time>
      </trkpt>
      <trkpt lat="45.06737" lon="5.56537">
        <ele>1209.6</ele>
        <time>2019-08-17T08:04:18Z</time>
      </trkpt>
      <trkpt lat="45.06736" lon="5.56545">
        <ele>1209.4</ele>
        <time>2019-08-17T08:04:19Z</time>
      </trkpt>
      <trkpt lat="45.06737" lon="5.56552">
        <ele>1209.4</ele>
        <time>2019-08-17T08:04:20Z</time>
      </trkpt>
      <trkpt lat="45.06739" lon="5.56558">
        <ele>1209.2</ele>
        <time>2019-08-17T08:04:21Z</time>
      </trkpt>
      <trkpt lat="45.06746" lon="5.56567">
        <ele>1209.2</ele>
        <time>2019-08-17T08:04:23Z</time>
      </trkpt>
      <trkpt lat="45.0675" lon="5.5657">
        <ele>1209</ele>
        <time>2019-08-17T08:04:24Z</time>
      </trkpt>
      <trkpt lat="45.06772" lon="5.56579">
        <ele>1208.8</ele>
        <time>2019-08-17T08:04:29Z</time>
      </trkpt>
      <trkpt lat="45.06791" lon="5.56579">
        <ele>1209.4</ele>
        <time>2019-08-17T08:04:33Z</time>
      </trkpt>
      <trkpt lat="45.06812" lon="5.56582">
        <ele>1209.4</ele>
        <time>2019-08-17T08:04:38Z</time>
      </trkpt>
      <trkpt lat="45.06823" lon="5.56587">
        <ele>1209.2</ele>
        <time>2019-08-17T08:04:41Z</time>
      </trkpt>
      <trkpt lat="45.06834" lon="5.56595">
        <ele>1209.4</ele>
        <time>2019-08-17T08:04:44Z</time>
      </trkpt>
      <trkpt lat="45.06838" lon="5.56598">
        <ele>1209.6</ele>
        <time>2019-08-17T08:04:45Z</time>
      </trkpt>
      <trkpt lat="45.06843" lon="5.56606">
        <ele>1209.8</ele>
        <time>2019-08-17T08:04:47Z</time>
      </trkpt>
      <trkpt lat="45.06848" lon="5.56614">
        <ele>1210</ele>
        <time>2019-08-17T08:04:49Z</time>
      </trkpt>
      <trkpt lat="45.06854" lon="5.56632">
        <ele>1210.8</ele>
        <time>2019-08-17T08:04:53Z</time>
      </trkpt>
      <trkpt lat="45.06858" lon="5.56646">
        <ele>1211.2</ele>
        <time>2019-08-17T08:04:56Z</time>
      </trkpt>
      <trkpt lat="45.06859" lon="5.56655">
        <ele>1211.4</ele>
        <time>2019-08-17T08:04:58Z</time>
      </trkpt>
      <trkpt lat="45.06857" lon="5.56665">
        <ele>1211.4</ele>
        <time>2019-08-17T08:05:00Z</time>
      </trkpt>
      <trkpt lat="45.06854" lon="5.56673">
        <ele>1211.6</ele>
        <time>2019-08-17T08:05:02Z</time>
      </trkpt>
      <trkpt lat="45.06847" lon="5.56682">
        <ele>1211.6</ele>
        <time>2019-08-17T08:05:05Z</time>
      </trkpt>
      <trkpt lat="45.0684" lon="5.56686">
        <ele>1211.2</ele>
        <time>2019-08-17T08:05:07Z</time>
      </trkpt>
      <trkpt lat="45.06825" lon="5.56687">
        <ele>1210.4</ele>
        <time>2019-08-17T08:05:11Z</time>
      </trkpt>
      <trkpt lat="45.06807" lon="5.56689">
        <ele>1208.8</ele>
        <time>2019-08-17T08:05:16Z</time>
      </trkpt>
      <trkpt lat="45.068" lon="5.56693">
        <ele>1208.2</ele>
        <time>2019-08-17T08:05:18Z</time>
      </trkpt>
      <trkpt lat="45.06793" lon="5.56699">
        <ele>1207.6</ele>
        <time>2019-08-17T08:05:20Z</time>
      </trkpt>
      <trkpt lat="45.06789" lon="5.56709">
        <ele>1207.2</ele>
        <time>2019-08-17T08:05:22Z</time>
      </trkpt>
      <trkpt lat="45.06788" lon="5.5672">
        <ele>1206.8</ele>
        <time>2019-08-17T08:05:24Z</time>
      </trkpt>
      <trkpt lat="45.06787" lon="5.56732">
        <ele>1206.4</ele>
        <time>2019-08-17T08:05:26Z</time>
      </trkpt>
      <trkpt lat="45.06788" lon="5.56738">
        <ele>1206.4</ele>
        <time>2019-08-17T08:05:27Z</time>
      </trkpt>
      <trkpt lat="45.06795" lon="5.56776">
        <ele>1206.2</ele>
        <time>2019-08-17T08:05:34Z</time>
      </trkpt>
      <trkpt lat="45.06794" lon="5.56803">
        <ele>1206.8</ele>
        <time>2019-08-17T08:05:39Z</time>
      </trkpt>
      <trkpt lat="45.06789" lon="5.56825">
        <ele>1207.6</ele>
        <time>2019-08-17T08:05:43Z</time>
      </trkpt>
      <trkpt lat="45.06788" lon="5.56837">
        <ele>1208.2</ele>
        <time>2019-08-17T08:05:45Z</time>
      </trkpt>
      <trkpt lat="45.06788" lon="5.5685">
        <ele>1208.6</ele>
        <time>2019-08-17T08:05:47Z</time>
      </trkpt>
      <trkpt lat="45.0679" lon="5.56857">
        <ele>1208.8</ele>
        <time>2019-08-17T08:05:48Z</time>
      </trkpt>
      <trkpt lat="45.06792" lon="5.56863">
        <ele>1208.8</ele>
        <time>2019-08-17T08:05:49Z</time>
      </trkpt>
      <trkpt lat="45.06797" lon="5.56875">
        <ele>1209</ele>
        <time>2019-08-17T08:05:51Z</time>
      </trkpt>
      <trkpt lat="45.06807" lon="5.56889">
        <ele>1209</ele>
        <time>2019-08-17T08:05:54Z</time>
      </trkpt>
      <trkpt lat="45.06825" lon="5.56912">
        <ele>1208.6</ele>
        <time>2019-08-17T08:05:59Z</time>
      </trkpt>
      <trkpt lat="45.06845" lon="5.56931">
        <ele>1208.8</ele>
        <time>2019-08-17T08:06:04Z</time>
      </trkpt>
      <trkpt lat="45.06862" lon="5.56941">
        <ele>1209.6</ele>
        <time>2019-08-17T08:06:08Z</time>
      </trkpt>
      <trkpt lat="45.06879" lon="5.5695">
        <ele>1210.8</ele>
        <time>2019-08-17T08:06:12Z</time>
      </trkpt>
      <trkpt lat="45.06905" lon="5.56961">
        <ele>1212.6</ele>
        <time>2019-08-17T08:06:18Z</time>
      </trkpt>
      <trkpt lat="45.06908" lon="5.56963">
        <ele>1213</ele>
        <time>2019-08-17T08:06:19Z</time>
      </trkpt>
      <trkpt lat="45.06915" lon="5.56969">
        <ele>1213.6</ele>
        <time>2019-08-17T08:06:21Z</time>
      </trkpt>
      <trkpt lat="45.06918" lon="5.56978">
        <ele>1214.2</ele>
        <time>2019-08-17T08:06:23Z</time>
      </trkpt>
      <trkpt lat="45.06919" lon="5.56989">
        <ele>1214.6</ele>
        <time>2019-08-17T08:06:25Z</time>
      </trkpt>
      <trkpt lat="45.06916" lon="5.57">
        <ele>1215.2</ele>
        <time>2019-08-17T08:06:27Z</time>
      </trkpt>
      <trkpt lat="45.06914" lon="5.57005">
        <ele>1215.6</ele>
        <time>2019-08-17T08:06:28Z</time>
      </trkpt>
      <trkpt lat="45.06903" lon="5.57039">
        <ele>1217.6</ele>
        <time>2019-08-17T08:06:34Z</time>
      </trkpt>
      <trkpt lat="45.06903" lon="5.57052">
        <ele>1218.4</ele>
        <time>2019-08-17T08:06:36Z</time>
      </trkpt>
      <trkpt lat="45.06907" lon="5.57063">
        <ele>1219.2</ele>
        <time>2019-08-17T08:06:38Z</time>
      </trkpt>
      <trkpt lat="45.06912" lon="5.57077">
        <ele>1221.2</ele>
        <time>2019-08-17T08:06:42Z</time>
      </trkpt>
      <trkpt lat="45.06915" lon="5.57085">
        <ele>1223</ele>
        <time>2019-08-17T08:06:46Z</time>
      </trkpt>
      <trkpt lat="45.06926" lon="5.57101">
        <ele>1226.2</ele>
        <time>2019-08-17T08:06:54Z</time>
      </trkpt>
      <trkpt lat="45.06934" lon="5.57113">
        <ele>1228.6</ele>
        <time>2019-08-17T08:07:01Z</time>
      </trkpt>
      <trkpt lat="45.06937" lon="5.57116">
        <ele>1229.2</ele>
        <time>2019-08-17T08:07:03Z</time>
      </trkpt>
      <trkpt lat="45.06944" lon="5.57123">
        <ele>1230.2</ele>
        <time>2019-08-17T08:07:07Z</time>
      </trkpt>
      <trkpt lat="45.06954" lon="5.57133">
        <ele>1230.2</ele>
        <time>2019-08-17T08:07:14Z</time>
      </trkpt>
      <trkpt lat="45.06956" lon="5.57138">
        <ele>1230.8</ele>
        <time>2019-08-17T08:07:16Z</time>
      </trkpt>
      <trkpt lat="45.06961" lon="5.57154">
        <ele>1232.4</ele>
        <time>2019-08-17T08:07:23Z</time>
      </trkpt>
      <trkpt lat="45.06959" lon="5.57163">
        <ele>1233</ele>
        <time>2019-08-17T08:07:27Z</time>
      </trkpt>
      <trkpt lat="45.06959" lon="5.57176">
        <ele>1233.4</ele>
        <time>2019-08-17T08:07:33Z</time>
      </trkpt>
      <trkpt lat="45.06955" lon="5.57196">
        <ele>1233.8</ele>
        <time>2019-08-17T08:07:43Z</time>
      </trkpt>
      <trkpt lat="45.06952" lon="5.57217">
        <ele>1233.2</ele>
        <time>2019-08-17T08:07:51Z</time>
      </trkpt>
      <trkpt lat="45.06952" lon="5.57224">
        <ele>1232.6</ele>
        <time>2019-08-17T08:07:54Z</time>
      </trkpt>
      <trkpt lat="45.06957" lon="5.57237">
        <ele>1231.4</ele>
        <time>2019-08-17T08:07:59Z</time>
      </trkpt>
      <trkpt lat="45.0696" lon="5.57245">
        <ele>1230.4</ele>
        <time>2019-08-17T08:08:02Z</time>
      </trkpt>
      <trkpt lat="45.06967" lon="5.57258">
        <ele>1227.6</ele>
        <time>2019-08-17T08:08:09Z</time>
      </trkpt>
      <trkpt lat="45.0697" lon="5.57262">
        <ele>1226.6</ele>
        <time>2019-08-17T08:08:11Z</time>
      </trkpt>
      <trkpt lat="45.06979" lon="5.57276">
        <ele>1223</ele>
        <time>2019-08-17T08:08:19Z</time>
      </trkpt>
      <trkpt lat="45.06984" lon="5.57286">
        <ele>1220.6</ele>
        <time>2019-08-17T08:08:24Z</time>
      </trkpt>
      <trkpt lat="45.06991" lon="5.57297">
        <ele>1217.8</ele>
        <time>2019-08-17T08:08:30Z</time>
      </trkpt>
      <trkpt lat="45.07" lon="5.57308">
        <ele>1215.6</ele>
        <time>2019-08-17T08:08:37Z</time>
      </trkpt>
      <trkpt lat="45.07003" lon="5.57315">
        <ele>1215</ele>
        <time>2019-08-17T08:08:41Z</time>
      </trkpt>
      <trkpt lat="45.07012" lon="5.57328">
        <ele>1214.8</ele>
        <time>2019-08-17T08:08:49Z</time>
      </trkpt>
      <trkpt lat="45.07016" lon="5.57335">
        <ele>1215</ele>
        <time>2019-08-17T08:08:53Z</time>
      </trkpt>
      <trkpt lat="45.07019" lon="5.57345">
        <ele>1214.8</ele>
        <time>2019-08-17T08:08:58Z</time>
      </trkpt>
      <trkpt lat="45.07022" lon="5.57351">
        <ele>1214.4</ele>
        <time>2019-08-17T08:09:01Z</time>
      </trkpt>
      <trkpt lat="45.07029" lon="5.5737">
        <ele>1212.4</ele>
        <time>2019-08-17T08:09:10Z</time>
      </trkpt>
      <trkpt lat="45.07033" lon="5.57382">
        <ele>1211</ele>
        <time>2019-08-17T08:09:16Z</time>
      </trkpt>
      <trkpt lat="45.0704" lon="5.57401">
        <ele>1208.4</ele>
        <time>2019-08-17T08:09:26Z</time>
      </trkpt>
      <trkpt lat="45.07047" lon="5.57416">
        <ele>1206</ele>
        <time>2019-08-17T08:09:34Z</time>
      </trkpt>
      <trkpt lat="45.07048" lon="5.57424">
        <ele>1205</ele>
        <time>2019-08-17T08:09:38Z</time>
      </trkpt>
      <trkpt lat="45.07046" lon="5.57435">
        <ele>1204.4</ele>
        <time>2019-08-17T08:09:43Z</time>
      </trkpt>
      <trkpt lat="45.07043" lon="5.57438">
        <ele>1204.2</ele>
        <time>2019-08-17T08:09:45Z</time>
      </trkpt>
      <trkpt lat="45.07037" lon="5.57441">
        <ele>1204</ele>
        <time>2019-08-17T08:09:49Z</time>
      </trkpt>
      <trkpt lat="45.07029" lon="5.5744">
        <ele>1202.8</ele>
        <time>2019-08-17T08:09:54Z</time>
      </trkpt>
      <trkpt lat="45.07024" lon="5.57436">
        <ele>1202</ele>
        <time>2019-08-17T08:09:58Z</time>
      </trkpt>
      <trkpt lat="45.07011" lon="5.57427">
        <ele>1201.2</ele>
        <time>2019-08-17T08:10:07Z</time>
      </trkpt>
      <trkpt lat="45.07004" lon="5.57422">
        <ele>1201.2</ele>
        <time>2019-08-17T08:10:12Z</time>
      </trkpt>
      <trkpt lat="45.06991" lon="5.5741">
        <ele>1198.6</ele>
        <time>2019-08-17T08:10:21Z</time>
      </trkpt>
      <trkpt lat="45.06984" lon="5.57405">
        <ele>1196.8</ele>
        <time>2019-08-17T08:10:26Z</time>
      </trkpt>
      <trkpt lat="45.06973" lon="5.57399">
        <ele>1194.2</ele>
        <time>2019-08-17T08:10:33Z</time>
      </trkpt>
      <trkpt lat="45.06966" lon="5.57398">
        <ele>1192.8</ele>
        <time>2019-08-17T08:10:37Z</time>
      </trkpt>
      <trkpt lat="45.06959" lon="5.57407">
        <ele>1191.4</ele>
        <time>2019-08-17T08:10:43Z</time>
      </trkpt>
      <trkpt lat="45.06958" lon="5.57414">
        <ele>1190.8</ele>
        <time>2019-08-17T08:10:46Z</time>
      </trkpt>
      <trkpt lat="45.06958" lon="5.57422">
        <ele>1190.2</ele>
        <time>2019-08-17T08:10:50Z</time>
      </trkpt>
      <trkpt lat="45.06961" lon="5.57428">
        <ele>1189.8</ele>
        <time>2019-08-17T08:10:53Z</time>
      </trkpt>
      <trkpt lat="45.06966" lon="5.57437">
        <ele>1188.8</ele>
        <time>2019-08-17T08:10:58Z</time>
      </trkpt>
      <trkpt lat="45.06977" lon="5.57451">
        <ele>1188</ele>
        <time>2019-08-17T08:11:08Z</time>
      </trkpt>
      <trkpt lat="45.06987" lon="5.57469">
        <ele>1187.6</ele>
        <time>2019-08-17T08:11:19Z</time>
      </trkpt>
      <trkpt lat="45.0699" lon="5.57478">
        <ele>1187.2</ele>
        <time>2019-08-17T08:11:24Z</time>
      </trkpt>
      <trkpt lat="45.06995" lon="5.57495">
        <ele>1186.8</ele>
        <time>2019-08-17T08:11:33Z</time>
      </trkpt>
      <trkpt lat="45.06995" lon="5.57499">
        <ele>1186.6</ele>
        <time>2019-08-17T08:11:35Z</time>
      </trkpt>
      <trkpt lat="45.06999" lon="5.5752">
        <ele>1186.6</ele>
        <time>2019-08-17T08:11:45Z</time>
      </trkpt>
      <trkpt lat="45.07" lon="5.57528">
        <ele>1186.8</ele>
        <time>2019-08-17T08:11:49Z</time>
      </trkpt>
      <trkpt lat="45.07" lon="5.57535">
        <ele>1187.2</ele>
        <time>2019-08-17T08:11:52Z</time>
      </trkpt>
      <trkpt lat="45.06998" lon="5.57551">
        <ele>1188.6</ele>
        <time>2019-08-17T08:12:00Z</time>
      </trkpt>
      <trkpt lat="45.06995" lon="5.57561">
        <ele>1189.6</ele>
        <time>2019-08-17T08:12:05Z</time>
      </trkpt>
      <trkpt lat="45.06991" lon="5.57572">
        <ele>1191.4</ele>
        <time>2019-08-17T08:12:11Z</time>
      </trkpt>
      <trkpt lat="45.06991" lon="5.5759">
        <ele>1194.6</ele>
        <time>2019-08-17T08:12:19Z</time>
      </trkpt>
      <trkpt lat="45.06992" lon="5.57598">
        <ele>1196.4</ele>
        <time>2019-08-17T08:12:23Z</time>
      </trkpt>
      <trkpt lat="45.06999" lon="5.5761">
        <ele>1198</ele>
        <time>2019-08-17T08:12:30Z</time>
      </trkpt>
      <trkpt lat="45.07008" lon="5.57622">
        <ele>1199</ele>
        <time>2019-08-17T08:12:39Z</time>
      </trkpt>
      <trkpt lat="45.07013" lon="5.57631">
        <ele>1199.2</ele>
        <time>2019-08-17T08:12:44Z</time>
      </trkpt>
      <trkpt lat="45.07019" lon="5.57641">
        <ele>1199.2</ele>
        <time>2019-08-17T08:12:50Z</time>
      </trkpt>
      <trkpt lat="45.07021" lon="5.57649">
        <ele>1199.4</ele>
        <time>2019-08-17T08:12:54Z</time>
      </trkpt>
      <trkpt lat="45.07029" lon="5.57666">
        <ele>1199.8</ele>
        <time>2019-08-17T08:13:03Z</time>
      </trkpt>
      <trkpt lat="45.07031" lon="5.57675">
        <ele>1200</ele>
        <time>2019-08-17T08:13:07Z</time>
      </trkpt>
      <trkpt lat="45.07035" lon="5.57682">
        <ele>1200.6</ele>
        <time>2019-08-17T08:13:11Z</time>
      </trkpt>
      <trkpt lat="45.07039" lon="5.57694">
        <ele>1201.8</ele>
        <time>2019-08-17T08:13:17Z</time>
      </trkpt>
      <trkpt lat="45.07044" lon="5.57711">
        <ele>1204.6</ele>
        <time>2019-08-17T08:13:26Z</time>
      </trkpt>
      <trkpt lat="45.07036" lon="5.5771">
        <ele>1208</ele>
        <time>2019-08-17T08:13:35Z</time>
      </trkpt>
      <trkpt lat="45.07026" lon="5.57693">
        <ele>1211.2</ele>
        <time>2019-08-17T08:13:44Z</time>
      </trkpt>
      <trkpt lat="45.07022" lon="5.57688">
        <ele>1212.2</ele>
        <time>2019-08-17T08:13:47Z</time>
      </trkpt>
      <trkpt lat="45.07013" lon="5.57677">
        <ele>1214.4</ele>
        <time>2019-08-17T08:13:53Z</time>
      </trkpt>
      <trkpt lat="45.07008" lon="5.5767">
        <ele>1215.4</ele>
        <time>2019-08-17T08:13:56Z</time>
      </trkpt>
      <trkpt lat="45.06999" lon="5.57665">
        <ele>1216.6</ele>
        <time>2019-08-17T08:14:04Z</time>
      </trkpt>
      <trkpt lat="45.06989" lon="5.57673">
        <ele>1222.6</ele>
        <time>2019-08-17T08:14:25Z</time>
      </trkpt>
      <trkpt lat="45.06982" lon="5.5768">
        <ele>1228.8</ele>
        <time>2019-08-17T08:14:47Z</time>
      </trkpt>
      <trkpt lat="45.0697" lon="5.5769">
        <ele>1230.4</ele>
        <time>2019-08-17T08:14:53Z</time>
      </trkpt>
      <trkpt lat="45.0696" lon="5.57702">
        <ele>1232.2</ele>
        <time>2019-08-17T08:14:59Z</time>
      </trkpt>
      <trkpt lat="45.06954" lon="5.57707">
        <ele>1233.4</ele>
        <time>2019-08-17T08:15:02Z</time>
      </trkpt>
      <trkpt lat="45.0695" lon="5.57709">
        <ele>1234.4</ele>
        <time>2019-08-17T08:15:04Z</time>
      </trkpt>
      <trkpt lat="45.06942" lon="5.57709">
        <ele>1236</ele>
        <time>2019-08-17T08:15:08Z</time>
      </trkpt>
      <trkpt lat="45.06937" lon="5.57706">
        <ele>1236.6</ele>
        <time>2019-08-17T08:15:11Z</time>
      </trkpt>
      <trkpt lat="45.06927" lon="5.57695">
        <ele>1236.6</ele>
        <time>2019-08-17T08:15:18Z</time>
      </trkpt>
      <trkpt lat="45.06918" lon="5.57684">
        <ele>1235.6</ele>
        <time>2019-08-17T08:15:24Z</time>
      </trkpt>
      <trkpt lat="45.06913" lon="5.57675">
        <ele>1234</ele>
        <time>2019-08-17T08:15:29Z</time>
      </trkpt>
      <trkpt lat="45.06906" lon="5.57657">
        <ele>1232.2</ele>
        <time>2019-08-17T08:15:39Z</time>
      </trkpt>
      <trkpt lat="45.069" lon="5.57643">
        <ele>1231.8</ele>
        <time>2019-08-17T08:15:48Z</time>
      </trkpt>
      <trkpt lat="45.06891" lon="5.57638">
        <ele>1231.8</ele>
        <time>2019-08-17T08:15:56Z</time>
      </trkpt>
      <trkpt lat="45.06882" lon="5.57633">
        <ele>1231.8</ele>
        <time>2019-08-17T08:16:06Z</time>
      </trkpt>
      <trkpt lat="45.06872" lon="5.57631">
        <ele>1234.4</ele>
        <time>2019-08-17T08:16:19Z</time>
      </trkpt>
      <trkpt lat="45.06864" lon="5.57627">
        <ele>1237.4</ele>
        <time>2019-08-17T08:16:30Z</time>
      </trkpt>
      <trkpt lat="45.06857" lon="5.57626">
        <ele>1239.2</ele>
        <time>2019-08-17T08:16:36Z</time>
      </trkpt>
      <trkpt lat="45.0685" lon="5.57623">
        <ele>1242.2</ele>
        <time>2019-08-17T08:16:47Z</time>
      </trkpt>
      <trkpt lat="45.06844" lon="5.57618">
        <ele>1242.6</ele>
        <time>2019-08-17T08:16:50Z</time>
      </trkpt>
      <trkpt lat="45.06836" lon="5.57615">
        <ele>1242.8</ele>
        <time>2019-08-17T08:16:58Z</time>
      </trkpt>
      <trkpt lat="45.0683" lon="5.5761">
        <ele>1242.8</ele>
        <time>2019-08-17T08:17:02Z</time>
      </trkpt>
      <trkpt lat="45.0682" lon="5.57598">
        <ele>1244</ele>
        <time>2019-08-17T08:17:20Z</time>
      </trkpt>
      <trkpt lat="45.06815" lon="5.57593">
        <ele>1244.6</ele>
        <time>2019-08-17T08:17:28Z</time>
      </trkpt>
      <trkpt lat="45.06796" lon="5.57585">
        <ele>1246</ele>
        <time>2019-08-17T08:17:56Z</time>
      </trkpt>
      <trkpt lat="45.06783" lon="5.57582">
        <ele>1247.2</ele>
        <time>2019-08-17T08:18:09Z</time>
      </trkpt>
      <trkpt lat="45.06781" lon="5.57582">
        <ele>1247.4</ele>
        <time>2019-08-17T08:18:10Z</time>
      </trkpt>
      <trkpt lat="45.06768" lon="5.57575">
        <ele>1249</ele>
        <time>2019-08-17T08:18:51Z</time>
      </trkpt>
      <trkpt lat="45.06757" lon="5.57567">
        <ele>1251</ele>
        <time>2019-08-17T08:19:03Z</time>
      </trkpt>
      <trkpt lat="45.06747" lon="5.57561">
        <ele>1252.2</ele>
        <time>2019-08-17T08:19:09Z</time>
      </trkpt>
      <trkpt lat="45.06735" lon="5.57555">
        <ele>1254.2</ele>
        <time>2019-08-17T08:19:18Z</time>
      </trkpt>
      <trkpt lat="45.06732" lon="5.57553">
        <ele>1255</ele>
        <time>2019-08-17T08:19:21Z</time>
      </trkpt>
      <trkpt lat="45.06718" lon="5.57547">
        <ele>1258</ele>
        <time>2019-08-17T08:19:32Z</time>
      </trkpt>
      <trkpt lat="45.06711" lon="5.57548">
        <ele>1259.2</ele>
        <time>2019-08-17T08:19:37Z</time>
      </trkpt>
      <trkpt lat="45.06703" lon="5.57547">
        <ele>1261.2</ele>
        <time>2019-08-17T08:19:44Z</time>
      </trkpt>
      <trkpt lat="45.06688" lon="5.57552">
        <ele>1265.8</ele>
        <time>2019-08-17T08:20:00Z</time>
      </trkpt>
      <trkpt lat="45.06679" lon="5.57556">
        <ele>1271.4</ele>
        <time>2019-08-17T08:20:51Z</time>
      </trkpt>
      <trkpt lat="45.06654" lon="5.57579">
        <ele>1274.2</ele>
        <time>2019-08-17T08:21:48Z</time>
      </trkpt>
      <trkpt lat="45.06649" lon="5.5759">
        <ele>1275.6</ele>
        <time>2019-08-17T08:22:29Z</time>
      </trkpt>
      <trkpt lat="45.06646" lon="5.57593">
        <ele>1275.8</ele>
        <time>2019-08-17T08:22:33Z</time>
      </trkpt>
      <trkpt lat="45.06629" lon="5.57606">
        <ele>1276.8</ele>
        <time>2019-08-17T08:23:07Z</time>
      </trkpt>
      <trkpt lat="45.06615" lon="5.57617">
        <ele>1278.2</ele>
        <time>2019-08-17T08:23:21Z</time>
      </trkpt>
      <trkpt lat="45.06611" lon="5.57619">
        <ele>1278.6</ele>
        <time>2019-08-17T08:23:25Z</time>
      </trkpt>
      <trkpt lat="45.06604" lon="5.57626">
        <ele>1279.8</ele>
        <time>2019-08-17T08:23:32Z</time>
      </trkpt>
      <trkpt lat="45.06599" lon="5.5763">
        <ele>1280.4</ele>
        <time>2019-08-17T08:23:36Z</time>
      </trkpt>
      <trkpt lat="45.06596" lon="5.57634">
        <ele>1280.8</ele>
        <time>2019-08-17T08:23:39Z</time>
      </trkpt>
      <trkpt lat="45.06588" lon="5.57642">
        <ele>1282.2</ele>
        <time>2019-08-17T08:23:47Z</time>
      </trkpt>
      <trkpt lat="45.0658" lon="5.57649">
        <ele>1283.2</ele>
        <time>2019-08-17T08:23:53Z</time>
      </trkpt>
      <trkpt lat="45.0657" lon="5.57659">
        <ele>1284.8</ele>
        <time>2019-08-17T08:24:02Z</time>
      </trkpt>
      <trkpt lat="45.06561" lon="5.57668">
        <ele>1286.4</ele>
        <time>2019-08-17T08:24:10Z</time>
      </trkpt>
      <trkpt lat="45.06541" lon="5.57678">
        <ele>1289.6</ele>
        <time>2019-08-17T08:24:23Z</time>
      </trkpt>
      <trkpt lat="45.06533" lon="5.57684">
        <ele>1290.8</ele>
        <time>2019-08-17T08:24:28Z</time>
      </trkpt>
      <trkpt lat="45.06517" lon="5.57689">
        <ele>1292.8</ele>
        <time>2019-08-17T08:24:35Z</time>
      </trkpt>
      <trkpt lat="45.0651" lon="5.57689">
        <ele>1294</ele>
        <time>2019-08-17T08:24:39Z</time>
      </trkpt>
      <trkpt lat="45.065" lon="5.57687">
        <ele>1295.2</ele>
        <time>2019-08-17T08:24:44Z</time>
      </trkpt>
      <trkpt lat="45.0649" lon="5.57682">
        <ele>1296.6</ele>
        <time>2019-08-17T08:24:49Z</time>
      </trkpt>
      <trkpt lat="45.06482" lon="5.57681">
        <ele>1297.4</ele>
        <time>2019-08-17T08:24:52Z</time>
      </trkpt>
      <trkpt lat="45.06468" lon="5.57676">
        <ele>1299.6</ele>
        <time>2019-08-17T08:25:00Z</time>
      </trkpt>
      <trkpt lat="45.06453" lon="5.57671">
        <ele>1302.6</ele>
        <time>2019-08-17T08:25:12Z</time>
      </trkpt>
      <trkpt lat="45.06445" lon="5.57666">
        <ele>1303.6</ele>
        <time>2019-08-17T08:25:16Z</time>
      </trkpt>
      <trkpt lat="45.06437" lon="5.5766">
        <ele>1305.2</ele>
        <time>2019-08-17T08:25:22Z</time>
      </trkpt>
      <trkpt lat="45.06428" lon="5.57654">
        <ele>1307.2</ele>
        <time>2019-08-17T08:25:31Z</time>
      </trkpt>
      <trkpt lat="45.06424" lon="5.57647">
        <ele>1307.8</ele>
        <time>2019-08-17T08:25:36Z</time>
      </trkpt>
      <trkpt lat="45.06415" lon="5.57643">
        <ele>1308</ele>
        <time>2019-08-17T08:25:44Z</time>
      </trkpt>
      <trkpt lat="45.06406" lon="5.57639">
        <ele>1308.2</ele>
        <time>2019-08-17T08:25:50Z</time>
      </trkpt>
      <trkpt lat="45.064" lon="5.57637">
        <ele>1308</ele>
        <time>2019-08-17T08:25:54Z</time>
      </trkpt>
      <trkpt lat="45.0639" lon="5.5764">
        <ele>1307</ele>
        <time>2019-08-17T08:26:01Z</time>
      </trkpt>
      <trkpt lat="45.06386" lon="5.57643">
        <ele>1306.4</ele>
        <time>2019-08-17T08:26:04Z</time>
      </trkpt>
      <trkpt lat="45.06377" lon="5.57649">
        <ele>1305.2</ele>
        <time>2019-08-17T08:26:11Z</time>
      </trkpt>
      <trkpt lat="45.06366" lon="5.57661">
        <ele>1303.2</ele>
        <time>2019-08-17T08:26:21Z</time>
      </trkpt>
      <trkpt lat="45.06354" lon="5.57668">
        <ele>1301.6</ele>
        <time>2019-08-17T08:26:30Z</time>
      </trkpt>
      <trkpt lat="45.06344" lon="5.57676">
        <ele>1302.8</ele>
        <time>2019-08-17T08:26:41Z</time>
      </trkpt>
      <trkpt lat="45.06333" lon="5.57681">
        <ele>1304.4</ele>
        <time>2019-08-17T08:26:49Z</time>
      </trkpt>
      <trkpt lat="45.06329" lon="5.57685">
        <ele>1305.4</ele>
        <time>2019-08-17T08:26:53Z</time>
      </trkpt>
      <trkpt lat="45.06321" lon="5.57693">
        <ele>1307.2</ele>
        <time>2019-08-17T08:27:00Z</time>
      </trkpt>
      <trkpt lat="45.06313" lon="5.57697">
        <ele>1308.4</ele>
        <time>2019-08-17T08:27:04Z</time>
      </trkpt>
      <trkpt lat="45.06307" lon="5.57702">
        <ele>1309.8</ele>
        <time>2019-08-17T08:27:09Z</time>
      </trkpt>
      <trkpt lat="45.06301" lon="5.57703">
        <ele>1310.8</ele>
        <time>2019-08-17T08:27:13Z</time>
      </trkpt>
      <trkpt lat="45.06292" lon="5.57709">
        <ele>1311.8</ele>
        <time>2019-08-17T08:27:18Z</time>
      </trkpt>
      <trkpt lat="45.06281" lon="5.57719">
        <ele>1312.6</ele>
        <time>2019-08-17T08:27:26Z</time>
      </trkpt>
      <trkpt lat="45.06276" lon="5.57722">
        <ele>1313.4</ele>
        <time>2019-08-17T08:27:30Z</time>
      </trkpt>
      <trkpt lat="45.06271" lon="5.57728">
        <ele>1314.4</ele>
        <time>2019-08-17T08:27:34Z</time>
      </trkpt>
      <trkpt lat="45.06265" lon="5.57734">
        <ele>1316.4</ele>
        <time>2019-08-17T08:27:40Z</time>
      </trkpt>
      <trkpt lat="45.0626" lon="5.57736">
        <ele>1317.8</ele>
        <time>2019-08-17T08:27:44Z</time>
      </trkpt>
      <trkpt lat="45.06247" lon="5.57742">
        <ele>1321.2</ele>
        <time>2019-08-17T08:27:53Z</time>
      </trkpt>
      <trkpt lat="45.0624" lon="5.57749">
        <ele>1324.4</ele>
        <time>2019-08-17T08:28:01Z</time>
      </trkpt>
      <trkpt lat="45.06233" lon="5.57766">
        <ele>1328.8</ele>
        <time>2019-08-17T08:30:20Z</time>
      </trkpt>
      <trkpt lat="45.06228" lon="5.57783">
        <ele>1328.6</ele>
        <time>2019-08-17T08:30:27Z</time>
      </trkpt>
      <trkpt lat="45.06226" lon="5.57795">
        <ele>1328.2</ele>
        <time>2019-08-17T08:30:33Z</time>
      </trkpt>
      <trkpt lat="45.06221" lon="5.57805">
        <ele>1328.2</ele>
        <time>2019-08-17T08:30:37Z</time>
      </trkpt>
      <trkpt lat="45.06213" lon="5.57818">
        <ele>1328.4</ele>
        <time>2019-08-17T08:30:44Z</time>
      </trkpt>
      <trkpt lat="45.0621" lon="5.57824">
        <ele>1328.6</ele>
        <time>2019-08-17T08:30:48Z</time>
      </trkpt>
      <trkpt lat="45.062" lon="5.57836">
        <ele>1330.4</ele>
        <time>2019-08-17T08:30:59Z</time>
      </trkpt>
      <trkpt lat="45.06192" lon="5.5785">
        <ele>1332.2</ele>
        <time>2019-08-17T08:31:10Z</time>
      </trkpt>
      <trkpt lat="45.06186" lon="5.57861">
        <ele>1333.8</ele>
        <time>2019-08-17T08:31:18Z</time>
      </trkpt>
      <trkpt lat="45.06184" lon="5.57869">
        <ele>1334.8</ele>
        <time>2019-08-17T08:31:23Z</time>
      </trkpt>
      <trkpt lat="45.06174" lon="5.57885">
        <ele>1337</ele>
        <time>2019-08-17T08:31:34Z</time>
      </trkpt>
      <trkpt lat="45.06171" lon="5.57891">
        <ele>1337.6</ele>
        <time>2019-08-17T08:31:38Z</time>
      </trkpt>
      <trkpt lat="45.06165" lon="5.57899">
        <ele>1338.6</ele>
        <time>2019-08-17T08:31:44Z</time>
      </trkpt>
      <trkpt lat="45.0616" lon="5.57905">
        <ele>1339.4</ele>
        <time>2019-08-17T08:31:48Z</time>
      </trkpt>
      <trkpt lat="45.06147" lon="5.57918">
        <ele>1341</ele>
        <time>2019-08-17T08:31:58Z</time>
      </trkpt>
      <trkpt lat="45.06132" lon="5.57926">
        <ele>1342.2</ele>
        <time>2019-08-17T08:32:06Z</time>
      </trkpt>
      <trkpt lat="45.06128" lon="5.5793">
        <ele>1342.4</ele>
        <time>2019-08-17T08:32:08Z</time>
      </trkpt>
      <trkpt lat="45.06118" lon="5.57942">
        <ele>1343.2</ele>
        <time>2019-08-17T08:32:15Z</time>
      </trkpt>
      <trkpt lat="45.06108" lon="5.57952">
        <ele>1344</ele>
        <time>2019-08-17T08:32:22Z</time>
      </trkpt>
      <trkpt lat="45.06103" lon="5.5796">
        <ele>1344.6</ele>
        <time>2019-08-17T08:32:26Z</time>
      </trkpt>
      <trkpt lat="45.06095" lon="5.57965">
        <ele>1345</ele>
        <time>2019-08-17T08:32:31Z</time>
      </trkpt>
      <trkpt lat="45.06091" lon="5.57967">
        <ele>1345.2</ele>
        <time>2019-08-17T08:32:33Z</time>
      </trkpt>
      <trkpt lat="45.06083" lon="5.57973">
        <ele>1345.6</ele>
        <time>2019-08-17T08:32:38Z</time>
      </trkpt>
      <trkpt lat="45.06075" lon="5.57979">
        <ele>1346.4</ele>
        <time>2019-08-17T08:32:44Z</time>
      </trkpt>
      <trkpt lat="45.06067" lon="5.57982">
        <ele>1347</ele>
        <time>2019-08-17T08:32:48Z</time>
      </trkpt>
      <trkpt lat="45.06061" lon="5.57986">
        <ele>1347.8</ele>
        <time>2019-08-17T08:32:53Z</time>
      </trkpt>
      <trkpt lat="45.06057" lon="5.57993">
        <ele>1348.4</ele>
        <time>2019-08-17T08:32:57Z</time>
      </trkpt>
      <trkpt lat="45.06054" lon="5.58001">
        <ele>1349</ele>
        <time>2019-08-17T08:33:01Z</time>
      </trkpt>
      <trkpt lat="45.06052" lon="5.58013">
        <ele>1350.6</ele>
        <time>2019-08-17T08:33:10Z</time>
      </trkpt>
      <trkpt lat="45.06047" lon="5.58025">
        <ele>1351.6</ele>
        <time>2019-08-17T08:33:17Z</time>
      </trkpt>
      <trkpt lat="45.06046" lon="5.58032">
        <ele>1352</ele>
        <time>2019-08-17T08:33:21Z</time>
      </trkpt>
      <trkpt lat="45.06043" lon="5.58042">
        <ele>1352.6</ele>
        <time>2019-08-17T08:33:26Z</time>
      </trkpt>
      <trkpt lat="45.06035" lon="5.58056">
        <ele>1353.6</ele>
        <time>2019-08-17T08:33:34Z</time>
      </trkpt>
      <trkpt lat="45.06025" lon="5.58065">
        <ele>1354.8</ele>
        <time>2019-08-17T08:33:42Z</time>
      </trkpt>
      <trkpt lat="45.06017" lon="5.58077">
        <ele>1356</ele>
        <time>2019-08-17T08:33:50Z</time>
      </trkpt>
      <trkpt lat="45.06012" lon="5.58089">
        <ele>1357.2</ele>
        <time>2019-08-17T08:33:57Z</time>
      </trkpt>
      <trkpt lat="45.06004" lon="5.581">
        <ele>1359</ele>
        <time>2019-08-17T08:34:07Z</time>
      </trkpt>
      <trkpt lat="45.05998" lon="5.58104">
        <ele>1359.8</ele>
        <time>2019-08-17T08:34:11Z</time>
      </trkpt>
      <trkpt lat="45.05988" lon="5.58114">
        <ele>1361</ele>
        <time>2019-08-17T08:34:18Z</time>
      </trkpt>
      <trkpt lat="45.05981" lon="5.5812">
        <ele>1361.8</ele>
        <time>2019-08-17T08:34:23Z</time>
      </trkpt>
      <trkpt lat="45.0597" lon="5.58128">
        <ele>1363.2</ele>
        <time>2019-08-17T08:34:31Z</time>
      </trkpt>
      <trkpt lat="45.05961" lon="5.58138">
        <ele>1364.6</ele>
        <time>2019-08-17T08:34:40Z</time>
      </trkpt>
      <trkpt lat="45.05955" lon="5.58149">
        <ele>1366</ele>
        <time>2019-08-17T08:34:48Z</time>
      </trkpt>
      <trkpt lat="45.05949" lon="5.58155">
        <ele>1367.2</ele>
        <time>2019-08-17T08:34:54Z</time>
      </trkpt>
      <trkpt lat="45.05942" lon="5.58162">
        <ele>1368.6</ele>
        <time>2019-08-17T08:35:01Z</time>
      </trkpt>
      <trkpt lat="45.05936" lon="5.58166">
        <ele>1369.6</ele>
        <time>2019-08-17T08:35:06Z</time>
      </trkpt>
      <trkpt lat="45.05924" lon="5.58179">
        <ele>1371.2</ele>
        <time>2019-08-17T08:35:19Z</time>
      </trkpt>
      <trkpt lat="45.05921" lon="5.58183">
        <ele>1371.6</ele>
        <time>2019-08-17T08:35:22Z</time>
      </trkpt>
      <trkpt lat="45.05914" lon="5.58191">
        <ele>1373</ele>
        <time>2019-08-17T08:35:30Z</time>
      </trkpt>
      <trkpt lat="45.05907" lon="5.58197">
        <ele>1374.2</ele>
        <time>2019-08-17T08:35:37Z</time>
      </trkpt>
      <trkpt lat="45.05902" lon="5.58202">
        <ele>1375</ele>
        <time>2019-08-17T08:35:43Z</time>
      </trkpt>
      <trkpt lat="45.05892" lon="5.58211">
        <ele>1376.6</ele>
        <time>2019-08-17T08:35:53Z</time>
      </trkpt>
      <trkpt lat="45.0589" lon="5.58213">
        <ele>1377</ele>
        <time>2019-08-17T08:35:55Z</time>
      </trkpt>
      <trkpt lat="45.05882" lon="5.58221">
        <ele>1378.2</ele>
        <time>2019-08-17T08:36:03Z</time>
      </trkpt>
      <trkpt lat="45.05875" lon="5.58227">
        <ele>1379.6</ele>
        <time>2019-08-17T08:36:11Z</time>
      </trkpt>
      <trkpt lat="45.05864" lon="5.58234">
        <ele>1381.4</ele>
        <time>2019-08-17T08:36:21Z</time>
      </trkpt>
      <trkpt lat="45.05857" lon="5.5824">
        <ele>1382.6</ele>
        <time>2019-08-17T08:36:28Z</time>
      </trkpt>
      <trkpt lat="45.0585" lon="5.58245">
        <ele>1383.6</ele>
        <time>2019-08-17T08:36:35Z</time>
      </trkpt>
      <trkpt lat="45.05844" lon="5.58249">
        <ele>1384.2</ele>
        <time>2019-08-17T08:36:40Z</time>
      </trkpt>
      <trkpt lat="45.05838" lon="5.58253">
        <ele>1385</ele>
        <time>2019-08-17T08:36:45Z</time>
      </trkpt>
      <trkpt lat="45.05829" lon="5.58255">
        <ele>1385.8</ele>
        <time>2019-08-17T08:36:52Z</time>
      </trkpt>
      <trkpt lat="45.05823" lon="5.58258">
        <ele>1386.4</ele>
        <time>2019-08-17T08:36:56Z</time>
      </trkpt>
      <trkpt lat="45.05818" lon="5.58263">
        <ele>1387</ele>
        <time>2019-08-17T08:37:01Z</time>
      </trkpt>
      <trkpt lat="45.05811" lon="5.58266">
        <ele>1387.8</ele>
        <time>2019-08-17T08:37:05Z</time>
      </trkpt>
      <trkpt lat="45.05802" lon="5.58274">
        <ele>1388.6</ele>
        <time>2019-08-17T08:37:11Z</time>
      </trkpt>
      <trkpt lat="45.05792" lon="5.5828">
        <ele>1390</ele>
        <time>2019-08-17T08:37:18Z</time>
      </trkpt>
      <trkpt lat="45.0578" lon="5.58286">
        <ele>1391</ele>
        <time>2019-08-17T08:37:24Z</time>
      </trkpt>
      <trkpt lat="45.05776" lon="5.58291">
        <ele>1391.4</ele>
        <time>2019-08-17T08:37:27Z</time>
      </trkpt>
      <trkpt lat="45.05766" lon="5.58299">
        <ele>1392.4</ele>
        <time>2019-08-17T08:37:32Z</time>
      </trkpt>
      <trkpt lat="45.05761" lon="5.58302">
        <ele>1392.8</ele>
        <time>2019-08-17T08:37:34Z</time>
      </trkpt>
      <trkpt lat="45.05751" lon="5.58306">
        <ele>1393.6</ele>
        <time>2019-08-17T08:37:39Z</time>
      </trkpt>
      <trkpt lat="45.05738" lon="5.58309">
        <ele>1394.8</ele>
        <time>2019-08-17T08:37:45Z</time>
      </trkpt>
      <trkpt lat="45.05724" lon="5.58312">
        <ele>1396.6</ele>
        <time>2019-08-17T08:37:52Z</time>
      </trkpt>
      <trkpt lat="45.05716" lon="5.58312">
        <ele>1398.6</ele>
        <time>2019-08-17T08:37:58Z</time>
      </trkpt>
      <trkpt lat="45.05707" lon="5.58318">
        <ele>1401</ele>
        <time>2019-08-17T08:38:06Z</time>
      </trkpt>
      <trkpt lat="45.05696" lon="5.58323">
        <ele>1405.8</ele>
        <time>2019-08-17T08:38:55Z</time>
      </trkpt>
      <trkpt lat="45.05684" lon="5.58324">
        <ele>1406.6</ele>
        <time>2019-08-17T08:39:05Z</time>
      </trkpt>
      <trkpt lat="45.05672" lon="5.58326">
        <ele>1408.4</ele>
        <time>2019-08-17T08:39:14Z</time>
      </trkpt>
      <trkpt lat="45.05661" lon="5.58325">
        <ele>1410.2</ele>
        <time>2019-08-17T08:39:22Z</time>
      </trkpt>
      <trkpt lat="45.05648" lon="5.58325">
        <ele>1411.6</ele>
        <time>2019-08-17T08:39:29Z</time>
      </trkpt>
      <trkpt lat="45.05643" lon="5.58326">
        <ele>1412.2</ele>
        <time>2019-08-17T08:39:32Z</time>
      </trkpt>
      <trkpt lat="45.05634" lon="5.58326">
        <ele>1413</ele>
        <time>2019-08-17T08:39:36Z</time>
      </trkpt>
      <trkpt lat="45.05623" lon="5.58329">
        <ele>1414.2</ele>
        <time>2019-08-17T08:39:43Z</time>
      </trkpt>
      <trkpt lat="45.05617" lon="5.58328">
        <ele>1414.8</ele>
        <time>2019-08-17T08:39:46Z</time>
      </trkpt>
      <trkpt lat="45.05604" lon="5.58327">
        <ele>1416.6</ele>
        <time>2019-08-17T08:39:55Z</time>
      </trkpt>
      <trkpt lat="45.05594" lon="5.58325">
        <ele>1418</ele>
        <time>2019-08-17T08:40:02Z</time>
      </trkpt>
      <trkpt lat="45.05587" lon="5.58323">
        <ele>1419.8</ele>
        <time>2019-08-17T08:40:09Z</time>
      </trkpt>
      <trkpt lat="45.0558" lon="5.58323">
        <ele>1421.4</ele>
        <time>2019-08-17T08:40:16Z</time>
      </trkpt>
      <trkpt lat="45.05577" lon="5.58324">
        <ele>1422.6</ele>
        <time>2019-08-17T08:40:20Z</time>
      </trkpt>
      <trkpt lat="45.05568" lon="5.58328">
        <ele>1425.2</ele>
        <time>2019-08-17T08:40:31Z</time>
      </trkpt>
      <trkpt lat="45.05551" lon="5.58331">
        <ele>1428.6</ele>
        <time>2019-08-17T08:40:47Z</time>
      </trkpt>
      <trkpt lat="45.05541" lon="5.58334">
        <ele>1429.4</ele>
        <time>2019-08-17T08:40:53Z</time>
      </trkpt>
      <trkpt lat="45.05529" lon="5.5834">
        <ele>1431.8</ele>
        <time>2019-08-17T08:41:04Z</time>
      </trkpt>
      <trkpt lat="45.05523" lon="5.58342">
        <ele>1433</ele>
        <time>2019-08-17T08:41:10Z</time>
      </trkpt>
      <trkpt lat="45.05515" lon="5.58341">
        <ele>1433.6</ele>
        <time>2019-08-17T08:41:16Z</time>
      </trkpt>
      <trkpt lat="45.05502" lon="5.58342">
        <ele>1434.2</ele>
        <time>2019-08-17T08:41:30Z</time>
      </trkpt>
      <trkpt lat="45.05493" lon="5.58347">
        <ele>1435.6</ele>
        <time>2019-08-17T08:41:45Z</time>
      </trkpt>
      <trkpt lat="45.05484" lon="5.58362">
        <ele>1438.6</ele>
        <time>2019-08-17T08:42:03Z</time>
      </trkpt>
      <trkpt lat="45.05476" lon="5.58388">
        <ele>1443</ele>
        <time>2019-08-17T08:42:26Z</time>
      </trkpt>
      <trkpt lat="45.05475" lon="5.5839">
        <ele>1443.6</ele>
        <time>2019-08-17T08:42:29Z</time>
      </trkpt>
      <trkpt lat="45.05472" lon="5.58404">
        <ele>1446.4</ele>
        <time>2019-08-17T08:43:03Z</time>
      </trkpt>
      <trkpt lat="45.05471" lon="5.58405">
        <ele>1446.6</ele>
        <time>2019-08-17T08:43:05Z</time>
      </trkpt>
      <trkpt lat="45.05468" lon="5.58418">
        <ele>1448.2</ele>
        <time>2019-08-17T08:43:17Z</time>
      </trkpt>
      <trkpt lat="45.05461" lon="5.58434">
        <ele>1451.2</ele>
        <time>2019-08-17T08:43:33Z</time>
      </trkpt>
      <trkpt lat="45.05452" lon="5.58442">
        <ele>1453.2</ele>
        <time>2019-08-17T08:43:47Z</time>
      </trkpt>
      <trkpt lat="45.0545" lon="5.58456">
        <ele>1454.4</ele>
        <time>2019-08-17T08:44:17Z</time>
      </trkpt>
      <trkpt lat="45.0545" lon="5.58462">
        <ele>1454.4</ele>
        <time>2019-08-17T08:44:21Z</time>
      </trkpt>
      <trkpt lat="45.05444" lon="5.58468">
        <ele>1454</ele>
        <time>2019-08-17T08:44:26Z</time>
      </trkpt>
      <trkpt lat="45.05438" lon="5.58478">
        <ele>1453.6</ele>
        <time>2019-08-17T08:44:33Z</time>
      </trkpt>
      <trkpt lat="45.05429" lon="5.58488">
        <ele>1455</ele>
        <time>2019-08-17T08:44:43Z</time>
      </trkpt>
      <trkpt lat="45.05421" lon="5.58493">
        <ele>1456.2</ele>
        <time>2019-08-17T08:44:50Z</time>
      </trkpt>
      <trkpt lat="45.05413" lon="5.585">
        <ele>1457.2</ele>
        <time>2019-08-17T08:44:58Z</time>
      </trkpt>
      <trkpt lat="45.05405" lon="5.58503">
        <ele>1458.6</ele>
        <time>2019-08-17T08:45:06Z</time>
      </trkpt>
      <trkpt lat="45.05382" lon="5.58518">
        <ele>1460</ele>
        <time>2019-08-17T08:45:51Z</time>
      </trkpt>
      <trkpt lat="45.05379" lon="5.58518">
        <ele>1459.2</ele>
        <time>2019-08-17T08:45:59Z</time>
      </trkpt>
      <trkpt lat="45.05375" lon="5.5852">
        <ele>1458.4</ele>
        <time>2019-08-17T08:46:08Z</time>
      </trkpt>
      <trkpt lat="45.05366" lon="5.58518">
        <ele>1459</ele>
        <time>2019-08-17T08:46:19Z</time>
      </trkpt>
      <trkpt lat="45.0536" lon="5.58519">
        <ele>1460</ele>
        <time>2019-08-17T08:46:28Z</time>
      </trkpt>
      <trkpt lat="45.05355" lon="5.58518">
        <ele>1461.2</ele>
        <time>2019-08-17T08:46:40Z</time>
      </trkpt>
      <trkpt lat="45.0535" lon="5.58516">
        <ele>1460.4</ele>
        <time>2019-08-17T08:46:44Z</time>
      </trkpt>
      <trkpt lat="45.05338" lon="5.58516">
        <ele>1458</ele>
        <time>2019-08-17T08:46:52Z</time>
      </trkpt>
      <trkpt lat="45.05331" lon="5.58521">
        <ele>1456.4</ele>
        <time>2019-08-17T08:46:58Z</time>
      </trkpt>
      <trkpt lat="45.05328" lon="5.58528">
        <ele>1455.4</ele>
        <time>2019-08-17T08:47:02Z</time>
      </trkpt>
      <trkpt lat="45.05331" lon="5.58537">
        <ele>1453.8</ele>
        <time>2019-08-17T08:47:07Z</time>
      </trkpt>
      <trkpt lat="45.05341" lon="5.58546">
        <ele>1448.8</ele>
        <time>2019-08-17T08:47:18Z</time>
      </trkpt>
      <trkpt lat="45.0535" lon="5.58556">
        <ele>1443.8</ele>
        <time>2019-08-17T08:47:29Z</time>
      </trkpt>
      <trkpt lat="45.05357" lon="5.58568">
        <ele>1441.6</ele>
        <time>2019-08-17T08:47:40Z</time>
      </trkpt>
      <trkpt lat="45.05357" lon="5.58573">
        <ele>1441.2</ele>
        <time>2019-08-17T08:47:43Z</time>
      </trkpt>
      <trkpt lat="45.05352" lon="5.58578">
        <ele>1440.2</ele>
        <time>2019-08-17T08:47:49Z</time>
      </trkpt>
      <trkpt lat="45.05349" lon="5.58581">
        <ele>1439.4</ele>
        <time>2019-08-17T08:47:53Z</time>
      </trkpt>
      <trkpt lat="45.05334" lon="5.58587">
        <ele>1436</ele>
        <time>2019-08-17T08:48:05Z</time>
      </trkpt>
      <trkpt lat="45.05327" lon="5.58593">
        <ele>1434.2</ele>
        <time>2019-08-17T08:48:12Z</time>
      </trkpt>
      <trkpt lat="45.05323" lon="5.58601">
        <ele>1433.2</ele>
        <time>2019-08-17T08:48:18Z</time>
      </trkpt>
      <trkpt lat="45.0532" lon="5.5861">
        <ele>1432.2</ele>
        <time>2019-08-17T08:48:24Z</time>
      </trkpt>
      <trkpt lat="45.05317" lon="5.58617">
        <ele>1431.4</ele>
        <time>2019-08-17T08:48:29Z</time>
      </trkpt>
      <trkpt lat="45.05311" lon="5.58629">
        <ele>1429.8</ele>
        <time>2019-08-17T08:48:38Z</time>
      </trkpt>
      <trkpt lat="45.05305" lon="5.5864">
        <ele>1429</ele>
        <time>2019-08-17T08:48:46Z</time>
      </trkpt>
      <trkpt lat="45.05304" lon="5.58651">
        <ele>1428.4</ele>
        <time>2019-08-17T08:48:53Z</time>
      </trkpt>
      <trkpt lat="45.05305" lon="5.58668">
        <ele>1427</ele>
        <time>2019-08-17T08:49:03Z</time>
      </trkpt>
      <trkpt lat="45.05307" lon="5.58673">
        <ele>1426.4</ele>
        <time>2019-08-17T08:49:05Z</time>
      </trkpt>
      <trkpt lat="45.05303" lon="5.5869">
        <ele>1424.8</ele>
        <time>2019-08-17T08:58:03Z</time>
      </trkpt>
      <trkpt lat="45.05302" lon="5.58703">
        <ele>1425</ele>
        <time>2019-08-17T08:58:10Z</time>
      </trkpt>
      <trkpt lat="45.05299" lon="5.58718">
        <ele>1424.8</ele>
        <time>2019-08-17T08:58:18Z</time>
      </trkpt>
      <trkpt lat="45.05298" lon="5.58727">
        <ele>1424.8</ele>
        <time>2019-08-17T08:58:22Z</time>
      </trkpt>
      <trkpt lat="45.05294" lon="5.58739">
        <ele>1424.8</ele>
        <time>2019-08-17T08:58:28Z</time>
      </trkpt>
      <trkpt lat="45.0529" lon="5.58744">
        <ele>1424.8</ele>
        <time>2019-08-17T08:58:31Z</time>
      </trkpt>
      <trkpt lat="45.05285" lon="5.5875">
        <ele>1424.8</ele>
        <time>2019-08-17T08:58:35Z</time>
      </trkpt>
      <trkpt lat="45.05283" lon="5.58757">
        <ele>1424.6</ele>
        <time>2019-08-17T08:58:39Z</time>
      </trkpt>
      <trkpt lat="45.05282" lon="5.58766">
        <ele>1424.4</ele>
        <time>2019-08-17T08:58:45Z</time>
      </trkpt>
      <trkpt lat="45.05283" lon="5.58783">
        <ele>1425.6</ele>
        <time>2019-08-17T08:58:56Z</time>
      </trkpt>
      <trkpt lat="45.0528" lon="5.58792">
        <ele>1426.4</ele>
        <time>2019-08-17T08:59:00Z</time>
      </trkpt>
      <trkpt lat="45.05281" lon="5.58805">
        <ele>1427.6</ele>
        <time>2019-08-17T08:59:05Z</time>
      </trkpt>
      <trkpt lat="45.05285" lon="5.58811">
        <ele>1427.8</ele>
        <time>2019-08-17T08:59:08Z</time>
      </trkpt>
      <trkpt lat="45.05291" lon="5.58824">
        <ele>1429</ele>
        <time>2019-08-17T08:59:13Z</time>
      </trkpt>
      <trkpt lat="45.05294" lon="5.58836">
        <ele>1430.8</ele>
        <time>2019-08-17T08:59:18Z</time>
      </trkpt>
      <trkpt lat="45.05302" lon="5.58851">
        <ele>1433.2</ele>
        <time>2019-08-17T08:59:23Z</time>
      </trkpt>
      <trkpt lat="45.05309" lon="5.58862">
        <ele>1435</ele>
        <time>2019-08-17T08:59:27Z</time>
      </trkpt>
      <trkpt lat="45.0532" lon="5.58871">
        <ele>1437.8</ele>
        <time>2019-08-17T08:59:32Z</time>
      </trkpt>
      <trkpt lat="45.05322" lon="5.58874">
        <ele>1438.4</ele>
        <time>2019-08-17T08:59:33Z</time>
      </trkpt>
      <trkpt lat="45.05326" lon="5.58888">
        <ele>1440.4</ele>
        <time>2019-08-17T08:59:36Z</time>
      </trkpt>
      <trkpt lat="45.05328" lon="5.58908">
        <ele>1443.6</ele>
        <time>2019-08-17T08:59:41Z</time>
      </trkpt>
      <trkpt lat="45.0533" lon="5.58916">
        <ele>1445</ele>
        <time>2019-08-17T08:59:43Z</time>
      </trkpt>
      <trkpt lat="45.05333" lon="5.58923">
        <ele>1447.2</ele>
        <time>2019-08-17T08:59:46Z</time>
      </trkpt>
      <trkpt lat="45.05335" lon="5.58941">
        <ele>1452.4</ele>
        <time>2019-08-17T08:59:53Z</time>
      </trkpt>
      <trkpt lat="45.05337" lon="5.58951">
        <ele>1454.6</ele>
        <time>2019-08-17T08:59:56Z</time>
      </trkpt>
      <trkpt lat="45.05342" lon="5.58964">
        <ele>1457.4</ele>
        <time>2019-08-17T09:00:00Z</time>
      </trkpt>
      <trkpt lat="45.05349" lon="5.58974">
        <ele>1460</ele>
        <time>2019-08-17T09:00:04Z</time>
      </trkpt>
      <trkpt lat="45.05362" lon="5.58989">
        <ele>1464</ele>
        <time>2019-08-17T09:00:10Z</time>
      </trkpt>
      <trkpt lat="45.05373" lon="5.59007">
        <ele>1469.8</ele>
        <time>2019-08-17T09:00:18Z</time>
      </trkpt>
      <trkpt lat="45.05388" lon="5.59019">
        <ele>1475.4</ele>
        <time>2019-08-17T09:00:26Z</time>
      </trkpt>
      <trkpt lat="45.05397" lon="5.59024">
        <ele>1478.2</ele>
        <time>2019-08-17T09:00:30Z</time>
      </trkpt>
      <trkpt lat="45.05412" lon="5.59033">
        <ele>1482.2</ele>
        <time>2019-08-17T09:00:36Z</time>
      </trkpt>
      <trkpt lat="45.05415" lon="5.59037">
        <ele>1483.6</ele>
        <time>2019-08-17T09:00:38Z</time>
      </trkpt>
      <trkpt lat="45.05427" lon="5.59048">
        <ele>1487.2</ele>
        <time>2019-08-17T09:00:43Z</time>
      </trkpt>
      <trkpt lat="45.05438" lon="5.59062">
        <ele>1490.4</ele>
        <time>2019-08-17T09:00:48Z</time>
      </trkpt>
      <trkpt lat="45.05444" lon="5.59068">
        <ele>1491.6</ele>
        <time>2019-08-17T09:00:50Z</time>
      </trkpt>
      <trkpt lat="45.05448" lon="5.59073">
        <ele>1492.8</ele>
        <time>2019-08-17T09:00:52Z</time>
      </trkpt>
      <trkpt lat="45.05452" lon="5.59078">
        <ele>1494.2</ele>
        <time>2019-08-17T09:00:54Z</time>
      </trkpt>
      <trkpt lat="45.05463" lon="5.59087">
        <ele>1497.6</ele>
        <time>2019-08-17T09:00:59Z</time>
      </trkpt>
      <trkpt lat="45.05471" lon="5.59089">
        <ele>1499.6</ele>
        <time>2019-08-17T09:01:02Z</time>
      </trkpt>
      <trkpt lat="45.05483" lon="5.5909">
        <ele>1503</ele>
        <time>2019-08-17T09:01:07Z</time>
      </trkpt>
      <trkpt lat="45.05489" lon="5.59086">
        <ele>1505.6</ele>
        <time>2019-08-17T09:01:11Z</time>
      </trkpt>
      <trkpt lat="45.05502" lon="5.59086">
        <ele>1509.4</ele>
        <time>2019-08-17T09:01:17Z</time>
      </trkpt>
      <trkpt lat="45.05509" lon="5.59084">
        <ele>1510.6</ele>
        <time>2019-08-17T09:01:19Z</time>
      </trkpt>
      <trkpt lat="45.05514" lon="5.59086">
        <ele>1511.8</ele>
        <time>2019-08-17T09:01:21Z</time>
      </trkpt>
      <trkpt lat="45.05522" lon="5.59091">
        <ele>1515.8</ele>
        <time>2019-08-17T09:01:27Z</time>
      </trkpt>
      <trkpt lat="45.05521" lon="5.59078">
        <ele>1518.2</ele>
        <time>2019-08-17T09:01:31Z</time>
      </trkpt>
      <trkpt lat="45.05525" lon="5.59067">
        <ele>1520.6</ele>
        <time>2019-08-17T09:01:35Z</time>
      </trkpt>
      <trkpt lat="45.05528" lon="5.59056">
        <ele>1523</ele>
        <time>2019-08-17T09:01:39Z</time>
      </trkpt>
      <trkpt lat="45.05535" lon="5.59048">
        <ele>1524.4</ele>
        <time>2019-08-17T09:01:42Z</time>
      </trkpt>
      <trkpt lat="45.05543" lon="5.59045">
        <ele>1526.4</ele>
        <time>2019-08-17T09:01:46Z</time>
      </trkpt>
      <trkpt lat="45.05554" lon="5.59028">
        <ele>1530.2</ele>
        <time>2019-08-17T09:01:55Z</time>
      </trkpt>
      <trkpt lat="45.0556" lon="5.59014">
        <ele>1532</ele>
        <time>2019-08-17T09:02:00Z</time>
      </trkpt>
      <trkpt lat="45.05569" lon="5.59006">
        <ele>1533.2</ele>
        <time>2019-08-17T09:02:04Z</time>
      </trkpt>
      <trkpt lat="45.05577" lon="5.59002">
        <ele>1534.2</ele>
        <time>2019-08-17T09:02:07Z</time>
      </trkpt>
      <trkpt lat="45.05592" lon="5.58996">
        <ele>1535.6</ele>
        <time>2019-08-17T09:02:12Z</time>
      </trkpt>
      <trkpt lat="45.05597" lon="5.58995">
        <ele>1536.2</ele>
        <time>2019-08-17T09:02:14Z</time>
      </trkpt>
      <trkpt lat="45.05609" lon="5.58988">
        <ele>1537.6</ele>
        <time>2019-08-17T09:02:19Z</time>
      </trkpt>
      <trkpt lat="45.05614" lon="5.58984">
        <ele>1538.2</ele>
        <time>2019-08-17T09:02:21Z</time>
      </trkpt>
      <trkpt lat="45.0563" lon="5.58974">
        <ele>1539.8</ele>
        <time>2019-08-17T09:02:26Z</time>
      </trkpt>
      <trkpt lat="45.0564" lon="5.58964">
        <ele>1541.2</ele>
        <time>2019-08-17T09:02:31Z</time>
      </trkpt>
      <trkpt lat="45.0565" lon="5.58957">
        <ele>1542.4</ele>
        <time>2019-08-17T09:02:35Z</time>
      </trkpt>
      <trkpt lat="45.05654" lon="5.58952">
        <ele>1542.8</ele>
        <time>2019-08-17T09:02:37Z</time>
      </trkpt>
      <trkpt lat="45.0566" lon="5.58943">
        <ele>1544</ele>
        <time>2019-08-17T09:02:41Z</time>
      </trkpt>
      <trkpt lat="45.05663" lon="5.58939">
        <ele>1544.6</ele>
        <time>2019-08-17T09:02:43Z</time>
      </trkpt>
      <trkpt lat="45.05676" lon="5.58928">
        <ele>1546.4</ele>
        <time>2019-08-17T09:02:49Z</time>
      </trkpt>
      <trkpt lat="45.05694" lon="5.58917">
        <ele>1548.4</ele>
        <time>2019-08-17T09:02:56Z</time>
      </trkpt>
      <trkpt lat="45.05704" lon="5.5891">
        <ele>1549.4</ele>
        <time>2019-08-17T09:03:00Z</time>
      </trkpt>
      <trkpt lat="45.05719" lon="5.589">
        <ele>1551</ele>
        <time>2019-08-17T09:03:07Z</time>
      </trkpt>
      <trkpt lat="45.05728" lon="5.58894">
        <ele>1551.8</ele>
        <time>2019-08-17T09:03:11Z</time>
      </trkpt>
      <trkpt lat="45.05735" lon="5.58891">
        <ele>1552.6</ele>
        <time>2019-08-17T09:03:15Z</time>
      </trkpt>
      <trkpt lat="45.05741" lon="5.589">
        <ele>1553.8</ele>
        <time>2019-08-17T09:03:22Z</time>
      </trkpt>
      <trkpt lat="45.05743" lon="5.5891">
        <ele>1554.4</ele>
        <time>2019-08-17T09:03:26Z</time>
      </trkpt>
      <trkpt lat="45.05747" lon="5.58922">
        <ele>1555</ele>
        <time>2019-08-17T09:03:30Z</time>
      </trkpt>
      <trkpt lat="45.05747" lon="5.58928">
        <ele>1555.4</ele>
        <time>2019-08-17T09:03:32Z</time>
      </trkpt>
      <trkpt lat="45.05748" lon="5.58938">
        <ele>1555.8</ele>
        <time>2019-08-17T09:03:36Z</time>
      </trkpt>
      <trkpt lat="45.05747" lon="5.5895">
        <ele>1556.4</ele>
        <time>2019-08-17T09:03:40Z</time>
      </trkpt>
      <trkpt lat="45.05747" lon="5.58958">
        <ele>1556.8</ele>
        <time>2019-08-17T09:03:42Z</time>
      </trkpt>
      <trkpt lat="45.05745" lon="5.58966">
        <ele>1557.2</ele>
        <time>2019-08-17T09:03:44Z</time>
      </trkpt>
      <trkpt lat="45.05744" lon="5.58975">
        <ele>1557.6</ele>
        <time>2019-08-17T09:03:46Z</time>
      </trkpt>
      <trkpt lat="45.05745" lon="5.58994">
        <ele>1558.4</ele>
        <time>2019-08-17T09:03:51Z</time>
      </trkpt>
      <trkpt lat="45.05745" lon="5.59019">
        <ele>1559.4</ele>
        <time>2019-08-17T09:03:56Z</time>
      </trkpt>
      <trkpt lat="45.05746" lon="5.59024">
        <ele>1559.6</ele>
        <time>2019-08-17T09:03:57Z</time>
      </trkpt>
      <trkpt lat="45.05748" lon="5.59053">
        <ele>1560.4</ele>
        <time>2019-08-17T09:04:02Z</time>
      </trkpt>
      <trkpt lat="45.05749" lon="5.59062">
        <ele>1560.2</ele>
        <time>2019-08-17T09:04:04Z</time>
      </trkpt>
      <trkpt lat="45.05753" lon="5.59066">
        <ele>1559.8</ele>
        <time>2019-08-17T09:04:06Z</time>
      </trkpt>
      <trkpt lat="45.05763" lon="5.5907">
        <ele>1558.6</ele>
        <time>2019-08-17T09:04:10Z</time>
      </trkpt>
      <trkpt lat="45.05771" lon="5.59069">
        <ele>1558.2</ele>
        <time>2019-08-17T09:04:13Z</time>
      </trkpt>
      <trkpt lat="45.0578" lon="5.59071">
        <ele>1558.2</ele>
        <time>2019-08-17T09:04:16Z</time>
      </trkpt>
      <trkpt lat="45.05784" lon="5.59073">
        <ele>1558.2</ele>
        <time>2019-08-17T09:04:17Z</time>
      </trkpt>
      <trkpt lat="45.0579" lon="5.59079">
        <ele>1558.4</ele>
        <time>2019-08-17T09:04:19Z</time>
      </trkpt>
      <trkpt lat="45.05793" lon="5.59086">
        <ele>1558.4</ele>
        <time>2019-08-17T09:04:21Z</time>
      </trkpt>
      <trkpt lat="45.05798" lon="5.59085">
        <ele>1558.2</ele>
        <time>2019-08-17T09:04:23Z</time>
      </trkpt>
      <trkpt lat="45.05806" lon="5.59075">
        <ele>1558.2</ele>
        <time>2019-08-17T09:04:26Z</time>
      </trkpt>
      <trkpt lat="45.05821" lon="5.59064">
        <ele>1558.8</ele>
        <time>2019-08-17T09:04:31Z</time>
      </trkpt>
      <trkpt lat="45.05828" lon="5.59058">
        <ele>1559.2</ele>
        <time>2019-08-17T09:04:33Z</time>
      </trkpt>
      <trkpt lat="45.05841" lon="5.59052">
        <ele>1559.8</ele>
        <time>2019-08-17T09:04:36Z</time>
      </trkpt>
      <trkpt lat="45.05848" lon="5.59046">
        <ele>1560</ele>
        <time>2019-08-17T09:04:38Z</time>
      </trkpt>
      <trkpt lat="45.05853" lon="5.59039">
        <ele>1560.2</ele>
        <time>2019-08-17T09:04:40Z</time>
      </trkpt>
      <trkpt lat="45.05861" lon="5.59032">
        <ele>1560.6</ele>
        <time>2019-08-17T09:04:43Z</time>
      </trkpt>
      <trkpt lat="45.05864" lon="5.59025">
        <ele>1560.8</ele>
        <time>2019-08-17T09:04:45Z</time>
      </trkpt>
      <trkpt lat="45.05871" lon="5.59018">
        <ele>1561</ele>
        <time>2019-08-17T09:04:47Z</time>
      </trkpt>
      <trkpt lat="45.05875" lon="5.59016">
        <ele>1561.2</ele>
        <time>2019-08-17T09:04:48Z</time>
      </trkpt>
      <trkpt lat="45.05888" lon="5.59012">
        <ele>1561.6</ele>
        <time>2019-08-17T09:04:52Z</time>
      </trkpt>
      <trkpt lat="45.05899" lon="5.59012">
        <ele>1561.8</ele>
        <time>2019-08-17T09:04:55Z</time>
      </trkpt>
      <trkpt lat="45.05906" lon="5.5901">
        <ele>1562.2</ele>
        <time>2019-08-17T09:04:57Z</time>
      </trkpt>
      <trkpt lat="45.05917" lon="5.59005">
        <ele>1562.8</ele>
        <time>2019-08-17T09:05:00Z</time>
      </trkpt>
      <trkpt lat="45.05931" lon="5.58988">
        <ele>1563.4</ele>
        <time>2019-08-17T09:05:05Z</time>
      </trkpt>
      <trkpt lat="45.05952" lon="5.58969">
        <ele>1564</ele>
        <time>2019-08-17T09:05:10Z</time>
      </trkpt>
      <trkpt lat="45.05957" lon="5.58963">
        <ele>1564.4</ele>
        <time>2019-08-17T09:05:11Z</time>
      </trkpt>
      <trkpt lat="45.05979" lon="5.58931">
        <ele>1565.4</ele>
        <time>2019-08-17T09:05:17Z</time>
      </trkpt>
      <trkpt lat="45.05989" lon="5.58914">
        <ele>1565.8</ele>
        <time>2019-08-17T09:05:20Z</time>
      </trkpt>
      <trkpt lat="45.05998" lon="5.58905">
        <ele>1566</ele>
        <time>2019-08-17T09:05:22Z</time>
      </trkpt>
      <trkpt lat="45.06026" lon="5.58861">
        <ele>1566.8</ele>
        <time>2019-08-17T09:05:29Z</time>
      </trkpt>
      <trkpt lat="45.0603" lon="5.58856">
        <ele>1567</ele>
        <time>2019-08-17T09:05:30Z</time>
      </trkpt>
      <trkpt lat="45.06035" lon="5.58853">
        <ele>1567</ele>
        <time>2019-08-17T09:05:31Z</time>
      </trkpt>
      <trkpt lat="45.06052" lon="5.58845">
        <ele>1567.4</ele>
        <time>2019-08-17T09:05:34Z</time>
      </trkpt>
      <trkpt lat="45.06069" lon="5.58843">
        <ele>1567.8</ele>
        <time>2019-08-17T09:05:37Z</time>
      </trkpt>
      <trkpt lat="45.06074" lon="5.58841">
        <ele>1568</ele>
        <time>2019-08-17T09:05:38Z</time>
      </trkpt>
      <trkpt lat="45.06087" lon="5.58834">
        <ele>1568.6</ele>
        <time>2019-08-17T09:05:41Z</time>
      </trkpt>
      <trkpt lat="45.06117" lon="5.58809">
        <ele>1569.8</ele>
        <time>2019-08-17T09:05:48Z</time>
      </trkpt>
      <trkpt lat="45.06126" lon="5.58802">
        <ele>1570.4</ele>
        <time>2019-08-17T09:05:51Z</time>
      </trkpt>
      <trkpt lat="45.06137" lon="5.58796">
        <ele>1571</ele>
        <time>2019-08-17T09:05:55Z</time>
      </trkpt>
      <trkpt lat="45.06143" lon="5.58793">
        <ele>1571.4</ele>
        <time>2019-08-17T09:05:57Z</time>
      </trkpt>
      <trkpt lat="45.06147" lon="5.58792">
        <ele>1571.4</ele>
        <time>2019-08-17T09:05:58Z</time>
      </trkpt>
      <trkpt lat="45.06158" lon="5.58791">
        <ele>1571.8</ele>
        <time>2019-08-17T09:06:01Z</time>
      </trkpt>
      <trkpt lat="45.06161" lon="5.58789">
        <ele>1571.8</ele>
        <time>2019-08-17T09:06:02Z</time>
      </trkpt>
      <trkpt lat="45.06169" lon="5.58773">
        <ele>1572.2</ele>
        <time>2019-08-17T09:06:06Z</time>
      </trkpt>
      <trkpt lat="45.06173" lon="5.58765">
        <ele>1572.4</ele>
        <time>2019-08-17T09:06:08Z</time>
      </trkpt>
      <trkpt lat="45.06183" lon="5.58751">
        <ele>1572.8</ele>
        <time>2019-08-17T09:06:11Z</time>
      </trkpt>
      <trkpt lat="45.06204" lon="5.5873">
        <ele>1573.2</ele>
        <time>2019-08-17T09:06:16Z</time>
      </trkpt>
      <trkpt lat="45.06215" lon="5.58717">
        <ele>1573.4</ele>
        <time>2019-08-17T09:06:19Z</time>
      </trkpt>
      <trkpt lat="45.06233" lon="5.58692">
        <ele>1573.4</ele>
        <time>2019-08-17T09:06:24Z</time>
      </trkpt>
      <trkpt lat="45.06254" lon="5.58657">
        <ele>1573.4</ele>
        <time>2019-08-17T09:06:30Z</time>
      </trkpt>
      <trkpt lat="45.06257" lon="5.58653">
        <ele>1573.6</ele>
        <time>2019-08-17T09:06:31Z</time>
      </trkpt>
      <trkpt lat="45.0627" lon="5.5864">
        <ele>1573.6</ele>
        <time>2019-08-17T09:06:35Z</time>
      </trkpt>
      <trkpt lat="45.06281" lon="5.58622">
        <ele>1573.8</ele>
        <time>2019-08-17T09:06:39Z</time>
      </trkpt>
      <trkpt lat="45.06297" lon="5.58602">
        <ele>1573.8</ele>
        <time>2019-08-17T09:06:43Z</time>
      </trkpt>
      <trkpt lat="45.06315" lon="5.5858">
        <ele>1574</ele>
        <time>2019-08-17T09:06:47Z</time>
      </trkpt>
      <trkpt lat="45.06333" lon="5.58555">
        <ele>1574.2</ele>
        <time>2019-08-17T09:06:52Z</time>
      </trkpt>
      <trkpt lat="45.0634" lon="5.58545">
        <ele>1574.2</ele>
        <time>2019-08-17T09:06:54Z</time>
      </trkpt>
      <trkpt lat="45.0635" lon="5.5852">
        <ele>1574.4</ele>
        <time>2019-08-17T09:06:59Z</time>
      </trkpt>
      <trkpt lat="45.06354" lon="5.58505">
        <ele>1574.6</ele>
        <time>2019-08-17T09:07:03Z</time>
      </trkpt>
      <trkpt lat="45.06356" lon="5.58498">
        <ele>1574.8</ele>
        <time>2019-08-17T09:07:05Z</time>
      </trkpt>
      <trkpt lat="45.06365" lon="5.58467">
        <ele>1574.8</ele>
        <time>2019-08-17T09:07:11Z</time>
      </trkpt>
      <trkpt lat="45.06373" lon="5.58427">
        <ele>1574.2</ele>
        <time>2019-08-17T09:07:17Z</time>
      </trkpt>
      <trkpt lat="45.06373" lon="5.58422">
        <ele>1574</ele>
        <time>2019-08-17T09:07:18Z</time>
      </trkpt>
      <trkpt lat="45.0637" lon="5.58393">
        <ele>1570.2</ele>
        <time>2019-08-17T09:23:59Z</time>
      </trkpt>
      <trkpt lat="45.06364" lon="5.58383">
        <ele>1426.6</ele>
        <time>2019-07-13T10:06:41Z</time>
      </trkpt>
      <trkpt lat="45.06361" lon="5.58373">
        <ele>1426.2</ele>
        <time>2019-07-13T10:06:43Z</time>
      </trkpt>
      <trkpt lat="45.06358" lon="5.58368">
        <ele>1425.8</ele>
        <time>2019-07-13T10:06:44Z</time>
      </trkpt>
      <trkpt lat="45.06355" lon="5.58359">
        <ele>1425</ele>
        <time>2019-07-13T10:06:46Z</time>
      </trkpt>
      <trkpt lat="45.0635" lon="5.58343">
        <ele>1423.6</ele>
        <time>2019-07-13T10:06:49Z</time>
      </trkpt>
      <trkpt lat="45.06348" lon="5.58316">
        <ele>1422.4</ele>
        <time>2019-07-13T10:06:54Z</time>
      </trkpt>
      <trkpt lat="45.06345" lon="5.58293">
        <ele>1421.2</ele>
        <time>2019-07-13T10:06:58Z</time>
      </trkpt>
      <trkpt lat="45.06342" lon="5.58278">
        <ele>1420</ele>
        <time>2019-07-13T10:07:01Z</time>
      </trkpt>
      <trkpt lat="45.06341" lon="5.58257">
        <ele>1419.4</ele>
        <time>2019-07-13T10:07:04Z</time>
      </trkpt>
      <trkpt lat="45.06337" lon="5.5823">
        <ele>1418.2</ele>
        <time>2019-07-13T10:07:09Z</time>
      </trkpt>
      <trkpt lat="45.06338" lon="5.58221">
        <ele>1418.2</ele>
        <time>2019-07-13T10:07:11Z</time>
      </trkpt>
      <trkpt lat="45.0634" lon="5.58206">
        <ele>1418.4</ele>
        <time>2019-07-13T10:07:15Z</time>
      </trkpt>
      <trkpt lat="45.06339" lon="5.58197">
        <ele>1419</ele>
        <time>2019-07-13T10:07:19Z</time>
      </trkpt>
      <trkpt lat="45.06339" lon="5.58187">
        <ele>1419.4</ele>
        <time>2019-07-13T10:07:22Z</time>
      </trkpt>
      <trkpt lat="45.06336" lon="5.58176">
        <ele>1420</ele>
        <time>2019-07-13T10:07:25Z</time>
      </trkpt>
      <trkpt lat="45.06337" lon="5.58167">
        <ele>1421.4</ele>
        <time>2019-07-13T10:07:29Z</time>
      </trkpt>
      <trkpt lat="45.06337" lon="5.5815">
        <ele>1424.6</ele>
        <time>2019-07-13T10:13:09Z</time>
      </trkpt>
      <trkpt lat="45.06333" lon="5.58133">
        <ele>1425.2</ele>
        <time>2019-07-13T10:13:16Z</time>
      </trkpt>
      <trkpt lat="45.06332" lon="5.58129">
        <ele>1426.6</ele>
        <time>2019-07-13T10:13:26Z</time>
      </trkpt>
      <trkpt lat="45.06331" lon="5.58119">
        <ele>1426.6</ele>
        <time>2019-07-13T10:13:29Z</time>
      </trkpt>
      <trkpt lat="45.06329" lon="5.58107">
        <ele>1426.6</ele>
        <time>2019-07-13T10:13:32Z</time>
      </trkpt>
      <trkpt lat="45.06329" lon="5.58093">
        <ele>1426.8</ele>
        <time>2019-07-13T10:13:35Z</time>
      </trkpt>
      <trkpt lat="45.06326" lon="5.58074">
        <ele>1428.2</ele>
        <time>2019-07-13T10:13:42Z</time>
      </trkpt>
      <trkpt lat="45.06325" lon="5.58068">
        <ele>1428.6</ele>
        <time>2019-07-13T10:13:44Z</time>
      </trkpt>
      <trkpt lat="45.06326" lon="5.58058">
        <ele>1429</ele>
        <time>2019-07-13T10:13:47Z</time>
      </trkpt>
      <trkpt lat="45.06325" lon="5.5805">
        <ele>1429.6</ele>
        <time>2019-07-13T10:13:50Z</time>
      </trkpt>
      <trkpt lat="45.0632" lon="5.58038">
        <ele>1430.8</ele>
        <time>2019-07-13T10:13:56Z</time>
      </trkpt>
      <trkpt lat="45.06321" lon="5.58027">
        <ele>1431.4</ele>
        <time>2019-07-13T10:13:59Z</time>
      </trkpt>
      <trkpt lat="45.06325" lon="5.58017">
        <ele>1432.4</ele>
        <time>2019-07-13T10:14:03Z</time>
      </trkpt>
      <trkpt lat="45.06324" lon="5.58011">
        <ele>1433</ele>
        <time>2019-07-13T10:14:05Z</time>
      </trkpt>
      <trkpt lat="45.06325" lon="5.57999">
        <ele>1434.2</ele>
        <time>2019-07-13T10:14:10Z</time>
      </trkpt>
      <trkpt lat="45.06325" lon="5.5799">
        <ele>1435</ele>
        <time>2019-07-13T10:14:14Z</time>
      </trkpt>
      <trkpt lat="45.06326" lon="5.5798">
        <ele>1435.6</ele>
        <time>2019-07-13T10:14:17Z</time>
      </trkpt>
      <trkpt lat="45.06325" lon="5.57972">
        <ele>1436</ele>
        <time>2019-07-13T10:14:20Z</time>
      </trkpt>
      <trkpt lat="45.06322" lon="5.57964">
        <ele>1436.2</ele>
        <time>2019-07-13T10:14:23Z</time>
      </trkpt>
      <trkpt lat="45.06324" lon="5.57942">
        <ele>1436.8</ele>
        <time>2019-07-13T10:14:29Z</time>
      </trkpt>
      <trkpt lat="45.06323" lon="5.57932">
        <ele>1437</ele>
        <time>2019-07-13T10:14:32Z</time>
      </trkpt>
      <trkpt lat="45.06326" lon="5.57924">
        <ele>1437.4</ele>
        <time>2019-07-13T10:14:35Z</time>
      </trkpt>
      <trkpt lat="45.06325" lon="5.5791">
        <ele>1438</ele>
        <time>2019-07-13T10:14:41Z</time>
      </trkpt>
      <trkpt lat="45.06328" lon="5.57892">
        <ele>1438.2</ele>
        <time>2019-07-13T10:14:46Z</time>
      </trkpt>
      <trkpt lat="45.06333" lon="5.57876">
        <ele>1438.4</ele>
        <time>2019-07-13T10:14:51Z</time>
      </trkpt>
      <trkpt lat="45.06334" lon="5.57863">
        <ele>1439.8</ele>
        <time>2019-07-13T10:15:07Z</time>
      </trkpt>
      <trkpt lat="45.06334" lon="5.57851">
        <ele>1439.6</ele>
        <time>2019-07-13T10:15:11Z</time>
      </trkpt>
      <trkpt lat="45.06336" lon="5.57845">
        <ele>1439.2</ele>
        <time>2019-07-13T10:15:14Z</time>
      </trkpt>
      <trkpt lat="45.06342" lon="5.57839">
        <ele>1439</ele>
        <time>2019-07-13T10:15:17Z</time>
      </trkpt>
      <trkpt lat="45.06347" lon="5.57835">
        <ele>1439</ele>
        <time>2019-07-13T10:15:19Z</time>
      </trkpt>
      <trkpt lat="45.06352" lon="5.57829">
        <ele>1439</ele>
        <time>2019-07-13T10:15:21Z</time>
      </trkpt>
      <trkpt lat="45.06354" lon="5.57821">
        <ele>1438.6</ele>
        <time>2019-07-13T10:15:23Z</time>
      </trkpt>
      <trkpt lat="45.06354" lon="5.57813">
        <ele>1438.4</ele>
        <time>2019-07-13T10:15:25Z</time>
      </trkpt>
      <trkpt lat="45.06355" lon="5.57805">
        <ele>1437.8</ele>
        <time>2019-07-13T10:15:28Z</time>
      </trkpt>
      <trkpt lat="45.06354" lon="5.57788">
        <ele>1436.8</ele>
        <time>2019-07-13T10:15:33Z</time>
      </trkpt>
      <trkpt lat="45.06356" lon="5.57779">
        <ele>1436.4</ele>
        <time>2019-07-13T10:15:36Z</time>
      </trkpt>
      <trkpt lat="45.06355" lon="5.57774">
        <ele>1436.2</ele>
        <time>2019-07-13T10:15:38Z</time>
      </trkpt>
      <trkpt lat="45.0635" lon="5.57759">
        <ele>1435</ele>
        <time>2019-07-13T10:15:46Z</time>
      </trkpt>
      <trkpt lat="45.0635" lon="5.57747">
        <ele>1433.8</ele>
        <time>2019-07-13T10:15:51Z</time>
      </trkpt>
      <trkpt lat="45.06353" lon="5.57736">
        <ele>1433.2</ele>
        <time>2019-07-13T10:15:54Z</time>
      </trkpt>
      <trkpt lat="45.06356" lon="5.57723">
        <ele>1432</ele>
        <time>2019-07-13T10:15:59Z</time>
      </trkpt>
      <trkpt lat="45.06357" lon="5.57715">
        <ele>1429.6</ele>
        <time>2019-07-13T10:16:09Z</time>
      </trkpt>
      <trkpt lat="45.06365" lon="5.57702">
        <ele>1428.6</ele>
        <time>2019-07-13T10:16:13Z</time>
      </trkpt>
      <trkpt lat="45.06374" lon="5.57683">
        <ele>1427.6</ele>
        <time>2019-07-13T10:16:16Z</time>
      </trkpt>
      <trkpt lat="45.06379" lon="5.5767">
        <ele>1427</ele>
        <time>2019-07-13T10:16:18Z</time>
      </trkpt>
      <trkpt lat="45.0638" lon="5.57664">
        <ele>1426.6</ele>
        <time>2019-07-13T10:16:19Z</time>
      </trkpt>
      <trkpt lat="45.06384" lon="5.57655">
        <ele>1426</ele>
        <time>2019-07-13T10:16:21Z</time>
      </trkpt>
      <trkpt lat="45.06385" lon="5.5765">
        <ele>1425.8</ele>
        <time>2019-07-13T10:16:22Z</time>
      </trkpt>
      <trkpt lat="45.06384" lon="5.57641">
        <ele>1424</ele>
        <time>2019-07-13T10:16:27Z</time>
      </trkpt>
      <trkpt lat="45.06377" lon="5.57645">
        <ele>1417.4</ele>
        <time>2019-07-13T10:16:42Z</time>
      </trkpt>
      <trkpt lat="45.0637" lon="5.5765">
        <ele>1415</ele>
        <time>2019-07-13T10:16:46Z</time>
      </trkpt>
      <trkpt lat="45.06359" lon="5.5766">
        <ele>1411.6</ele>
        <time>2019-07-13T10:16:52Z</time>
      </trkpt>
      <trkpt lat="45.0635" lon="5.57666">
        <ele>1409.6</ele>
        <time>2019-07-13T10:16:56Z</time>
      </trkpt>
      <trkpt lat="45.06357" lon="5.5767">
        <ele>1587.4</ele>
        <time>2019-08-17T09:29:42Z</time>
      </trkpt>
      <trkpt lat="45.06353" lon="5.57671">
        <ele>1585.8</ele>
        <time>2019-08-17T09:29:44Z</time>
      </trkpt>
      <trkpt lat="45.06346" lon="5.57674">
        <ele>1582.4</ele>
        <time>2019-08-17T09:29:49Z</time>
      </trkpt>
      <trkpt lat="45.0634" lon="5.57678">
        <ele>1579.8</ele>
        <time>2019-08-17T09:29:53Z</time>
      </trkpt>
      <trkpt lat="45.06333" lon="5.5768">
        <ele>1577</ele>
        <time>2019-08-17T09:29:58Z</time>
      </trkpt>
      <trkpt lat="45.06323" lon="5.57683">
        <ele>1573.8</ele>
        <time>2019-08-17T09:30:04Z</time>
      </trkpt>
      <trkpt lat="45.06316" lon="5.57688">
        <ele>1571.8</ele>
        <time>2019-08-17T09:30:08Z</time>
      </trkpt>
      <trkpt lat="45.06308" lon="5.57695">
        <ele>1569.4</ele>
        <time>2019-08-17T09:30:13Z</time>
      </trkpt>
      <trkpt lat="45.06298" lon="5.57701">
        <ele>1566</ele>
        <time>2019-08-17T09:30:19Z</time>
      </trkpt>
      <trkpt lat="45.06291" lon="5.57707">
        <ele>1563.2</ele>
        <time>2019-08-17T09:30:23Z</time>
      </trkpt>
      <trkpt lat="45.06277" lon="5.57716">
        <ele>1556.8</ele>
        <time>2019-08-17T09:30:31Z</time>
      </trkpt>
      <trkpt lat="45.06268" lon="5.57725">
        <ele>1552.6</ele>
        <time>2019-08-17T09:30:37Z</time>
      </trkpt>
      <trkpt lat="45.06259" lon="5.57732">
        <ele>1549.6</ele>
        <time>2019-08-17T09:30:44Z</time>
      </trkpt>
      <trkpt lat="45.06245" lon="5.57736">
        <ele>1547</ele>
        <time>2019-08-17T09:30:53Z</time>
      </trkpt>
      <trkpt lat="45.06241" lon="5.57735">
        <ele>1546.4</ele>
        <time>2019-08-17T09:30:56Z</time>
      </trkpt>
      <trkpt lat="45.06233" lon="5.57727">
        <ele>1544.2</ele>
        <time>2019-08-17T09:31:03Z</time>
      </trkpt>
      <trkpt lat="45.06229" lon="5.57717">
        <ele>1543.2</ele>
        <time>2019-08-17T09:31:07Z</time>
      </trkpt>
      <trkpt lat="45.06228" lon="5.57705">
        <ele>1542.4</ele>
        <time>2019-08-17T09:31:10Z</time>
      </trkpt>
      <trkpt lat="45.06229" lon="5.57677">
        <ele>1541.4</ele>
        <time>2019-08-17T09:31:15Z</time>
      </trkpt>
      <trkpt lat="45.06236" lon="5.57632">
        <ele>1540.2</ele>
        <time>2019-08-17T09:31:21Z</time>
      </trkpt>
      <trkpt lat="45.06253" lon="5.57585">
        <ele>1539.8</ele>
        <time>2019-08-17T09:31:26Z</time>
      </trkpt>
      <trkpt lat="45.06265" lon="5.57561">
        <ele>1539.6</ele>
        <time>2019-08-17T09:31:29Z</time>
      </trkpt>
      <trkpt lat="45.06271" lon="5.57545">
        <ele>1539.6</ele>
        <time>2019-08-17T09:31:31Z</time>
      </trkpt>
      <trkpt lat="45.06273" lon="5.57529">
        <ele>1539.6</ele>
        <time>2019-08-17T09:31:33Z</time>
      </trkpt>
      <trkpt lat="45.06273" lon="5.57504">
        <ele>1539.8</ele>
        <time>2019-08-17T09:31:37Z</time>
      </trkpt>
      <trkpt lat="45.06276" lon="5.5748">
        <ele>1540</ele>
        <time>2019-08-17T09:31:41Z</time>
      </trkpt>
      <trkpt lat="45.06274" lon="5.57459">
        <ele>1540.2</ele>
        <time>2019-08-17T09:31:44Z</time>
      </trkpt>
      <trkpt lat="45.06279" lon="5.57436">
        <ele>1540.4</ele>
        <time>2019-08-17T09:31:47Z</time>
      </trkpt>
      <trkpt lat="45.0628" lon="5.57428">
        <ele>1540.4</ele>
        <time>2019-08-17T09:31:48Z</time>
      </trkpt>
      <trkpt lat="45.0628" lon="5.5742">
        <ele>1540.4</ele>
        <time>2019-08-17T09:31:49Z</time>
      </trkpt>
      <trkpt lat="45.06278" lon="5.57395">
        <ele>1541</ele>
        <time>2019-08-17T09:31:53Z</time>
      </trkpt>
      <trkpt lat="45.06279" lon="5.57375">
        <ele>1541.4</ele>
        <time>2019-08-17T09:31:56Z</time>
      </trkpt>
      <trkpt lat="45.06277" lon="5.57356">
        <ele>1541.8</ele>
        <time>2019-08-17T09:32:00Z</time>
      </trkpt>
      <trkpt lat="45.06279" lon="5.57328">
        <ele>1541.8</ele>
        <time>2019-08-17T09:32:06Z</time>
      </trkpt>
      <trkpt lat="45.06279" lon="5.57318">
        <ele>1541.6</ele>
        <time>2019-08-17T09:32:08Z</time>
      </trkpt>
      <trkpt lat="45.0628" lon="5.57304">
        <ele>1541.6</ele>
        <time>2019-08-17T09:32:11Z</time>
      </trkpt>
      <trkpt lat="45.06281" lon="5.57293">
        <ele>1541.6</ele>
        <time>2019-08-17T09:32:14Z</time>
      </trkpt>
      <trkpt lat="45.06283" lon="5.57283">
        <ele>1541.4</ele>
        <time>2019-08-17T09:32:17Z</time>
      </trkpt>
      <trkpt lat="45.06289" lon="5.57269">
        <ele>1541</ele>
        <time>2019-08-17T09:32:21Z</time>
      </trkpt>
      <trkpt lat="45.06295" lon="5.57267">
        <ele>1540.6</ele>
        <time>2019-08-17T09:32:25Z</time>
      </trkpt>
      <trkpt lat="45.06299" lon="5.57272">
        <ele>1540.4</ele>
        <time>2019-08-17T09:32:28Z</time>
      </trkpt>
      <trkpt lat="45.06309" lon="5.57286">
        <ele>1539</ele>
        <time>2019-08-17T09:32:37Z</time>
      </trkpt>
      <trkpt lat="45.06316" lon="5.57299">
        <ele>1535.4</ele>
        <time>2019-08-17T09:32:46Z</time>
      </trkpt>
      <trkpt lat="45.06324" lon="5.57315">
        <ele>1528.6</ele>
        <time>2019-08-17T09:32:57Z</time>
      </trkpt>
      <trkpt lat="45.06331" lon="5.57325">
        <ele>1523.2</ele>
        <time>2019-08-17T09:33:05Z</time>
      </trkpt>
      <trkpt lat="45.06337" lon="5.57338">
        <ele>1517.6</ele>
        <time>2019-08-17T09:33:15Z</time>
      </trkpt>
      <trkpt lat="45.06342" lon="5.57349">
        <ele>1513.2</ele>
        <time>2019-08-17T09:33:24Z</time>
      </trkpt>
      <trkpt lat="45.06346" lon="5.57357">
        <ele>1508.8</ele>
        <time>2019-08-17T09:33:30Z</time>
      </trkpt>
      <trkpt lat="45.06348" lon="5.57365">
        <ele>1505.2</ele>
        <time>2019-08-17T09:33:36Z</time>
      </trkpt>
      <trkpt lat="45.06355" lon="5.57386">
        <ele>1494.4</ele>
        <time>2019-08-17T09:35:27Z</time>
      </trkpt>
      <trkpt lat="45.06358" lon="5.57387">
        <ele>1493.4</ele>
        <time>2019-08-17T09:35:31Z</time>
      </trkpt>
      <trkpt lat="45.06354" lon="5.57397">
        <ele>1489.2</ele>
        <time>2019-08-17T09:36:20Z</time>
      </trkpt>
      <trkpt lat="45.06354" lon="5.57404">
        <ele>1488</ele>
        <time>2019-08-17T09:36:24Z</time>
      </trkpt>
      <trkpt lat="45.06355" lon="5.57413">
        <ele>1486.8</ele>
        <time>2019-08-17T09:36:30Z</time>
      </trkpt>
      <trkpt lat="45.06355" lon="5.57429">
        <ele>1485</ele>
        <time>2019-08-17T09:36:36Z</time>
      </trkpt>
      <trkpt lat="45.06356" lon="5.57434">
        <ele>1484.2</ele>
        <time>2019-08-17T09:36:38Z</time>
      </trkpt>
      <trkpt lat="45.06363" lon="5.57454">
        <ele>1482.8</ele>
        <time>2019-08-17T09:36:42Z</time>
      </trkpt>
      <trkpt lat="45.06369" lon="5.57479">
        <ele>1481.2</ele>
        <time>2019-08-17T09:36:46Z</time>
      </trkpt>
      <trkpt lat="45.0637" lon="5.57483">
        <ele>1480.8</ele>
        <time>2019-08-17T09:36:47Z</time>
      </trkpt>
      <trkpt lat="45.06371" lon="5.57508">
        <ele>1479.6</ele>
        <time>2019-08-17T09:36:51Z</time>
      </trkpt>
      <trkpt lat="45.06375" lon="5.57529">
        <ele>1476.8</ele>
        <time>2019-08-17T09:36:57Z</time>
      </trkpt>
      <trkpt lat="45.06374" lon="5.57518">
        <ele>1467.6</ele>
        <time>2019-08-17T09:37:19Z</time>
      </trkpt>
      <trkpt lat="45.06373" lon="5.57506">
        <ele>1466</ele>
        <time>2019-08-17T09:37:23Z</time>
      </trkpt>
      <trkpt lat="45.0637" lon="5.57486">
        <ele>1464</ele>
        <time>2019-08-17T09:37:31Z</time>
      </trkpt>
      <trkpt lat="45.06369" lon="5.57479">
        <ele>1463.6</ele>
        <time>2019-08-17T09:37:34Z</time>
      </trkpt>
      <trkpt lat="45.06364" lon="5.57468">
        <ele>1462.8</ele>
        <time>2019-08-17T09:37:39Z</time>
      </trkpt>
      <trkpt lat="45.06361" lon="5.57458">
        <ele>1460.8</ele>
        <time>2019-08-17T09:37:44Z</time>
      </trkpt>
      <trkpt lat="45.06358" lon="5.57451">
        <ele>1459.8</ele>
        <time>2019-08-17T09:37:48Z</time>
      </trkpt>
      <trkpt lat="45.06356" lon="5.57442">
        <ele>1459</ele>
        <time>2019-08-17T09:37:52Z</time>
      </trkpt>
      <trkpt lat="45.06356" lon="5.57434">
        <ele>1457.8</ele>
        <time>2019-08-17T09:37:55Z</time>
      </trkpt>
      <trkpt lat="45.06355" lon="5.57424">
        <ele>1456.6</ele>
        <time>2019-08-17T09:37:59Z</time>
      </trkpt>
      <trkpt lat="45.06354" lon="5.5742">
        <ele>1456.2</ele>
        <time>2019-08-17T09:38:01Z</time>
      </trkpt>
      <trkpt lat="45.06353" lon="5.57405">
        <ele>1455.4</ele>
        <time>2019-08-17T09:38:06Z</time>
      </trkpt>
      <trkpt lat="45.06359" lon="5.574">
        <ele>1455</ele>
        <time>2019-08-17T09:38:13Z</time>
      </trkpt>
      <trkpt lat="45.06371" lon="5.57388">
        <ele>1454.8</ele>
        <time>2019-08-17T09:38:17Z</time>
      </trkpt>
      <trkpt lat="45.06378" lon="5.57383">
        <ele>1454.8</ele>
        <time>2019-08-17T09:38:19Z</time>
      </trkpt>
      <trkpt lat="45.06384" lon="5.57383">
        <ele>1454.6</ele>
        <time>2019-08-17T09:38:21Z</time>
      </trkpt>
      <trkpt lat="45.06391" lon="5.57388">
        <ele>1454.8</ele>
        <time>2019-08-17T09:38:23Z</time>
      </trkpt>
      <trkpt lat="45.06398" lon="5.57391">
        <ele>1454.8</ele>
        <time>2019-08-17T09:38:25Z</time>
      </trkpt>
      <trkpt lat="45.06406" lon="5.57392">
        <ele>1455</ele>
        <time>2019-08-17T09:38:27Z</time>
      </trkpt>
      <trkpt lat="45.06412" lon="5.57388">
        <ele>1455</ele>
        <time>2019-08-17T09:38:29Z</time>
      </trkpt>
      <trkpt lat="45.06419" lon="5.5738">
        <ele>1455</ele>
        <time>2019-08-17T09:38:31Z</time>
      </trkpt>
      <trkpt lat="45.06422" lon="5.57372">
        <ele>1455.2</ele>
        <time>2019-08-17T09:38:33Z</time>
      </trkpt>
      <trkpt lat="45.0643" lon="5.57371">
        <ele>1455.6</ele>
        <time>2019-08-17T09:38:37Z</time>
      </trkpt>
      <trkpt lat="45.06437" lon="5.57371">
        <ele>1455.8</ele>
        <time>2019-08-17T09:38:39Z</time>
      </trkpt>
      <trkpt lat="45.06446" lon="5.57368">
        <ele>1455.8</ele>
        <time>2019-08-17T09:38:41Z</time>
      </trkpt>
      <trkpt lat="45.06458" lon="5.57358">
        <ele>1455.8</ele>
        <time>2019-08-17T09:38:44Z</time>
      </trkpt>
      <trkpt lat="45.06469" lon="5.57353">
        <ele>1455.8</ele>
        <time>2019-08-17T09:38:47Z</time>
      </trkpt>
      <trkpt lat="45.06474" lon="5.57348">
        <ele>1455.8</ele>
        <time>2019-08-17T09:38:49Z</time>
      </trkpt>
      <trkpt lat="45.0648" lon="5.57344">
        <ele>1455.8</ele>
        <time>2019-08-17T09:38:51Z</time>
      </trkpt>
      <trkpt lat="45.06487" lon="5.57343">
        <ele>1455.8</ele>
        <time>2019-08-17T09:38:54Z</time>
      </trkpt>
      <trkpt lat="45.06493" lon="5.57345">
        <ele>1455.8</ele>
        <time>2019-08-17T09:38:57Z</time>
      </trkpt>
      <trkpt lat="45.06503" lon="5.57362">
        <ele>1455.8</ele>
        <time>2019-08-17T09:39:01Z</time>
      </trkpt>
      <trkpt lat="45.06509" lon="5.57371">
        <ele>1455.8</ele>
        <time>2019-08-17T09:39:03Z</time>
      </trkpt>
      <trkpt lat="45.06514" lon="5.57379">
        <ele>1455.6</ele>
        <time>2019-08-17T09:39:05Z</time>
      </trkpt>
      <trkpt lat="45.06521" lon="5.57384">
        <ele>1454.8</ele>
        <time>2019-08-17T09:39:10Z</time>
      </trkpt>
      <trkpt lat="45.06528" lon="5.57375">
        <ele>1452.2</ele>
        <time>2019-08-17T09:39:46Z</time>
      </trkpt>
      <trkpt lat="45.0654" lon="5.57364">
        <ele>1451.2</ele>
        <time>2019-08-17T09:39:53Z</time>
      </trkpt>
      <trkpt lat="45.06544" lon="5.57365">
        <ele>1450.6</ele>
        <time>2019-08-17T09:39:57Z</time>
      </trkpt>
      <trkpt lat="45.06549" lon="5.57359">
        <ele>1450</ele>
        <time>2019-08-17T09:40:00Z</time>
      </trkpt>
      <trkpt lat="45.06551" lon="5.57354">
        <ele>1449.8</ele>
        <time>2019-08-17T09:40:02Z</time>
      </trkpt>
      <trkpt lat="45.06554" lon="5.57344">
        <ele>1449.4</ele>
        <time>2019-08-17T09:40:05Z</time>
      </trkpt>
      <trkpt lat="45.06567" lon="5.57321">
        <ele>1448.6</ele>
        <time>2019-08-17T09:40:11Z</time>
      </trkpt>
      <trkpt lat="45.06572" lon="5.57317">
        <ele>1448.2</ele>
        <time>2019-08-17T09:40:13Z</time>
      </trkpt>
      <trkpt lat="45.06576" lon="5.5731">
        <ele>1447.8</ele>
        <time>2019-08-17T09:40:15Z</time>
      </trkpt>
      <trkpt lat="45.06581" lon="5.573">
        <ele>1447.6</ele>
        <time>2019-08-17T09:40:17Z</time>
      </trkpt>
      <trkpt lat="45.06595" lon="5.57278">
        <ele>1447</ele>
        <time>2019-08-17T09:40:22Z</time>
      </trkpt>
      <trkpt lat="45.06602" lon="5.57272">
        <ele>1446.4</ele>
        <time>2019-08-17T09:40:26Z</time>
      </trkpt>
      <trkpt lat="45.06605" lon="5.57267">
        <ele>1446.2</ele>
        <time>2019-08-17T09:40:28Z</time>
      </trkpt>
      <trkpt lat="45.06614" lon="5.57266">
        <ele>1445.4</ele>
        <time>2019-08-17T09:40:33Z</time>
      </trkpt>
      <trkpt lat="45.06622" lon="5.57243">
        <ele>1444.4</ele>
        <time>2019-08-17T09:40:39Z</time>
      </trkpt>
      <trkpt lat="45.06624" lon="5.57238">
        <ele>1444.2</ele>
        <time>2019-08-17T09:40:40Z</time>
      </trkpt>
      <trkpt lat="45.06624" lon="5.57226">
        <ele>1443.8</ele>
        <time>2019-08-17T09:40:42Z</time>
      </trkpt>
      <trkpt lat="45.06625" lon="5.5722">
        <ele>1443.2</ele>
        <time>2019-08-17T09:40:46Z</time>
      </trkpt>
      <trkpt lat="45.06627" lon="5.57212">
        <ele>1441</ele>
        <time>2019-08-17T09:41:35Z</time>
      </trkpt>
      <trkpt lat="45.06628" lon="5.57193">
        <ele>1440.2</ele>
        <time>2019-08-17T09:41:40Z</time>
      </trkpt>
      <trkpt lat="45.0663" lon="5.57185">
        <ele>1439.6</ele>
        <time>2019-08-17T09:41:42Z</time>
      </trkpt>
      <trkpt lat="45.06636" lon="5.57182">
        <ele>1438.8</ele>
        <time>2019-08-17T09:41:45Z</time>
      </trkpt>
      <trkpt lat="45.0664" lon="5.57178">
        <ele>1438.2</ele>
        <time>2019-08-17T09:41:47Z</time>
      </trkpt>
      <trkpt lat="45.06646" lon="5.57179">
        <ele>1437.6</ele>
        <time>2019-08-17T09:41:49Z</time>
      </trkpt>
      <trkpt lat="45.06653" lon="5.57182">
        <ele>1436.8</ele>
        <time>2019-08-17T09:41:52Z</time>
      </trkpt>
      <trkpt lat="45.06656" lon="5.5718">
        <ele>1436.2</ele>
        <time>2019-08-17T09:41:54Z</time>
      </trkpt>
      <trkpt lat="45.06667" lon="5.57178">
        <ele>1435.4</ele>
        <time>2019-08-17T09:41:57Z</time>
      </trkpt>
      <trkpt lat="45.06673" lon="5.57175">
        <ele>1434.6</ele>
        <time>2019-08-17T09:41:59Z</time>
      </trkpt>
      <trkpt lat="45.06681" lon="5.5717">
        <ele>1433.8</ele>
        <time>2019-08-17T09:42:02Z</time>
      </trkpt>
      <trkpt lat="45.06694" lon="5.57159">
        <ele>1432.4</ele>
        <time>2019-08-17T09:42:07Z</time>
      </trkpt>
      <trkpt lat="45.06695" lon="5.57148">
        <ele>1431.4</ele>
        <time>2019-08-17T09:42:10Z</time>
      </trkpt>
      <trkpt lat="45.06699" lon="5.57142">
        <ele>1430.8</ele>
        <time>2019-08-17T09:42:12Z</time>
      </trkpt>
      <trkpt lat="45.06705" lon="5.57141">
        <ele>1430.2</ele>
        <time>2019-08-17T09:42:14Z</time>
      </trkpt>
      <trkpt lat="45.06709" lon="5.57138">
        <ele>1429.4</ele>
        <time>2019-08-17T09:42:16Z</time>
      </trkpt>
      <trkpt lat="45.06711" lon="5.57131">
        <ele>1428.8</ele>
        <time>2019-08-17T09:42:18Z</time>
      </trkpt>
      <trkpt lat="45.06719" lon="5.57127">
        <ele>1427.2</ele>
        <time>2019-08-17T09:42:22Z</time>
      </trkpt>
      <trkpt lat="45.0673" lon="5.5712">
        <ele>1425.6</ele>
        <time>2019-08-17T09:42:26Z</time>
      </trkpt>
      <trkpt lat="45.06737" lon="5.57115">
        <ele>1422.2</ele>
        <time>2019-08-17T09:42:44Z</time>
      </trkpt>
      <trkpt lat="45.06743" lon="5.57106">
        <ele>1421.4</ele>
        <time>2019-08-17T09:42:50Z</time>
      </trkpt>
      <trkpt lat="45.06749" lon="5.57098">
        <ele>1420</ele>
        <time>2019-08-17T09:42:54Z</time>
      </trkpt>
      <trkpt lat="45.06762" lon="5.57106">
        <ele>1418.4</ele>
        <time>2019-08-17T09:42:59Z</time>
      </trkpt>
      <trkpt lat="45.06769" lon="5.57107">
        <ele>1417.8</ele>
        <time>2019-08-17T09:43:01Z</time>
      </trkpt>
      <trkpt lat="45.06777" lon="5.57106">
        <ele>1417.2</ele>
        <time>2019-08-17T09:43:03Z</time>
      </trkpt>
      <trkpt lat="45.06782" lon="5.57111">
        <ele>1416.6</ele>
        <time>2019-08-17T09:43:05Z</time>
      </trkpt>
      <trkpt lat="45.06791" lon="5.57128">
        <ele>1414.8</ele>
        <time>2019-08-17T09:43:10Z</time>
      </trkpt>
      <trkpt lat="45.06805" lon="5.57127">
        <ele>1412.4</ele>
        <time>2019-08-17T09:43:18Z</time>
      </trkpt>
      <trkpt lat="45.0681" lon="5.57126">
        <ele>1411.4</ele>
        <time>2019-08-17T09:43:21Z</time>
      </trkpt>
      <trkpt lat="45.06814" lon="5.57121">
        <ele>1410.4</ele>
        <time>2019-08-17T09:43:24Z</time>
      </trkpt>
      <trkpt lat="45.06819" lon="5.57116">
        <ele>1408.4</ele>
        <time>2019-08-17T09:43:30Z</time>
      </trkpt>
      <trkpt lat="45.0682" lon="5.57126">
        <ele>1407.2</ele>
        <time>2019-08-17T09:43:34Z</time>
      </trkpt>
      <trkpt lat="45.06821" lon="5.57133">
        <ele>1406.2</ele>
        <time>2019-08-17T09:43:37Z</time>
      </trkpt>
      <trkpt lat="45.06821" lon="5.57144">
        <ele>1404.8</ele>
        <time>2019-08-17T09:43:41Z</time>
      </trkpt>
      <trkpt lat="45.06817" lon="5.57161">
        <ele>1403.6</ele>
        <time>2019-08-17T09:43:46Z</time>
      </trkpt>
      <trkpt lat="45.06817" lon="5.57178">
        <ele>1402.6</ele>
        <time>2019-08-17T09:43:51Z</time>
      </trkpt>
      <trkpt lat="45.0682" lon="5.57185">
        <ele>1401.8</ele>
        <time>2019-08-17T09:43:55Z</time>
      </trkpt>
      <trkpt lat="45.06826" lon="5.5718">
        <ele>1400.8</ele>
        <time>2019-08-17T09:44:00Z</time>
      </trkpt>
      <trkpt lat="45.06842" lon="5.5717">
        <ele>1399.8</ele>
        <time>2019-08-17T09:44:05Z</time>
      </trkpt>
      <trkpt lat="45.06847" lon="5.57166">
        <ele>1399.6</ele>
        <time>2019-08-17T09:44:07Z</time>
      </trkpt>
      <trkpt lat="45.06855" lon="5.57152">
        <ele>1399.4</ele>
        <time>2019-08-17T09:44:13Z</time>
      </trkpt>
      <trkpt lat="45.06866" lon="5.57139">
        <ele>1398.8</ele>
        <time>2019-08-17T09:44:17Z</time>
      </trkpt>
      <trkpt lat="45.06878" lon="5.5712">
        <ele>1398.2</ele>
        <time>2019-08-17T09:44:20Z</time>
      </trkpt>
      <trkpt lat="45.06893" lon="5.57088">
        <ele>1397.4</ele>
        <time>2019-08-17T09:44:25Z</time>
      </trkpt>
      <trkpt lat="45.06897" lon="5.57074">
        <ele>1397.2</ele>
        <time>2019-08-17T09:44:27Z</time>
      </trkpt>
      <trkpt lat="45.06898" lon="5.57066">
        <ele>1397</ele>
        <time>2019-08-17T09:44:28Z</time>
      </trkpt>
      <trkpt lat="45.06902" lon="5.57048">
        <ele>1396.4</ele>
        <time>2019-08-17T09:44:31Z</time>
      </trkpt>
      <trkpt lat="45.06904" lon="5.57044">
        <ele>1396.2</ele>
        <time>2019-08-17T09:44:32Z</time>
      </trkpt>
      <trkpt lat="45.06908" lon="5.57037">
        <ele>1395.8</ele>
        <time>2019-08-17T09:44:34Z</time>
      </trkpt>
      <trkpt lat="45.06919" lon="5.57013">
        <ele>1395</ele>
        <time>2019-08-17T09:44:39Z</time>
      </trkpt>
      <trkpt lat="45.0692" lon="5.57003">
        <ele>1394.6</ele>
        <time>2019-08-17T09:44:41Z</time>
      </trkpt>
      <trkpt lat="45.0692" lon="5.56993">
        <ele>1393.6</ele>
        <time>2019-08-17T09:44:43Z</time>
      </trkpt>
      <trkpt lat="45.06916" lon="5.56982">
        <ele>1392.6</ele>
        <time>2019-08-17T09:44:45Z</time>
      </trkpt>
      <trkpt lat="45.06912" lon="5.56974">
        <ele>1391.6</ele>
        <time>2019-08-17T09:44:47Z</time>
      </trkpt>
      <trkpt lat="45.06905" lon="5.56969">
        <ele>1391</ele>
        <time>2019-08-17T09:44:49Z</time>
      </trkpt>
      <trkpt lat="45.06882" lon="5.56958">
        <ele>1389.6</ele>
        <time>2019-08-17T09:44:54Z</time>
      </trkpt>
      <trkpt lat="45.06855" lon="5.5694">
        <ele>1387.2</ele>
        <time>2019-08-17T09:45:00Z</time>
      </trkpt>
      <trkpt lat="45.06841" lon="5.5693">
        <ele>1385.2</ele>
        <time>2019-08-17T09:45:03Z</time>
      </trkpt>
      <trkpt lat="45.06825" lon="5.56913">
        <ele>1382</ele>
        <time>2019-08-17T09:45:07Z</time>
      </trkpt>
      <trkpt lat="45.06806" lon="5.56888">
        <ele>1376.8</ele>
        <time>2019-08-17T09:45:12Z</time>
      </trkpt>
      <trkpt lat="45.06799" lon="5.56877">
        <ele>1374.8</ele>
        <time>2019-08-17T09:45:14Z</time>
      </trkpt>
      <trkpt lat="45.06793" lon="5.56865">
        <ele>1372.6</ele>
        <time>2019-08-17T09:45:16Z</time>
      </trkpt>
      <trkpt lat="45.06791" lon="5.56858">
        <ele>1371.6</ele>
        <time>2019-08-17T09:45:17Z</time>
      </trkpt>
      <trkpt lat="45.0679" lon="5.56851">
        <ele>1370.4</ele>
        <time>2019-08-17T09:45:18Z</time>
      </trkpt>
      <trkpt lat="45.06789" lon="5.56838">
        <ele>1368.6</ele>
        <time>2019-08-17T09:45:20Z</time>
      </trkpt>
      <trkpt lat="45.06794" lon="5.56811">
        <ele>1365</ele>
        <time>2019-08-17T09:45:25Z</time>
      </trkpt>
      <trkpt lat="45.06795" lon="5.56806">
        <ele>1364.4</ele>
        <time>2019-08-17T09:45:26Z</time>
      </trkpt>
      <trkpt lat="45.06799" lon="5.56786">
        <ele>1362</ele>
        <time>2019-08-17T09:45:30Z</time>
      </trkpt>
      <trkpt lat="45.06798" lon="5.56775">
        <ele>1361</ele>
        <time>2019-08-17T09:45:32Z</time>
      </trkpt>
      <trkpt lat="45.06792" lon="5.56743">
        <ele>1356.6</ele>
        <time>2019-08-17T09:45:38Z</time>
      </trkpt>
      <trkpt lat="45.06791" lon="5.56737">
        <ele>1355.8</ele>
        <time>2019-08-17T09:45:39Z</time>
      </trkpt>
      <trkpt lat="45.06791" lon="5.56721">
        <ele>1353.2</ele>
        <time>2019-08-17T09:45:42Z</time>
      </trkpt>
      <trkpt lat="45.06789" lon="5.56704">
        <ele>1350.6</ele>
        <time>2019-08-17T09:45:45Z</time>
      </trkpt>
      <trkpt lat="45.06781" lon="5.56694">
        <ele>1347.6</ele>
        <time>2019-08-17T09:45:48Z</time>
      </trkpt>
      <trkpt lat="45.06771" lon="5.56693">
        <ele>1343.6</ele>
        <time>2019-08-17T09:45:53Z</time>
      </trkpt>
      <trkpt lat="45.06765" lon="5.56693">
        <ele>1341.4</ele>
        <time>2019-08-17T09:45:56Z</time>
      </trkpt>
      <trkpt lat="45.06753" lon="5.56692">
        <ele>1336.6</ele>
        <time>2019-08-17T09:46:02Z</time>
      </trkpt>
      <trkpt lat="45.0674" lon="5.56691">
        <ele>1331.4</ele>
        <time>2019-08-17T09:46:09Z</time>
      </trkpt>
      <trkpt lat="45.06736" lon="5.56684">
        <ele>1328</ele>
        <time>2019-08-17T09:46:13Z</time>
      </trkpt>
      <trkpt lat="45.06735" lon="5.56678">
        <ele>1325.2</ele>
        <time>2019-08-17T09:46:16Z</time>
      </trkpt>
      <trkpt lat="45.06734" lon="5.56669">
        <ele>1321.2</ele>
        <time>2019-08-17T09:46:20Z</time>
      </trkpt>
      <trkpt lat="45.0673" lon="5.56662">
        <ele>1317.4</ele>
        <time>2019-08-17T09:46:24Z</time>
      </trkpt>
      <trkpt lat="45.06723" lon="5.56661">
        <ele>1313.6</ele>
        <time>2019-08-17T09:46:29Z</time>
      </trkpt>
      <trkpt lat="45.0671" lon="5.56663">
        <ele>1308.4</ele>
        <time>2019-08-17T09:46:37Z</time>
      </trkpt>
      <trkpt lat="45.06703" lon="5.56662">
        <ele>1305.4</ele>
        <time>2019-08-17T09:46:42Z</time>
      </trkpt>
      <trkpt lat="45.06696" lon="5.56663">
        <ele>1302.8</ele>
        <time>2019-08-17T09:46:47Z</time>
      </trkpt>
      <trkpt lat="45.06681" lon="5.5667">
        <ele>1297.4</ele>
        <time>2019-08-17T09:46:59Z</time>
      </trkpt>
      <trkpt lat="45.06678" lon="5.5667">
        <ele>1296.4</ele>
        <time>2019-08-17T09:47:01Z</time>
      </trkpt>
      <trkpt lat="45.06668" lon="5.56674">
        <ele>1293.6</ele>
        <time>2019-08-17T09:47:09Z</time>
      </trkpt>
      <trkpt lat="45.06651" lon="5.56683">
        <ele>1290.8</ele>
        <time>2019-08-17T09:47:23Z</time>
      </trkpt>
      <trkpt lat="45.06646" lon="5.56684">
        <ele>1289.4</ele>
        <time>2019-08-17T09:47:27Z</time>
      </trkpt>
      <trkpt lat="45.06638" lon="5.56686">
        <ele>1287</ele>
        <time>2019-08-17T09:47:33Z</time>
      </trkpt>
      <trkpt lat="45.06625" lon="5.56688">
        <ele>1284.8</ele>
        <time>2019-08-17T09:47:43Z</time>
      </trkpt>
      <trkpt lat="45.06617" lon="5.56694">
        <ele>1283.6</ele>
        <time>2019-08-17T09:47:50Z</time>
      </trkpt>
      <trkpt lat="45.06612" lon="5.56694">
        <ele>1282.6</ele>
        <time>2019-08-17T09:47:54Z</time>
      </trkpt>
      <trkpt lat="45.06603" lon="5.56695">
        <ele>1280.4</ele>
        <time>2019-08-17T09:48:02Z</time>
      </trkpt>
      <trkpt lat="45.06598" lon="5.5669">
        <ele>1279.2</ele>
        <time>2019-08-17T09:48:07Z</time>
      </trkpt>
      <trkpt lat="45.0659" lon="5.56683">
        <ele>1278.6</ele>
        <time>2019-08-17T09:48:15Z</time>
      </trkpt>
      <trkpt lat="45.06582" lon="5.56673">
        <ele>1278</ele>
        <time>2019-08-17T09:48:23Z</time>
      </trkpt>
      <trkpt lat="45.06571" lon="5.56665">
        <ele>1275.8</ele>
        <time>2019-08-17T09:48:33Z</time>
      </trkpt>
      <trkpt lat="45.06562" lon="5.5666">
        <ele>1275.6</ele>
        <time>2019-08-17T09:48:41Z</time>
      </trkpt>
      <trkpt lat="45.06558" lon="5.56657">
        <ele>1275.8</ele>
        <time>2019-08-17T09:48:45Z</time>
      </trkpt>
      <trkpt lat="45.06552" lon="5.56656">
        <ele>1276.4</ele>
        <time>2019-08-17T09:48:50Z</time>
      </trkpt>
      <trkpt lat="45.06542" lon="5.56651">
        <ele>1279</ele>
        <time>2019-08-17T09:49:00Z</time>
      </trkpt>
      <trkpt lat="45.06534" lon="5.56647">
        <ele>1281.2</ele>
        <time>2019-08-17T09:49:07Z</time>
      </trkpt>
      <trkpt lat="45.0652" lon="5.56643">
        <ele>1284</ele>
        <time>2019-08-17T09:49:18Z</time>
      </trkpt>
      <trkpt lat="45.06506" lon="5.5664">
        <ele>1285.8</ele>
        <time>2019-08-17T09:49:28Z</time>
      </trkpt>
      <trkpt lat="45.06496" lon="5.56637">
        <ele>1288.2</ele>
        <time>2019-08-17T09:49:37Z</time>
      </trkpt>
      <trkpt lat="45.0649" lon="5.56635">
        <ele>1289.2</ele>
        <time>2019-08-17T09:49:41Z</time>
      </trkpt>
      <trkpt lat="45.06481" lon="5.56631">
        <ele>1289.2</ele>
        <time>2019-08-17T09:49:47Z</time>
      </trkpt>
      <trkpt lat="45.06476" lon="5.56628">
        <ele>1289</ele>
        <time>2019-08-17T09:49:50Z</time>
      </trkpt>
      <trkpt lat="45.06467" lon="5.56625">
        <ele>1288.8</ele>
        <time>2019-08-17T09:49:55Z</time>
      </trkpt>
      <trkpt lat="45.06457" lon="5.56626">
        <ele>1288.8</ele>
        <time>2019-08-17T09:50:02Z</time>
      </trkpt>
      <trkpt lat="45.06451" lon="5.5663">
        <ele>1288.2</ele>
        <time>2019-08-17T09:50:08Z</time>
      </trkpt>
      <trkpt lat="45.06426" lon="5.56633">
        <ele>1287.4</ele>
        <time>2019-08-17T09:50:15Z</time>
      </trkpt>
      <trkpt lat="45.06403" lon="5.56637">
        <ele>1286.2</ele>
        <time>2019-08-17T09:50:20Z</time>
      </trkpt>
      <trkpt lat="45.06394" lon="5.56643">
        <ele>1285.8</ele>
        <time>2019-08-17T09:50:22Z</time>
      </trkpt>
      <trkpt lat="45.06361" lon="5.56677">
        <ele>1284.2</ele>
        <time>2019-08-17T09:50:29Z</time>
      </trkpt>
      <trkpt lat="45.06351" lon="5.56685">
        <ele>1283.8</ele>
        <time>2019-08-17T09:50:31Z</time>
      </trkpt>
      <trkpt lat="45.06334" lon="5.56695">
        <ele>1283.6</ele>
        <time>2019-08-17T09:50:34Z</time>
      </trkpt>
      <trkpt lat="45.06329" lon="5.56697">
        <ele>1283.6</ele>
        <time>2019-08-17T09:50:35Z</time>
      </trkpt>
      <trkpt lat="45.06321" lon="5.56698">
        <ele>1283.4</ele>
        <time>2019-08-17T09:50:37Z</time>
      </trkpt>
      <trkpt lat="45.06316" lon="5.56697">
        <ele>1283.4</ele>
        <time>2019-08-17T09:50:38Z</time>
      </trkpt>
      <trkpt lat="45.06308" lon="5.56693">
        <ele>1283.4</ele>
        <time>2019-08-17T09:50:40Z</time>
      </trkpt>
      <trkpt lat="45.06293" lon="5.56682">
        <ele>1283.4</ele>
        <time>2019-08-17T09:50:44Z</time>
      </trkpt>
      <trkpt lat="45.0628" lon="5.56677">
        <ele>1283.6</ele>
        <time>2019-08-17T09:50:47Z</time>
      </trkpt>
      <trkpt lat="45.06272" lon="5.56672">
        <ele>1283.8</ele>
        <time>2019-08-17T09:50:50Z</time>
      </trkpt>
      <trkpt lat="45.06267" lon="5.56667">
        <ele>1283.8</ele>
        <time>2019-08-17T09:50:53Z</time>
      </trkpt>
      <trkpt lat="45.0626" lon="5.56664">
        <ele>1284</ele>
        <time>2019-08-17T09:50:56Z</time>
      </trkpt>
      <trkpt lat="45.06248" lon="5.56668">
        <ele>1283.4</ele>
        <time>2019-08-17T09:51:02Z</time>
      </trkpt>
      <trkpt lat="45.06241" lon="5.56673">
        <ele>1282.6</ele>
        <time>2019-08-17T09:51:06Z</time>
      </trkpt>
      <trkpt lat="45.06239" lon="5.56678">
        <ele>1282.4</ele>
        <time>2019-08-17T09:51:08Z</time>
      </trkpt>
      <trkpt lat="45.06236" lon="5.56686">
        <ele>1282.2</ele>
        <time>2019-08-17T09:51:11Z</time>
      </trkpt>
      <trkpt lat="45.06228" lon="5.56707">
        <ele>1281</ele>
        <time>2019-08-17T09:51:18Z</time>
      </trkpt>
      <trkpt lat="45.06224" lon="5.56715">
        <ele>1280.8</ele>
        <time>2019-08-17T09:51:21Z</time>
      </trkpt>
      <trkpt lat="45.06222" lon="5.56721">
        <ele>1280.8</ele>
        <time>2019-08-17T09:51:26Z</time>
      </trkpt>
      <trkpt lat="45.06215" lon="5.56724">
        <ele>1281</ele>
        <time>2019-08-17T09:52:46Z</time>
      </trkpt>
      <trkpt lat="45.06206" lon="5.56732">
        <ele>1280.8</ele>
        <time>2019-08-17T09:52:51Z</time>
      </trkpt>
      <trkpt lat="45.06201" lon="5.56739">
        <ele>1282</ele>
        <time>2019-08-17T09:52:55Z</time>
      </trkpt>
      <trkpt lat="45.0619" lon="5.56744">
        <ele>1282.4</ele>
        <time>2019-08-17T09:53:01Z</time>
      </trkpt>
      <trkpt lat="45.06184" lon="5.56743">
        <ele>1282.2</ele>
        <time>2019-08-17T09:53:04Z</time>
      </trkpt>
      <trkpt lat="45.06176" lon="5.56739">
        <ele>1282.6</ele>
        <time>2019-08-17T09:53:07Z</time>
      </trkpt>
      <trkpt lat="45.06171" lon="5.56738">
        <ele>1282.8</ele>
        <time>2019-08-17T09:53:11Z</time>
      </trkpt>
      <trkpt lat="45.06166" lon="5.56741">
        <ele>1282.8</ele>
        <time>2019-08-17T09:53:19Z</time>
      </trkpt>
      <trkpt lat="45.06158" lon="5.56743">
        <ele>1282.4</ele>
        <time>2019-08-17T09:53:24Z</time>
      </trkpt>
      <trkpt lat="45.0616" lon="5.56739">
        <ele>1283.2</ele>
        <time>2019-08-17T09:53:29Z</time>
      </trkpt>
      <trkpt lat="45.06175" lon="5.5673">
        <ele>1283.8</ele>
        <time>2019-08-17T09:53:34Z</time>
      </trkpt>
      <trkpt lat="45.06184" lon="5.56722">
        <ele>1284.4</ele>
        <time>2019-08-17T09:53:36Z</time>
      </trkpt>
      <trkpt lat="45.06187" lon="5.56716">
        <ele>1284.6</ele>
        <time>2019-08-17T09:53:37Z</time>
      </trkpt>
      <trkpt lat="45.06207" lon="5.56678">
        <ele>1286.4</ele>
        <time>2019-08-17T09:53:44Z</time>
      </trkpt>
      <trkpt lat="45.06215" lon="5.56647">
        <ele>1288</ele>
        <time>2019-08-17T09:53:49Z</time>
      </trkpt>
      <trkpt lat="45.06223" lon="5.56625">
        <ele>1289.2</ele>
        <time>2019-08-17T09:53:53Z</time>
      </trkpt>
      <trkpt lat="45.06226" lon="5.56616">
        <ele>1289.8</ele>
        <time>2019-08-17T09:53:55Z</time>
      </trkpt>
      <trkpt lat="45.06232" lon="5.56605">
        <ele>1290.6</ele>
        <time>2019-08-17T09:53:58Z</time>
      </trkpt>
      <trkpt lat="45.0624" lon="5.56588">
        <ele>1292.4</ele>
        <time>2019-08-17T09:54:04Z</time>
      </trkpt>
      <trkpt lat="45.06242" lon="5.56582">
        <ele>1293.2</ele>
        <time>2019-08-17T09:54:06Z</time>
      </trkpt>
      <trkpt lat="45.06248" lon="5.56566">
        <ele>1294.8</ele>
        <time>2019-08-17T09:54:11Z</time>
      </trkpt>
      <trkpt lat="45.06251" lon="5.5655">
        <ele>1296</ele>
        <time>2019-08-17T09:54:15Z</time>
      </trkpt>
      <trkpt lat="45.06252" lon="5.56546">
        <ele>1296.2</ele>
        <time>2019-08-17T09:54:16Z</time>
      </trkpt>
      <trkpt lat="45.06254" lon="5.56529">
        <ele>1297.2</ele>
        <time>2019-08-17T09:54:20Z</time>
      </trkpt>
      <trkpt lat="45.06255" lon="5.56508">
        <ele>1298.2</ele>
        <time>2019-08-17T09:54:24Z</time>
      </trkpt>
      <trkpt lat="45.06251" lon="5.5648">
        <ele>1299.4</ele>
        <time>2019-08-17T09:54:29Z</time>
      </trkpt>
      <trkpt lat="45.0625" lon="5.56464">
        <ele>1300</ele>
        <time>2019-08-17T09:54:32Z</time>
      </trkpt>
      <trkpt lat="45.06249" lon="5.56431">
        <ele>1301</ele>
        <time>2019-08-17T09:54:37Z</time>
      </trkpt>
      <trkpt lat="45.0625" lon="5.56409">
        <ele>1301.4</ele>
        <time>2019-08-17T09:54:40Z</time>
      </trkpt>
      <trkpt lat="45.06255" lon="5.56378">
        <ele>1302.2</ele>
        <time>2019-08-17T09:54:44Z</time>
      </trkpt>
      <trkpt lat="45.06264" lon="5.5634">
        <ele>1303.4</ele>
        <time>2019-08-17T09:54:50Z</time>
      </trkpt>
      <trkpt lat="45.06267" lon="5.56327">
        <ele>1303.8</ele>
        <time>2019-08-17T09:54:52Z</time>
      </trkpt>
      <trkpt lat="45.06268" lon="5.56319">
        <ele>1303.8</ele>
        <time>2019-08-17T09:54:53Z</time>
      </trkpt>
      <trkpt lat="45.06271" lon="5.563">
        <ele>1304.2</ele>
        <time>2019-08-17T09:54:55Z</time>
      </trkpt>
      <trkpt lat="45.06273" lon="5.56266">
        <ele>1304.6</ele>
        <time>2019-08-17T09:54:58Z</time>
      </trkpt>
      <trkpt lat="45.06278" lon="5.56248">
        <ele>1305</ele>
        <time>2019-08-17T09:55:00Z</time>
      </trkpt>
      <trkpt lat="45.06286" lon="5.562">
        <ele>1305.6</ele>
        <time>2019-08-17T09:55:05Z</time>
      </trkpt>
      <trkpt lat="45.06297" lon="5.56162">
        <ele>1306.2</ele>
        <time>2019-08-17T09:55:09Z</time>
      </trkpt>
      <trkpt lat="45.063" lon="5.56129">
        <ele>1306.6</ele>
        <time>2019-08-17T09:55:12Z</time>
      </trkpt>
      <trkpt lat="45.06299" lon="5.56118">
        <ele>1306.6</ele>
        <time>2019-08-17T09:55:13Z</time>
      </trkpt>
      <trkpt lat="45.06292" lon="5.56052">
        <ele>1307</ele>
        <time>2019-08-17T09:55:19Z</time>
      </trkpt>
      <trkpt lat="45.06289" lon="5.56037">
        <ele>1307</ele>
        <time>2019-08-17T09:55:21Z</time>
      </trkpt>
      <trkpt lat="45.06279" lon="5.56056">
        <ele>1305.8</ele>
        <time>2019-08-17T10:29:08Z</time>
      </trkpt>
      <trkpt lat="45.0628" lon="5.56067">
        <ele>1305.6</ele>
        <time>2019-08-17T10:29:15Z</time>
      </trkpt>
      <trkpt lat="45.06281" lon="5.56087">
        <ele>1305.4</ele>
        <time>2019-08-17T10:29:28Z</time>
      </trkpt>
      <trkpt lat="45.06279" lon="5.56098">
        <ele>1305.8</ele>
        <time>2019-08-17T10:29:36Z</time>
      </trkpt>
      <trkpt lat="45.06279" lon="5.56102">
        <ele>1306</ele>
        <time>2019-08-17T10:29:40Z</time>
      </trkpt>
      <trkpt lat="45.06278" lon="5.56117">
        <ele>1305.8</ele>
        <time>2019-08-17T10:29:58Z</time>
      </trkpt>
      <trkpt lat="45.0627" lon="5.56126">
        <ele>1286</ele>
        <time>2019-08-17T10:30:41Z</time>
      </trkpt>
      <trkpt lat="45.06268" lon="5.56126">
        <ele>1283.8</ele>
        <time>2019-08-17T10:30:44Z</time>
      </trkpt>
      <trkpt lat="45.06259" lon="5.56122">
        <ele>1276.6</ele>
        <time>2019-08-17T10:30:58Z</time>
      </trkpt>
      <trkpt lat="45.06258" lon="5.56121">
        <ele>1273.4</ele>
        <time>2019-08-17T10:31:02Z</time>
      </trkpt>
      <trkpt lat="45.06249" lon="5.56127">
        <ele>1270</ele>
        <time>2019-08-17T10:31:24Z</time>
      </trkpt>
      <trkpt lat="45.06246" lon="5.56134">
        <ele>1270.8</ele>
        <time>2019-08-17T10:31:31Z</time>
      </trkpt>
      <trkpt lat="45.06241" lon="5.56147">
        <ele>1273.8</ele>
        <time>2019-08-17T10:31:44Z</time>
      </trkpt>
      <trkpt lat="45.06241" lon="5.56149">
        <ele>1274.2</ele>
        <time>2019-08-17T10:31:46Z</time>
      </trkpt>
      <trkpt lat="45.06236" lon="5.56162">
        <ele>1276.8</ele>
        <time>2019-08-17T10:31:55Z</time>
      </trkpt>
      <trkpt lat="45.06235" lon="5.56168">
        <ele>1278</ele>
        <time>2019-08-17T10:31:59Z</time>
      </trkpt>
      <trkpt lat="45.06232" lon="5.56177">
        <ele>1280</ele>
        <time>2019-08-17T10:32:05Z</time>
      </trkpt>
      <trkpt lat="45.06231" lon="5.56182">
        <ele>1281</ele>
        <time>2019-08-17T10:32:08Z</time>
      </trkpt>
      <trkpt lat="45.06229" lon="5.56193">
        <ele>1283.4</ele>
        <time>2019-08-17T10:32:15Z</time>
      </trkpt>
      <trkpt lat="45.06226" lon="5.56205">
        <ele>1287</ele>
        <time>2019-08-17T10:32:25Z</time>
      </trkpt>
      <trkpt lat="45.06221" lon="5.5622">
        <ele>1291.8</ele>
        <time>2019-08-17T10:32:38Z</time>
      </trkpt>
      <trkpt lat="45.06211" lon="5.5624">
        <ele>1296.8</ele>
        <time>2019-08-17T10:32:53Z</time>
      </trkpt>
      <trkpt lat="45.06202" lon="5.5626">
        <ele>1301.4</ele>
        <time>2019-08-17T10:33:08Z</time>
      </trkpt>
      <trkpt lat="45.06202" lon="5.56261">
        <ele>1301.6</ele>
        <time>2019-08-17T10:33:09Z</time>
      </trkpt>
      <trkpt lat="45.06195" lon="5.56275">
        <ele>1304.4</ele>
        <time>2019-08-17T10:33:19Z</time>
      </trkpt>
      <trkpt lat="45.06191" lon="5.56293">
        <ele>1306.8</ele>
        <time>2019-08-17T10:33:31Z</time>
      </trkpt>
      <trkpt lat="45.06189" lon="5.56298">
        <ele>1307.6</ele>
        <time>2019-08-17T10:33:35Z</time>
      </trkpt>
      <trkpt lat="45.06186" lon="5.56309">
        <ele>1309.4</ele>
        <time>2019-08-17T10:33:45Z</time>
      </trkpt>
      <trkpt lat="45.06182" lon="5.56314">
        <ele>1309.8</ele>
        <time>2019-08-17T10:33:47Z</time>
      </trkpt>
      <trkpt lat="45.06178" lon="5.56326">
        <ele>1310.8</ele>
        <time>2019-08-17T10:33:55Z</time>
      </trkpt>
      <trkpt lat="45.06173" lon="5.56337">
        <ele>1312</ele>
        <time>2019-08-17T10:34:04Z</time>
      </trkpt>
      <trkpt lat="45.06169" lon="5.56343">
        <ele>1312.4</ele>
        <time>2019-08-17T10:34:08Z</time>
      </trkpt>
      <trkpt lat="45.06158" lon="5.56359">
        <ele>1313.6</ele>
        <time>2019-08-17T10:34:18Z</time>
      </trkpt>
      <trkpt lat="45.0615" lon="5.5637">
        <ele>1314.4</ele>
        <time>2019-08-17T10:34:26Z</time>
      </trkpt>
      <trkpt lat="45.06139" lon="5.56382">
        <ele>1315.4</ele>
        <time>2019-08-17T10:34:34Z</time>
      </trkpt>
      <trkpt lat="45.06133" lon="5.56389">
        <ele>1315.6</ele>
        <time>2019-08-17T10:34:39Z</time>
      </trkpt>
      <trkpt lat="45.06124" lon="5.56397">
        <ele>1315.8</ele>
        <time>2019-08-17T10:34:45Z</time>
      </trkpt>
      <trkpt lat="45.0612" lon="5.56401">
        <ele>1315.8</ele>
        <time>2019-08-17T10:34:48Z</time>
      </trkpt>
      <trkpt lat="45.06114" lon="5.56406">
        <ele>1315.8</ele>
        <time>2019-08-17T10:34:52Z</time>
      </trkpt>
      <trkpt lat="45.06107" lon="5.56414">
        <ele>1316</ele>
        <time>2019-08-17T10:34:58Z</time>
      </trkpt>
      <trkpt lat="45.06096" lon="5.56423">
        <ele>1316.4</ele>
        <time>2019-08-17T10:35:07Z</time>
      </trkpt>
      <trkpt lat="45.06086" lon="5.56428">
        <ele>1316.8</ele>
        <time>2019-08-17T10:35:14Z</time>
      </trkpt>
      <trkpt lat="45.06076" lon="5.56432">
        <ele>1317</ele>
        <time>2019-08-17T10:35:20Z</time>
      </trkpt>
      <trkpt lat="45.06068" lon="5.5643">
        <ele>1317.2</ele>
        <time>2019-08-17T10:35:26Z</time>
      </trkpt>
      <trkpt lat="45.06064" lon="5.56432">
        <ele>1317.4</ele>
        <time>2019-08-17T10:35:30Z</time>
      </trkpt>
      <trkpt lat="45.06053" lon="5.56434">
        <ele>1318.2</ele>
        <time>2019-08-17T10:35:39Z</time>
      </trkpt>
      <trkpt lat="45.0605" lon="5.56436">
        <ele>1318.8</ele>
        <time>2019-08-17T10:35:43Z</time>
      </trkpt>
      <trkpt lat="45.06037" lon="5.5644">
        <ele>1320.2</ele>
        <time>2019-08-17T10:35:55Z</time>
      </trkpt>
      <trkpt lat="45.06028" lon="5.56445">
        <ele>1321.8</ele>
        <time>2019-08-17T10:36:07Z</time>
      </trkpt>
      <trkpt lat="45.06017" lon="5.56448">
        <ele>1323.4</ele>
        <time>2019-08-17T10:36:17Z</time>
      </trkpt>
      <trkpt lat="45.06015" lon="5.56449">
        <ele>1324</ele>
        <time>2019-08-17T10:36:20Z</time>
      </trkpt>
      <trkpt lat="45.05999" lon="5.56451">
        <ele>1326.4</ele>
        <time>2019-08-17T10:36:33Z</time>
      </trkpt>
      <trkpt lat="45.05993" lon="5.56453">
        <ele>1326.8</ele>
        <time>2019-08-17T10:36:36Z</time>
      </trkpt>
      <trkpt lat="45.0599" lon="5.56453">
        <ele>1327.2</ele>
        <time>2019-08-17T10:36:38Z</time>
      </trkpt>
      <trkpt lat="45.05984" lon="5.56445">
        <ele>1329.2</ele>
        <time>2019-08-17T10:36:46Z</time>
      </trkpt>
      <trkpt lat="45.05976" lon="5.56431">
        <ele>1331.6</ele>
        <time>2019-08-17T10:36:54Z</time>
      </trkpt>
      <trkpt lat="45.05969" lon="5.56411">
        <ele>1334.4</ele>
        <time>2019-08-17T10:37:04Z</time>
      </trkpt>
      <trkpt lat="45.05965" lon="5.56405">
        <ele>1335.8</ele>
        <time>2019-08-17T10:37:10Z</time>
      </trkpt>
      <trkpt lat="45.05951" lon="5.56385">
        <ele>1338.2</ele>
        <time>2019-08-17T10:37:21Z</time>
      </trkpt>
      <trkpt lat="45.05946" lon="5.56379">
        <ele>1339</ele>
        <time>2019-08-17T10:37:26Z</time>
      </trkpt>
      <trkpt lat="45.05943" lon="5.56377">
        <ele>1339.4</ele>
        <time>2019-08-17T10:37:28Z</time>
      </trkpt>
      <trkpt lat="45.05935" lon="5.56369">
        <ele>1341</ele>
        <time>2019-08-17T10:37:36Z</time>
      </trkpt>
      <trkpt lat="45.05926" lon="5.56361">
        <ele>1342.8</ele>
        <time>2019-08-17T10:37:44Z</time>
      </trkpt>
      <trkpt lat="45.05915" lon="5.56355">
        <ele>1344.4</ele>
        <time>2019-08-17T10:37:52Z</time>
      </trkpt>
      <trkpt lat="45.05907" lon="5.56347">
        <ele>1346.2</ele>
        <time>2019-08-17T10:38:00Z</time>
      </trkpt>
      <trkpt lat="45.05894" lon="5.56341">
        <ele>1348.6</ele>
        <time>2019-08-17T10:38:10Z</time>
      </trkpt>
      <trkpt lat="45.05883" lon="5.56329">
        <ele>1351.6</ele>
        <time>2019-08-17T10:38:23Z</time>
      </trkpt>
      <trkpt lat="45.0588" lon="5.56324">
        <ele>1352.2</ele>
        <time>2019-08-17T10:38:26Z</time>
      </trkpt>
      <trkpt lat="45.05868" lon="5.56307">
        <ele>1354.4</ele>
        <time>2019-08-17T10:38:37Z</time>
      </trkpt>
      <trkpt lat="45.05863" lon="5.56299">
        <ele>1355.2</ele>
        <time>2019-08-17T10:38:42Z</time>
      </trkpt>
      <trkpt lat="45.05854" lon="5.56288">
        <ele>1356.4</ele>
        <time>2019-08-17T10:38:49Z</time>
      </trkpt>
      <trkpt lat="45.05851" lon="5.56282">
        <ele>1356.6</ele>
        <time>2019-08-17T10:38:52Z</time>
      </trkpt>
      <trkpt lat="45.05845" lon="5.56275">
        <ele>1357</ele>
        <time>2019-08-17T10:38:56Z</time>
      </trkpt>
      <trkpt lat="45.05838" lon="5.56276">
        <ele>1357.4</ele>
        <time>2019-08-17T10:39:00Z</time>
      </trkpt>
      <trkpt lat="45.05836" lon="5.56283">
        <ele>1357.8</ele>
        <time>2019-08-17T10:39:04Z</time>
      </trkpt>
      <trkpt lat="45.05838" lon="5.56292">
        <ele>1358.6</ele>
        <time>2019-08-17T10:39:09Z</time>
      </trkpt>
      <trkpt lat="45.0584" lon="5.56299">
        <ele>1359.4</ele>
        <time>2019-08-17T10:39:13Z</time>
      </trkpt>
      <trkpt lat="45.05846" lon="5.56308">
        <ele>1360.4</ele>
        <time>2019-08-17T10:39:19Z</time>
      </trkpt>
      <trkpt lat="45.05849" lon="5.56315">
        <ele>1361</ele>
        <time>2019-08-17T10:39:23Z</time>
      </trkpt>
      <trkpt lat="45.05852" lon="5.56323">
        <ele>1361.6</ele>
        <time>2019-08-17T10:39:27Z</time>
      </trkpt>
      <trkpt lat="45.05859" lon="5.56337">
        <ele>1363</ele>
        <time>2019-08-17T10:39:34Z</time>
      </trkpt>
      <trkpt lat="45.05861" lon="5.56347">
        <ele>1363.6</ele>
        <time>2019-08-17T10:39:38Z</time>
      </trkpt>
      <trkpt lat="45.05864" lon="5.56354">
        <ele>1364.4</ele>
        <time>2019-08-17T10:39:42Z</time>
      </trkpt>
      <trkpt lat="45.05868" lon="5.56365">
        <ele>1365.4</ele>
        <time>2019-08-17T10:39:48Z</time>
      </trkpt>
      <trkpt lat="45.0587" lon="5.56368">
        <ele>1365.8</ele>
        <time>2019-08-17T10:39:50Z</time>
      </trkpt>
      <trkpt lat="45.05877" lon="5.56379">
        <ele>1366.6</ele>
        <time>2019-08-17T10:39:57Z</time>
      </trkpt>
      <trkpt lat="45.05882" lon="5.56393">
        <ele>1367.4</ele>
        <time>2019-08-17T10:40:05Z</time>
      </trkpt>
      <trkpt lat="45.05884" lon="5.56401">
        <ele>1367.8</ele>
        <time>2019-08-17T10:40:09Z</time>
      </trkpt>
      <trkpt lat="45.05885" lon="5.56413">
        <ele>1368.4</ele>
        <time>2019-08-17T10:40:15Z</time>
      </trkpt>
      <trkpt lat="45.05887" lon="5.56421">
        <ele>1369</ele>
        <time>2019-08-17T10:40:19Z</time>
      </trkpt>
      <trkpt lat="45.05886" lon="5.56429">
        <ele>1369.6</ele>
        <time>2019-08-17T10:40:23Z</time>
      </trkpt>
      <trkpt lat="45.05883" lon="5.56449">
        <ele>1370.8</ele>
        <time>2019-08-17T10:40:33Z</time>
      </trkpt>
      <trkpt lat="45.0588" lon="5.56459">
        <ele>1371.6</ele>
        <time>2019-08-17T10:40:39Z</time>
      </trkpt>
      <trkpt lat="45.05879" lon="5.56468">
        <ele>1372</ele>
        <time>2019-08-17T10:40:43Z</time>
      </trkpt>
      <trkpt lat="45.05875" lon="5.56484">
        <ele>1373</ele>
        <time>2019-08-17T10:40:52Z</time>
      </trkpt>
      <trkpt lat="45.05872" lon="5.56492">
        <ele>1373.4</ele>
        <time>2019-08-17T10:40:56Z</time>
      </trkpt>
      <trkpt lat="45.0587" lon="5.56497">
        <ele>1373.8</ele>
        <time>2019-08-17T10:40:59Z</time>
      </trkpt>
      <trkpt lat="45.05864" lon="5.56503">
        <ele>1374.4</ele>
        <time>2019-08-17T10:41:04Z</time>
      </trkpt>
      <trkpt lat="45.05861" lon="5.56509">
        <ele>1375</ele>
        <time>2019-08-17T10:41:08Z</time>
      </trkpt>
      <trkpt lat="45.05859" lon="5.56518">
        <ele>1375.8</ele>
        <time>2019-08-17T10:41:14Z</time>
      </trkpt>
      <trkpt lat="45.05856" lon="5.56524">
        <ele>1376.2</ele>
        <time>2019-08-17T10:41:18Z</time>
      </trkpt>
      <trkpt lat="45.05852" lon="5.56534">
        <ele>1376.6</ele>
        <time>2019-08-17T10:41:23Z</time>
      </trkpt>
      <trkpt lat="45.05851" lon="5.56541">
        <ele>1376.8</ele>
        <time>2019-08-17T10:41:26Z</time>
      </trkpt>
      <trkpt lat="45.05852" lon="5.56551">
        <ele>1376.8</ele>
        <time>2019-08-17T10:41:30Z</time>
      </trkpt>
      <trkpt lat="45.05856" lon="5.56563">
        <ele>1376.8</ele>
        <time>2019-08-17T10:41:35Z</time>
      </trkpt>
      <trkpt lat="45.05862" lon="5.56576">
        <ele>1376.4</ele>
        <time>2019-08-17T10:41:41Z</time>
      </trkpt>
      <trkpt lat="45.05865" lon="5.56587">
        <ele>1376</ele>
        <time>2019-08-17T10:41:47Z</time>
      </trkpt>
      <trkpt lat="45.05857" lon="5.56591">
        <ele>1375.8</ele>
        <time>2019-08-17T10:41:52Z</time>
      </trkpt>
      <trkpt lat="45.05851" lon="5.5659">
        <ele>1375.6</ele>
        <time>2019-08-17T10:41:55Z</time>
      </trkpt>
      <trkpt lat="45.05845" lon="5.56587">
        <ele>1375.4</ele>
        <time>2019-08-17T10:41:59Z</time>
      </trkpt>
      <trkpt lat="45.05837" lon="5.56577">
        <ele>1375</ele>
        <time>2019-08-17T10:42:05Z</time>
      </trkpt>
      <trkpt lat="45.05827" lon="5.56567">
        <ele>1374.4</ele>
        <time>2019-08-17T10:42:12Z</time>
      </trkpt>
      <trkpt lat="45.0582" lon="5.56561">
        <ele>1374</ele>
        <time>2019-08-17T10:42:17Z</time>
      </trkpt>
      <trkpt lat="45.05807" lon="5.56552">
        <ele>1373.2</ele>
        <time>2019-08-17T10:42:26Z</time>
      </trkpt>
      <trkpt lat="45.05799" lon="5.56551">
        <ele>1372.8</ele>
        <time>2019-08-17T10:42:31Z</time>
      </trkpt>
      <trkpt lat="45.05787" lon="5.56552">
        <ele>1372</ele>
        <time>2019-08-17T10:42:39Z</time>
      </trkpt>
      <trkpt lat="45.05778" lon="5.56551">
        <ele>1371.8</ele>
        <time>2019-08-17T10:42:44Z</time>
      </trkpt>
      <trkpt lat="45.05769" lon="5.56557">
        <ele>1371.6</ele>
        <time>2019-08-17T10:42:50Z</time>
      </trkpt>
      <trkpt lat="45.05764" lon="5.56563">
        <ele>1371.4</ele>
        <time>2019-08-17T10:42:54Z</time>
      </trkpt>
      <trkpt lat="45.05755" lon="5.56576">
        <ele>1371</ele>
        <time>2019-08-17T10:43:01Z</time>
      </trkpt>
      <trkpt lat="45.05752" lon="5.5658">
        <ele>1371</ele>
        <time>2019-08-17T10:43:03Z</time>
      </trkpt>
      <trkpt lat="45.05742" lon="5.56599">
        <ele>1370.8</ele>
        <time>2019-08-17T10:43:11Z</time>
      </trkpt>
      <trkpt lat="45.05733" lon="5.56609">
        <ele>1370.6</ele>
        <time>2019-08-17T10:43:16Z</time>
      </trkpt>
      <trkpt lat="45.05722" lon="5.56626">
        <ele>1370.6</ele>
        <time>2019-08-17T10:43:23Z</time>
      </trkpt>
      <trkpt lat="45.05713" lon="5.56641">
        <ele>1370.6</ele>
        <time>2019-08-17T10:43:29Z</time>
      </trkpt>
      <trkpt lat="45.05701" lon="5.56653">
        <ele>1370.8</ele>
        <time>2019-08-17T10:43:35Z</time>
      </trkpt>
      <trkpt lat="45.05698" lon="5.56657">
        <ele>1371</ele>
        <time>2019-08-17T10:43:37Z</time>
      </trkpt>
      <trkpt lat="45.05687" lon="5.5667">
        <ele>1371.2</ele>
        <time>2019-08-17T10:43:43Z</time>
      </trkpt>
      <trkpt lat="45.05685" lon="5.56672">
        <ele>1371.2</ele>
        <time>2019-08-17T10:43:44Z</time>
      </trkpt>
      <trkpt lat="45.05677" lon="5.56682">
        <ele>1371.2</ele>
        <time>2019-08-17T10:43:49Z</time>
      </trkpt>
      <trkpt lat="45.05667" lon="5.56694">
        <ele>1371.4</ele>
        <time>2019-08-17T10:43:55Z</time>
      </trkpt>
      <trkpt lat="45.05662" lon="5.56701">
        <ele>1371.6</ele>
        <time>2019-08-17T10:43:58Z</time>
      </trkpt>
      <trkpt lat="45.05651" lon="5.56712">
        <ele>1371.8</ele>
        <time>2019-08-17T10:44:04Z</time>
      </trkpt>
      <trkpt lat="45.05639" lon="5.56723">
        <ele>1372</ele>
        <time>2019-08-17T10:44:10Z</time>
      </trkpt>
      <trkpt lat="45.05628" lon="5.56732">
        <ele>1372</ele>
        <time>2019-08-17T10:44:15Z</time>
      </trkpt>
      <trkpt lat="45.05615" lon="5.56742">
        <ele>1372.2</ele>
        <time>2019-08-17T10:44:21Z</time>
      </trkpt>
      <trkpt lat="45.05606" lon="5.56748">
        <ele>1372.2</ele>
        <time>2019-08-17T10:44:25Z</time>
      </trkpt>
      <trkpt lat="45.05599" lon="5.56752">
        <ele>1372.4</ele>
        <time>2019-08-17T10:44:28Z</time>
      </trkpt>
      <trkpt lat="45.05591" lon="5.56752">
        <ele>1372.6</ele>
        <time>2019-08-17T10:44:32Z</time>
      </trkpt>
      <trkpt lat="45.05579" lon="5.56744">
        <ele>1372.6</ele>
        <time>2019-08-17T10:44:36Z</time>
      </trkpt>
      <trkpt lat="45.05571" lon="5.56745">
        <ele>1372.6</ele>
        <time>2019-08-17T10:44:38Z</time>
      </trkpt>
      <trkpt lat="45.05565" lon="5.56752">
        <ele>1372.6</ele>
        <time>2019-08-17T10:44:40Z</time>
      </trkpt>
      <trkpt lat="45.05561" lon="5.56759">
        <ele>1372.8</ele>
        <time>2019-08-17T10:44:42Z</time>
      </trkpt>
      <trkpt lat="45.05568" lon="5.5675">
        <ele>1372.8</ele>
        <time>2019-08-17T10:47:17Z</time>
      </trkpt>
      <trkpt lat="45.05575" lon="5.56745">
        <ele>1372.6</ele>
        <time>2019-08-17T10:47:20Z</time>
      </trkpt>
      <trkpt lat="45.05584" lon="5.56749">
        <ele>1372.4</ele>
        <time>2019-08-17T10:47:25Z</time>
      </trkpt>
      <trkpt lat="45.0559" lon="5.56759">
        <ele>1372.6</ele>
        <time>2019-08-17T10:47:31Z</time>
      </trkpt>
      <trkpt lat="45.05592" lon="5.56769">
        <ele>1372.8</ele>
        <time>2019-08-17T10:47:35Z</time>
      </trkpt>
      <trkpt lat="45.05592" lon="5.56778">
        <ele>1372.8</ele>
        <time>2019-08-17T10:47:39Z</time>
      </trkpt>
      <trkpt lat="45.0559" lon="5.56794">
        <ele>1373.2</ele>
        <time>2019-08-17T10:47:46Z</time>
      </trkpt>
      <trkpt lat="45.05587" lon="5.5681">
        <ele>1373.8</ele>
        <time>2019-08-17T10:47:53Z</time>
      </trkpt>
      <trkpt lat="45.05587" lon="5.56824">
        <ele>1375.2</ele>
        <time>2019-08-17T10:48:00Z</time>
      </trkpt>
      <trkpt lat="45.05591" lon="5.56845">
        <ele>1377.6</ele>
        <time>2019-08-17T10:48:10Z</time>
      </trkpt>
      <trkpt lat="45.05592" lon="5.56854">
        <ele>1378.6</ele>
        <time>2019-08-17T10:48:15Z</time>
      </trkpt>
      <trkpt lat="45.05595" lon="5.56873">
        <ele>1381.4</ele>
        <time>2019-08-17T10:48:26Z</time>
      </trkpt>
      <trkpt lat="45.05594" lon="5.56878">
        <ele>1382.2</ele>
        <time>2019-08-17T10:48:29Z</time>
      </trkpt>
      <trkpt lat="45.05594" lon="5.56891">
        <ele>1385</ele>
        <time>2019-08-17T10:48:39Z</time>
      </trkpt>
      <trkpt lat="45.05594" lon="5.56896">
        <ele>1385.8</ele>
        <time>2019-08-17T10:48:42Z</time>
      </trkpt>
      <trkpt lat="45.05593" lon="5.56913">
        <ele>1389</ele>
        <time>2019-08-17T10:48:52Z</time>
      </trkpt>
      <trkpt lat="45.05589" lon="5.56929">
        <ele>1391.4</ele>
        <time>2019-08-17T10:49:01Z</time>
      </trkpt>
      <trkpt lat="45.05587" lon="5.56945">
        <ele>1393.2</ele>
        <time>2019-08-17T10:49:10Z</time>
      </trkpt>
      <trkpt lat="45.05586" lon="5.56959">
        <ele>1394.8</ele>
        <time>2019-08-17T10:49:19Z</time>
      </trkpt>
      <trkpt lat="45.05589" lon="5.56976">
        <ele>1397.6</ele>
        <time>2019-08-17T10:49:31Z</time>
      </trkpt>
      <trkpt lat="45.05592" lon="5.56996">
        <ele>1401.6</ele>
        <time>2019-08-17T10:49:45Z</time>
      </trkpt>
      <trkpt lat="45.05592" lon="5.5701">
        <ele>1404.2</ele>
        <time>2019-08-17T10:49:55Z</time>
      </trkpt>
      <trkpt lat="45.05591" lon="5.5702">
        <ele>1407</ele>
        <time>2019-08-17T10:50:04Z</time>
      </trkpt>
      <trkpt lat="45.05586" lon="5.57034">
        <ele>1410.6</ele>
        <time>2019-08-17T10:50:16Z</time>
      </trkpt>
      <trkpt lat="45.05583" lon="5.57047">
        <ele>1413.8</ele>
        <time>2019-08-17T10:50:26Z</time>
      </trkpt>
      <trkpt lat="45.05581" lon="5.57056">
        <ele>1417</ele>
        <time>2019-08-17T10:50:34Z</time>
      </trkpt>
      <trkpt lat="45.05578" lon="5.57066">
        <ele>1420.6</ele>
        <time>2019-08-17T10:50:43Z</time>
      </trkpt>
      <trkpt lat="45.05576" lon="5.57069">
        <ele>1421.8</ele>
        <time>2019-08-17T10:50:46Z</time>
      </trkpt>
      <trkpt lat="45.05567" lon="5.57089">
        <ele>1427.4</ele>
        <time>2019-08-17T10:51:00Z</time>
      </trkpt>
      <trkpt lat="45.05564" lon="5.57099">
        <ele>1429.8</ele>
        <time>2019-08-17T10:51:06Z</time>
      </trkpt>
      <trkpt lat="45.05563" lon="5.57108">
        <ele>1431.8</ele>
        <time>2019-08-17T10:51:11Z</time>
      </trkpt>
      <trkpt lat="45.05561" lon="5.57123">
        <ele>1434.2</ele>
        <time>2019-08-17T10:51:18Z</time>
      </trkpt>
      <trkpt lat="45.0556" lon="5.57139">
        <ele>1436.8</ele>
        <time>2019-08-17T10:51:26Z</time>
      </trkpt>
      <trkpt lat="45.0556" lon="5.57151">
        <ele>1438.8</ele>
        <time>2019-08-17T10:51:32Z</time>
      </trkpt>
      <trkpt lat="45.05563" lon="5.57165">
        <ele>1440.8</ele>
        <time>2019-08-17T10:51:39Z</time>
      </trkpt>
      <trkpt lat="45.05564" lon="5.57174">
        <ele>1441.8</ele>
        <time>2019-08-17T10:51:43Z</time>
      </trkpt>
      <trkpt lat="45.05564" lon="5.57182">
        <ele>1442.6</ele>
        <time>2019-08-17T10:51:46Z</time>
      </trkpt>
      <trkpt lat="45.05563" lon="5.57203">
        <ele>1445</ele>
        <time>2019-08-17T10:51:55Z</time>
      </trkpt>
      <trkpt lat="45.05562" lon="5.57219">
        <ele>1447.8</ele>
        <time>2019-08-17T10:52:05Z</time>
      </trkpt>
      <trkpt lat="45.05563" lon="5.57229">
        <ele>1450</ele>
        <time>2019-08-17T10:52:12Z</time>
      </trkpt>
      <trkpt lat="45.05564" lon="5.5724">
        <ele>1452.2</ele>
        <time>2019-08-17T10:52:19Z</time>
      </trkpt>
      <trkpt lat="45.05565" lon="5.57262">
        <ele>1457.2</ele>
        <time>2019-08-17T10:52:33Z</time>
      </trkpt>
      <trkpt lat="45.05564" lon="5.5727">
        <ele>1459</ele>
        <time>2019-08-17T10:52:38Z</time>
      </trkpt>
      <trkpt lat="45.05565" lon="5.57277">
        <ele>1460.8</ele>
        <time>2019-08-17T10:52:43Z</time>
      </trkpt>
      <trkpt lat="45.05565" lon="5.57289">
        <ele>1463.8</ele>
        <time>2019-08-17T10:52:51Z</time>
      </trkpt>
      <trkpt lat="45.05565" lon="5.57308">
        <ele>1467.8</ele>
        <time>2019-08-17T10:53:03Z</time>
      </trkpt>
      <trkpt lat="45.05567" lon="5.57319">
        <ele>1469.8</ele>
        <time>2019-08-17T10:53:09Z</time>
      </trkpt>
      <trkpt lat="45.05567" lon="5.57327">
        <ele>1471.4</ele>
        <time>2019-08-17T10:53:14Z</time>
      </trkpt>
      <trkpt lat="45.05565" lon="5.57337">
        <ele>1473.4</ele>
        <time>2019-08-17T10:53:21Z</time>
      </trkpt>
      <trkpt lat="45.05559" lon="5.57346">
        <ele>1475.4</ele>
        <time>2019-08-17T10:53:29Z</time>
      </trkpt>
      <trkpt lat="45.05555" lon="5.57339">
        <ele>1477.2</ele>
        <time>2019-08-17T10:53:37Z</time>
      </trkpt>
      <trkpt lat="45.05553" lon="5.57327">
        <ele>1479</ele>
        <time>2019-08-17T10:53:45Z</time>
      </trkpt>
      <trkpt lat="45.05552" lon="5.57318">
        <ele>1480.8</ele>
        <time>2019-08-17T10:53:52Z</time>
      </trkpt>
      <trkpt lat="45.05551" lon="5.57311">
        <ele>1482</ele>
        <time>2019-08-17T10:53:57Z</time>
      </trkpt>
      <trkpt lat="45.05547" lon="5.57304">
        <ele>1483.6</ele>
        <time>2019-08-17T10:54:04Z</time>
      </trkpt>
      <trkpt lat="45.05541" lon="5.57293">
        <ele>1485.8</ele>
        <time>2019-08-17T10:54:13Z</time>
      </trkpt>
      <trkpt lat="45.05536" lon="5.57287">
        <ele>1487</ele>
        <time>2019-08-17T10:54:18Z</time>
      </trkpt>
      <trkpt lat="45.0553" lon="5.57282">
        <ele>1488.2</ele>
        <time>2019-08-17T10:54:22Z</time>
      </trkpt>
      <trkpt lat="45.05523" lon="5.57278">
        <ele>1490</ele>
        <time>2019-08-17T10:54:28Z</time>
      </trkpt>
      <trkpt lat="45.05513" lon="5.57276">
        <ele>1491.8</ele>
        <time>2019-08-17T10:54:34Z</time>
      </trkpt>
      <trkpt lat="45.05499" lon="5.57271">
        <ele>1494.4</ele>
        <time>2019-08-17T10:54:43Z</time>
      </trkpt>
      <trkpt lat="45.05487" lon="5.57264">
        <ele>1496.8</ele>
        <time>2019-08-17T10:54:51Z</time>
      </trkpt>
      <trkpt lat="45.05473" lon="5.57258">
        <ele>1499.8</ele>
        <time>2019-08-17T10:55:02Z</time>
      </trkpt>
      <trkpt lat="45.05457" lon="5.57253">
        <ele>1502.4</ele>
        <time>2019-08-17T10:55:13Z</time>
      </trkpt>
      <trkpt lat="45.05452" lon="5.57252">
        <ele>1503.4</ele>
        <time>2019-08-17T10:55:17Z</time>
      </trkpt>
      <trkpt lat="45.05444" lon="5.57248">
        <ele>1504.6</ele>
        <time>2019-08-17T10:55:23Z</time>
      </trkpt>
      <trkpt lat="45.05433" lon="5.57239">
        <ele>1506.4</ele>
        <time>2019-08-17T10:55:32Z</time>
      </trkpt>
      <trkpt lat="45.05427" lon="5.57236">
        <ele>1507.2</ele>
        <time>2019-08-17T10:55:36Z</time>
      </trkpt>
      <trkpt lat="45.05422" lon="5.5723">
        <ele>1508</ele>
        <time>2019-08-17T10:55:41Z</time>
      </trkpt>
      <trkpt lat="45.05413" lon="5.57229">
        <ele>1509.2</ele>
        <time>2019-08-17T10:55:48Z</time>
      </trkpt>
      <trkpt lat="45.05409" lon="5.57228">
        <ele>1509.6</ele>
        <time>2019-08-17T10:55:51Z</time>
      </trkpt>
      <trkpt lat="45.05404" lon="5.57225">
        <ele>1510.2</ele>
        <time>2019-08-17T10:55:55Z</time>
      </trkpt>
      <trkpt lat="45.05391" lon="5.5722">
        <ele>1511.2</ele>
        <time>2019-08-17T10:56:04Z</time>
      </trkpt>
      <trkpt lat="45.05383" lon="5.57218">
        <ele>1512</ele>
        <time>2019-08-17T10:56:11Z</time>
      </trkpt>
      <trkpt lat="45.05385" lon="5.5722">
        <ele>1512.6</ele>
        <time>2019-08-17T10:56:16Z</time>
      </trkpt>
      <trkpt lat="45.05384" lon="5.57203">
        <ele>1513.4</ele>
        <time>2019-08-17T10:56:29Z</time>
      </trkpt>
      <trkpt lat="45.05382" lon="5.572">
        <ele>1513.8</ele>
        <time>2019-08-17T10:56:32Z</time>
      </trkpt>
      <trkpt lat="45.05367" lon="5.57194">
        <ele>1515.6</ele>
        <time>2019-08-17T10:56:43Z</time>
      </trkpt>
      <trkpt lat="45.05362" lon="5.5719">
        <ele>1516.6</ele>
        <time>2019-08-17T10:56:47Z</time>
      </trkpt>
      <trkpt lat="45.05358" lon="5.57189">
        <ele>1517</ele>
        <time>2019-08-17T10:56:49Z</time>
      </trkpt>
      <trkpt lat="45.05343" lon="5.57185">
        <ele>1519</ele>
        <time>2019-08-17T10:56:59Z</time>
      </trkpt>
      <trkpt lat="45.05337" lon="5.57181">
        <ele>1519.6</ele>
        <time>2019-08-17T10:57:03Z</time>
      </trkpt>
      <trkpt lat="45.05326" lon="5.57179">
        <ele>1520.8</ele>
        <time>2019-08-17T10:57:10Z</time>
      </trkpt>
      <trkpt lat="45.05322" lon="5.57175">
        <ele>1521.4</ele>
        <time>2019-08-17T10:57:14Z</time>
      </trkpt>
      <trkpt lat="45.05312" lon="5.57168">
        <ele>1522.2</ele>
        <time>2019-08-17T10:57:23Z</time>
      </trkpt>
      <trkpt lat="45.05303" lon="5.57163">
        <ele>1523</ele>
        <time>2019-08-17T10:57:30Z</time>
      </trkpt>
      <trkpt lat="45.053" lon="5.57162">
        <ele>1523.2</ele>
        <time>2019-08-17T10:57:32Z</time>
      </trkpt>
      <trkpt lat="45.05286" lon="5.57156">
        <ele>1523.8</ele>
        <time>2019-08-17T10:57:41Z</time>
      </trkpt>
      <trkpt lat="45.05277" lon="5.57151">
        <ele>1524.2</ele>
        <time>2019-08-17T10:57:46Z</time>
      </trkpt>
      <trkpt lat="45.05263" lon="5.57139">
        <ele>1525.2</ele>
        <time>2019-08-17T10:57:54Z</time>
      </trkpt>
      <trkpt lat="45.05256" lon="5.5713">
        <ele>1525.4</ele>
        <time>2019-08-17T10:57:58Z</time>
      </trkpt>
      <trkpt lat="45.05247" lon="5.57126">
        <ele>1525.8</ele>
        <time>2019-08-17T10:58:02Z</time>
      </trkpt>
      <trkpt lat="45.05241" lon="5.57122">
        <ele>1526.4</ele>
        <time>2019-08-17T10:58:06Z</time>
      </trkpt>
      <trkpt lat="45.05231" lon="5.57112">
        <ele>1527.6</ele>
        <time>2019-08-17T10:58:14Z</time>
      </trkpt>
      <trkpt lat="45.05228" lon="5.57109">
        <ele>1528</ele>
        <time>2019-08-17T10:58:16Z</time>
      </trkpt>
      <trkpt lat="45.05218" lon="5.57101">
        <ele>1529</ele>
        <time>2019-08-17T10:58:22Z</time>
      </trkpt>
      <trkpt lat="45.05211" lon="5.57095">
        <ele>1529.8</ele>
        <time>2019-08-17T10:58:27Z</time>
      </trkpt>
      <trkpt lat="45.05206" lon="5.57088">
        <ele>1530.2</ele>
        <time>2019-08-17T10:58:31Z</time>
      </trkpt>
      <trkpt lat="45.05196" lon="5.57076">
        <ele>1531.2</ele>
        <time>2019-08-17T10:58:40Z</time>
      </trkpt>
      <trkpt lat="45.05194" lon="5.57072">
        <ele>1531.4</ele>
        <time>2019-08-17T10:58:43Z</time>
      </trkpt>
      <trkpt lat="45.05188" lon="5.57067">
        <ele>1531.4</ele>
        <time>2019-08-17T10:58:48Z</time>
      </trkpt>
      <trkpt lat="45.05179" lon="5.57065">
        <ele>1531.6</ele>
        <time>2019-08-17T10:58:55Z</time>
      </trkpt>
      <trkpt lat="45.05172" lon="5.57062">
        <ele>1531.6</ele>
        <time>2019-08-17T10:59:01Z</time>
      </trkpt>
      <trkpt lat="45.05164" lon="5.57063">
        <ele>1531.8</ele>
        <time>2019-08-17T11:01:13Z</time>
      </trkpt>
      <trkpt lat="45.05159" lon="5.57066">
        <ele>1531.6</ele>
        <time>2019-08-17T11:01:17Z</time>
      </trkpt>
      <trkpt lat="45.05151" lon="5.57068">
        <ele>1531</ele>
        <time>2019-08-17T11:01:22Z</time>
      </trkpt>
      <trkpt lat="45.05148" lon="5.5707">
        <ele>1530.8</ele>
        <time>2019-08-17T11:01:24Z</time>
      </trkpt>
      <trkpt lat="45.05141" lon="5.57072">
        <ele>1530.6</ele>
        <time>2019-08-17T11:01:28Z</time>
      </trkpt>
      <trkpt lat="45.05129" lon="5.57073">
        <ele>1530.4</ele>
        <time>2019-08-17T11:01:35Z</time>
      </trkpt>
      <trkpt lat="45.05114" lon="5.57078">
        <ele>1530.4</ele>
        <time>2019-08-17T11:01:45Z</time>
      </trkpt>
      <trkpt lat="45.05107" lon="5.57081">
        <ele>1530.8</ele>
        <time>2019-08-17T11:01:50Z</time>
      </trkpt>
      <trkpt lat="45.05103" lon="5.57082">
        <ele>1530.8</ele>
        <time>2019-08-17T11:01:52Z</time>
      </trkpt>
      <trkpt lat="45.05089" lon="5.57084">
        <ele>1531</ele>
        <time>2019-08-17T11:01:59Z</time>
      </trkpt>
      <trkpt lat="45.05072" lon="5.57085">
        <ele>1531.6</ele>
        <time>2019-08-17T11:02:07Z</time>
      </trkpt>
      <trkpt lat="45.05054" lon="5.57083">
        <ele>1531</ele>
        <time>2019-08-17T11:02:15Z</time>
      </trkpt>
      <trkpt lat="45.05045" lon="5.57081">
        <ele>1531.6</ele>
        <time>2019-08-17T11:02:19Z</time>
      </trkpt>
      <trkpt lat="45.0503" lon="5.57077">
        <ele>1532</ele>
        <time>2019-08-17T11:02:25Z</time>
      </trkpt>
      <trkpt lat="45.05019" lon="5.57072">
        <ele>1532.4</ele>
        <time>2019-08-17T11:02:30Z</time>
      </trkpt>
      <trkpt lat="45.05004" lon="5.57065">
        <ele>1532.8</ele>
        <time>2019-08-17T11:02:37Z</time>
      </trkpt>
      <trkpt lat="45.04992" lon="5.57058">
        <ele>1533.4</ele>
        <time>2019-08-17T11:02:43Z</time>
      </trkpt>
      <trkpt lat="45.04988" lon="5.57056">
        <ele>1533.6</ele>
        <time>2019-08-17T11:02:45Z</time>
      </trkpt>
      <trkpt lat="45.04976" lon="5.5705">
        <ele>1534</ele>
        <time>2019-08-17T11:02:51Z</time>
      </trkpt>
      <trkpt lat="45.04969" lon="5.57047">
        <ele>1534.4</ele>
        <time>2019-08-17T11:02:55Z</time>
      </trkpt>
      <trkpt lat="45.04954" lon="5.57042">
        <ele>1535</ele>
        <time>2019-08-17T11:03:03Z</time>
      </trkpt>
      <trkpt lat="45.04953" lon="5.57041">
        <ele>1535</ele>
        <time>2019-08-17T11:03:04Z</time>
      </trkpt>
      <trkpt lat="45.04941" lon="5.57037">
        <ele>1535.2</ele>
        <time>2019-08-17T11:03:10Z</time>
      </trkpt>
      <trkpt lat="45.04927" lon="5.57031">
        <ele>1535.6</ele>
        <time>2019-08-17T11:03:17Z</time>
      </trkpt>
      <trkpt lat="45.0492" lon="5.57028">
        <ele>1535.8</ele>
        <time>2019-08-17T11:03:21Z</time>
      </trkpt>
      <trkpt lat="45.04908" lon="5.57025">
        <ele>1536.2</ele>
        <time>2019-08-17T11:03:27Z</time>
      </trkpt>
      <trkpt lat="45.04893" lon="5.57018">
        <ele>1536.2</ele>
        <time>2019-08-17T11:03:34Z</time>
      </trkpt>
      <trkpt lat="45.04882" lon="5.57012">
        <ele>1536.4</ele>
        <time>2019-08-17T11:03:39Z</time>
      </trkpt>
      <trkpt lat="45.04865" lon="5.57002">
        <ele>1536.4</ele>
        <time>2019-08-17T11:03:47Z</time>
      </trkpt>
      <trkpt lat="45.04859" lon="5.56997">
        <ele>1536.4</ele>
        <time>2019-08-17T11:03:50Z</time>
      </trkpt>
      <trkpt lat="45.04847" lon="5.56992">
        <ele>1536.8</ele>
        <time>2019-08-17T11:03:56Z</time>
      </trkpt>
      <trkpt lat="45.04836" lon="5.56989">
        <ele>1537</ele>
        <time>2019-08-17T11:04:01Z</time>
      </trkpt>
      <trkpt lat="45.04819" lon="5.56988">
        <ele>1537.4</ele>
        <time>2019-08-17T11:04:09Z</time>
      </trkpt>
      <trkpt lat="45.04806" lon="5.56989">
        <ele>1537.8</ele>
        <time>2019-08-17T11:04:15Z</time>
      </trkpt>
      <trkpt lat="45.04793" lon="5.5699">
        <ele>1538</ele>
        <time>2019-08-17T11:04:21Z</time>
      </trkpt>
      <trkpt lat="45.04786" lon="5.56991">
        <ele>1538.2</ele>
        <time>2019-08-17T11:04:24Z</time>
      </trkpt>
      <trkpt lat="45.04775" lon="5.56992">
        <ele>1538.6</ele>
        <time>2019-08-17T11:04:29Z</time>
      </trkpt>
      <trkpt lat="45.0476" lon="5.56997">
        <ele>1539</ele>
        <time>2019-08-17T11:04:36Z</time>
      </trkpt>
      <trkpt lat="45.04752" lon="5.57">
        <ele>1539.2</ele>
        <time>2019-08-17T11:04:40Z</time>
      </trkpt>
      <trkpt lat="45.04742" lon="5.57005">
        <ele>1539.2</ele>
        <time>2019-08-17T11:04:45Z</time>
      </trkpt>
      <trkpt lat="45.04728" lon="5.57016">
        <ele>1539.4</ele>
        <time>2019-08-17T11:04:52Z</time>
      </trkpt>
      <trkpt lat="45.04715" lon="5.57031">
        <ele>1539.4</ele>
        <time>2019-08-17T11:05:00Z</time>
      </trkpt>
      <trkpt lat="45.0471" lon="5.57035">
        <ele>1539.4</ele>
        <time>2019-08-17T11:05:03Z</time>
      </trkpt>
      <trkpt lat="45.04699" lon="5.57045">
        <ele>1539.8</ele>
        <time>2019-08-17T11:05:09Z</time>
      </trkpt>
      <trkpt lat="45.0469" lon="5.57053">
        <ele>1540</ele>
        <time>2019-08-17T11:05:13Z</time>
      </trkpt>
      <trkpt lat="45.04679" lon="5.57062">
        <ele>1540</ele>
        <time>2019-08-17T11:05:18Z</time>
      </trkpt>
      <trkpt lat="45.04669" lon="5.57068">
        <ele>1539.8</ele>
        <time>2019-08-17T11:05:22Z</time>
      </trkpt>
      <trkpt lat="45.04652" lon="5.57082">
        <ele>1539.8</ele>
        <time>2019-08-17T11:05:29Z</time>
      </trkpt>
      <trkpt lat="45.04638" lon="5.57093">
        <ele>1539.8</ele>
        <time>2019-08-17T11:05:35Z</time>
      </trkpt>
      <trkpt lat="45.04632" lon="5.57097">
        <ele>1539.8</ele>
        <time>2019-08-17T11:05:37Z</time>
      </trkpt>
      <trkpt lat="45.04619" lon="5.57109">
        <ele>1539.8</ele>
        <time>2019-08-17T11:05:43Z</time>
      </trkpt>
      <trkpt lat="45.04615" lon="5.57112">
        <ele>1539.8</ele>
        <time>2019-08-17T11:05:45Z</time>
      </trkpt>
      <trkpt lat="45.04605" lon="5.57124">
        <ele>1540.4</ele>
        <time>2019-08-17T11:05:51Z</time>
      </trkpt>
      <trkpt lat="45.04595" lon="5.5714">
        <ele>1540.8</ele>
        <time>2019-08-17T11:05:58Z</time>
      </trkpt>
      <trkpt lat="45.04593" lon="5.57145">
        <ele>1541</ele>
        <time>2019-08-17T11:06:00Z</time>
      </trkpt>
      <trkpt lat="45.04586" lon="5.57159">
        <ele>1541.2</ele>
        <time>2019-08-17T11:06:06Z</time>
      </trkpt>
      <trkpt lat="45.04582" lon="5.57169">
        <ele>1541.4</ele>
        <time>2019-08-17T11:06:10Z</time>
      </trkpt>
      <trkpt lat="45.0458" lon="5.57176">
        <ele>1541.6</ele>
        <time>2019-08-17T11:06:13Z</time>
      </trkpt>
      <trkpt lat="45.04572" lon="5.5719">
        <ele>1542.2</ele>
        <time>2019-08-17T11:06:21Z</time>
      </trkpt>
      <trkpt lat="45.04566" lon="5.57197">
        <ele>1542.8</ele>
        <time>2019-08-17T11:06:28Z</time>
      </trkpt>
      <trkpt lat="45.04559" lon="5.57202">
        <ele>1543.4</ele>
        <time>2019-08-17T11:06:35Z</time>
      </trkpt>
      <trkpt lat="45.04555" lon="5.57201">
        <ele>1543.6</ele>
        <time>2019-08-17T11:06:39Z</time>
      </trkpt>
      <trkpt lat="45.04548" lon="5.57197">
        <ele>1544</ele>
        <time>2019-08-17T11:06:46Z</time>
      </trkpt>
      <trkpt lat="45.04544" lon="5.57186">
        <ele>1544.8</ele>
        <time>2019-08-17T11:06:54Z</time>
      </trkpt>
      <trkpt lat="45.0454" lon="5.5718">
        <ele>1545.4</ele>
        <time>2019-08-17T11:07:00Z</time>
      </trkpt>
      <trkpt lat="45.04537" lon="5.57174">
        <ele>1546.4</ele>
        <time>2019-08-17T11:07:06Z</time>
      </trkpt>
      <trkpt lat="45.0453" lon="5.57162">
        <ele>1547.6</ele>
        <time>2019-08-17T11:07:15Z</time>
      </trkpt>
      <trkpt lat="45.04529" lon="5.57158">
        <ele>1548</ele>
        <time>2019-08-17T11:07:18Z</time>
      </trkpt>
      <trkpt lat="45.04523" lon="5.57151">
        <ele>1549.2</ele>
        <time>2019-08-17T11:07:27Z</time>
      </trkpt>
      <trkpt lat="45.04519" lon="5.57144">
        <ele>1550.2</ele>
        <time>2019-08-17T11:07:54Z</time>
      </trkpt>
      <trkpt lat="45.04516" lon="5.57139">
        <ele>1550</ele>
        <time>2019-08-17T11:08:00Z</time>
      </trkpt>
      <trkpt lat="45.04511" lon="5.57128">
        <ele>1550.4</ele>
        <time>2019-08-17T11:08:11Z</time>
      </trkpt>
      <trkpt lat="45.04508" lon="5.57124">
        <ele>1550.4</ele>
        <time>2019-08-17T11:08:15Z</time>
      </trkpt>
      <trkpt lat="45.04503" lon="5.57116">
        <ele>1551</ele>
        <time>2019-08-17T11:08:23Z</time>
      </trkpt>
      <trkpt lat="45.04498" lon="5.5711">
        <ele>1552.4</ele>
        <time>2019-08-17T11:08:37Z</time>
      </trkpt>
      <trkpt lat="45.04495" lon="5.57101">
        <ele>1553</ele>
        <time>2019-08-17T11:08:43Z</time>
      </trkpt>
      <trkpt lat="45.04488" lon="5.57093">
        <ele>1554</ele>
        <time>2019-08-17T11:08:50Z</time>
      </trkpt>
      <trkpt lat="45.04477" lon="5.5708">
        <ele>1556</ele>
        <time>2019-08-17T11:09:01Z</time>
      </trkpt>
      <trkpt lat="45.04473" lon="5.57076">
        <ele>1556.8</ele>
        <time>2019-08-17T11:09:05Z</time>
      </trkpt>
      <trkpt lat="45.04464" lon="5.57065">
        <ele>1558.8</ele>
        <time>2019-08-17T11:09:14Z</time>
      </trkpt>
      <trkpt lat="45.04459" lon="5.57061">
        <ele>1559.6</ele>
        <time>2019-08-17T11:09:18Z</time>
      </trkpt>
      <trkpt lat="45.04451" lon="5.57056">
        <ele>1560.6</ele>
        <time>2019-08-17T11:09:23Z</time>
      </trkpt>
      <trkpt lat="45.04445" lon="5.57054">
        <ele>1561.4</ele>
        <time>2019-08-17T11:09:27Z</time>
      </trkpt>
      <trkpt lat="45.04439" lon="5.57054">
        <ele>1562</ele>
        <time>2019-08-17T11:09:31Z</time>
      </trkpt>
      <trkpt lat="45.04434" lon="5.57052">
        <ele>1562.6</ele>
        <time>2019-08-17T11:09:35Z</time>
      </trkpt>
      <trkpt lat="45.04421" lon="5.57049">
        <ele>1563.8</ele>
        <time>2019-08-17T11:09:43Z</time>
      </trkpt>
      <trkpt lat="45.04414" lon="5.57041">
        <ele>1564.6</ele>
        <time>2019-08-17T11:09:48Z</time>
      </trkpt>
      <trkpt lat="45.04412" lon="5.57034">
        <ele>1564.8</ele>
        <time>2019-08-17T11:09:51Z</time>
      </trkpt>
      <trkpt lat="45.04406" lon="5.57022">
        <ele>1565.6</ele>
        <time>2019-08-17T11:09:57Z</time>
      </trkpt>
      <trkpt lat="45.04401" lon="5.57011">
        <ele>1566.2</ele>
        <time>2019-08-17T11:10:03Z</time>
      </trkpt>
      <trkpt lat="45.044" lon="5.56998">
        <ele>1566.6</ele>
        <time>2019-08-17T11:12:45Z</time>
      </trkpt>
      <trkpt lat="45.04398" lon="5.56993">
        <ele>1566.6</ele>
        <time>2019-08-17T11:12:48Z</time>
      </trkpt>
      <trkpt lat="45.04395" lon="5.56987">
        <ele>1566.6</ele>
        <time>2019-08-17T11:12:52Z</time>
      </trkpt>
      <trkpt lat="45.04392" lon="5.56976">
        <ele>1566.6</ele>
        <time>2019-08-17T11:12:58Z</time>
      </trkpt>
      <trkpt lat="45.04389" lon="5.5697">
        <ele>1566.8</ele>
        <time>2019-08-17T11:13:02Z</time>
      </trkpt>
      <trkpt lat="45.04386" lon="5.56958">
        <ele>1567.6</ele>
        <time>2019-08-17T11:13:10Z</time>
      </trkpt>
      <trkpt lat="45.0438" lon="5.56959">
        <ele>1568.2</ele>
        <time>2019-08-17T11:13:17Z</time>
      </trkpt>
      <trkpt lat="45.04374" lon="5.56953">
        <ele>1569</ele>
        <time>2019-08-17T11:13:25Z</time>
      </trkpt>
      <trkpt lat="45.04369" lon="5.56954">
        <ele>1569.8</ele>
        <time>2019-08-17T11:13:32Z</time>
      </trkpt>
      <trkpt lat="45.04367" lon="5.56949">
        <ele>1570.4</ele>
        <time>2019-08-17T11:13:36Z</time>
      </trkpt>
      <trkpt lat="45.04356" lon="5.56942">
        <ele>1571.4</ele>
        <time>2019-08-17T11:13:47Z</time>
      </trkpt>
      <trkpt lat="45.04354" lon="5.56938">
        <ele>1571.6</ele>
        <time>2019-08-17T11:13:50Z</time>
      </trkpt>
      <trkpt lat="45.04347" lon="5.56935">
        <ele>1572.2</ele>
        <time>2019-08-17T11:13:57Z</time>
      </trkpt>
      <trkpt lat="45.04342" lon="5.56931">
        <ele>1572.8</ele>
        <time>2019-08-17T11:14:02Z</time>
      </trkpt>
      <trkpt lat="45.04339" lon="5.56927">
        <ele>1573.2</ele>
        <time>2019-08-17T11:14:06Z</time>
      </trkpt>
      <trkpt lat="45.04334" lon="5.56916">
        <ele>1574</ele>
        <time>2019-08-17T11:14:14Z</time>
      </trkpt>
      <trkpt lat="45.04332" lon="5.56909">
        <ele>1574.4</ele>
        <time>2019-08-17T11:14:19Z</time>
      </trkpt>
      <trkpt lat="45.04333" lon="5.569">
        <ele>1575.4</ele>
        <time>2019-08-17T11:14:25Z</time>
      </trkpt>
      <trkpt lat="45.04334" lon="5.56884">
        <ele>1577.2</ele>
        <time>2019-08-17T11:14:35Z</time>
      </trkpt>
      <trkpt lat="45.04334" lon="5.56865">
        <ele>1578.8</ele>
        <time>2019-08-17T11:14:46Z</time>
      </trkpt>
      <trkpt lat="45.04333" lon="5.5686">
        <ele>1579.2</ele>
        <time>2019-08-17T11:14:49Z</time>
      </trkpt>
      <trkpt lat="45.04328" lon="5.56847">
        <ele>1579.8</ele>
        <time>2019-08-17T11:14:58Z</time>
      </trkpt>
      <trkpt lat="45.04321" lon="5.56842">
        <ele>1580.4</ele>
        <time>2019-08-17T11:15:05Z</time>
      </trkpt>
      <trkpt lat="45.04316" lon="5.56841">
        <ele>1580.8</ele>
        <time>2019-08-17T11:15:09Z</time>
      </trkpt>
      <trkpt lat="45.04307" lon="5.56845">
        <ele>1581.6</ele>
        <time>2019-08-17T11:15:19Z</time>
      </trkpt>
      <trkpt lat="45.04297" lon="5.56857">
        <ele>1582.8</ele>
        <time>2019-08-17T11:15:31Z</time>
      </trkpt>
      <trkpt lat="45.04294" lon="5.56859">
        <ele>1583.2</ele>
        <time>2019-08-17T11:15:34Z</time>
      </trkpt>
      <trkpt lat="45.04284" lon="5.56866">
        <ele>1584.8</ele>
        <time>2019-08-17T11:15:45Z</time>
      </trkpt>
      <trkpt lat="45.04281" lon="5.56868">
        <ele>1585.4</ele>
        <time>2019-08-17T11:15:49Z</time>
      </trkpt>
      <trkpt lat="45.04275" lon="5.56875">
        <ele>1586.2</ele>
        <time>2019-08-17T11:15:56Z</time>
      </trkpt>
      <trkpt lat="45.0427" lon="5.56879">
        <ele>1587.2</ele>
        <time>2019-08-17T11:16:02Z</time>
      </trkpt>
      <trkpt lat="45.04262" lon="5.56883">
        <ele>1588.4</ele>
        <time>2019-08-17T11:16:10Z</time>
      </trkpt>
      <trkpt lat="45.04256" lon="5.56885">
        <ele>1589.4</ele>
        <time>2019-08-17T11:16:16Z</time>
      </trkpt>
      <trkpt lat="45.04248" lon="5.56887">
        <ele>1590.8</ele>
        <time>2019-08-17T11:16:23Z</time>
      </trkpt>
      <trkpt lat="45.04242" lon="5.56887">
        <ele>1591.8</ele>
        <time>2019-08-17T11:16:29Z</time>
      </trkpt>
      <trkpt lat="45.04236" lon="5.56891">
        <ele>1593.4</ele>
        <time>2019-08-17T11:16:37Z</time>
      </trkpt>
      <trkpt lat="45.04227" lon="5.56897">
        <ele>1595.6</ele>
        <time>2019-08-17T11:16:47Z</time>
      </trkpt>
      <trkpt lat="45.0422" lon="5.56901">
        <ele>1597.2</ele>
        <time>2019-08-17T11:16:54Z</time>
      </trkpt>
      <trkpt lat="45.04214" lon="5.56905">
        <ele>1598.2</ele>
        <time>2019-08-17T11:17:00Z</time>
      </trkpt>
      <trkpt lat="45.04209" lon="5.56909">
        <ele>1598.8</ele>
        <time>2019-08-17T11:17:05Z</time>
      </trkpt>
      <trkpt lat="45.04203" lon="5.56917">
        <ele>1599.8</ele>
        <time>2019-08-17T11:17:13Z</time>
      </trkpt>
      <trkpt lat="45.04195" lon="5.56927">
        <ele>1600.8</ele>
        <time>2019-08-17T11:17:23Z</time>
      </trkpt>
      <trkpt lat="45.04189" lon="5.56933">
        <ele>1601.6</ele>
        <time>2019-08-17T11:17:30Z</time>
      </trkpt>
      <trkpt lat="45.04182" lon="5.56943">
        <ele>1602.6</ele>
        <time>2019-08-17T11:17:39Z</time>
      </trkpt>
      <trkpt lat="45.04173" lon="5.56942">
        <ele>1603.4</ele>
        <time>2019-08-17T11:17:48Z</time>
      </trkpt>
      <trkpt lat="45.04166" lon="5.56943">
        <ele>1604</ele>
        <time>2019-08-17T11:17:54Z</time>
      </trkpt>
      <trkpt lat="45.04162" lon="5.56945">
        <ele>1604.4</ele>
        <time>2019-08-17T11:17:59Z</time>
      </trkpt>
      <trkpt lat="45.04158" lon="5.56941">
        <ele>1605</ele>
        <time>2019-08-17T11:18:04Z</time>
      </trkpt>
      <trkpt lat="45.04151" lon="5.56936">
        <ele>1605.4</ele>
        <time>2019-08-17T11:18:09Z</time>
      </trkpt>
      <trkpt lat="45.04149" lon="5.56932">
        <ele>1605.4</ele>
        <time>2019-08-17T11:18:12Z</time>
      </trkpt>
      <trkpt lat="45.04142" lon="5.5692">
        <ele>1604.8</ele>
        <time>2019-08-17T11:18:19Z</time>
      </trkpt>
      <trkpt lat="45.04133" lon="5.5691">
        <ele>1604</ele>
        <time>2019-08-17T11:18:26Z</time>
      </trkpt>
      <trkpt lat="45.04127" lon="5.56907">
        <ele>1604</ele>
        <time>2019-08-17T11:18:30Z</time>
      </trkpt>
      <trkpt lat="45.04123" lon="5.56902">
        <ele>1604</ele>
        <time>2019-08-17T11:18:34Z</time>
      </trkpt>
      <trkpt lat="45.04114" lon="5.56896">
        <ele>1604.4</ele>
        <time>2019-08-17T11:18:40Z</time>
      </trkpt>
      <trkpt lat="45.0411" lon="5.56894">
        <ele>1604.6</ele>
        <time>2019-08-17T11:18:43Z</time>
      </trkpt>
      <trkpt lat="45.04104" lon="5.56889">
        <ele>1605</ele>
        <time>2019-08-17T11:18:47Z</time>
      </trkpt>
      <trkpt lat="45.04097" lon="5.56887">
        <ele>1605.4</ele>
        <time>2019-08-17T11:18:52Z</time>
      </trkpt>
      <trkpt lat="45.04093" lon="5.56879">
        <ele>1605.8</ele>
        <time>2019-08-17T11:18:56Z</time>
      </trkpt>
      <trkpt lat="45.04092" lon="5.5687">
        <ele>1606.2</ele>
        <time>2019-08-17T11:19:00Z</time>
      </trkpt>
      <trkpt lat="45.0409" lon="5.5685">
        <ele>1607.2</ele>
        <time>2019-08-17T11:19:09Z</time>
      </trkpt>
      <trkpt lat="45.04089" lon="5.56846">
        <ele>1607.6</ele>
        <time>2019-08-17T11:19:11Z</time>
      </trkpt>
      <trkpt lat="45.04089" lon="5.56823">
        <ele>1608.4</ele>
        <time>2019-08-17T11:19:17Z</time>
      </trkpt>
      <trkpt lat="45.04085" lon="5.56815">
        <ele>1609.4</ele>
        <time>2019-08-17T11:19:21Z</time>
      </trkpt>
      <trkpt lat="45.04082" lon="5.56809">
        <ele>1611.2</ele>
        <time>2019-08-17T11:19:26Z</time>
      </trkpt>
      <trkpt lat="45.04073" lon="5.568">
        <ele>1615</ele>
        <time>2019-08-17T11:19:36Z</time>
      </trkpt>
      <trkpt lat="45.04067" lon="5.56797">
        <ele>1616.6</ele>
        <time>2019-08-17T11:19:40Z</time>
      </trkpt>
      <trkpt lat="45.04057" lon="5.5679">
        <ele>1620.2</ele>
        <time>2019-08-17T11:19:49Z</time>
      </trkpt>
      <trkpt lat="45.0405" lon="5.56786">
        <ele>1622.2</ele>
        <time>2019-08-17T11:19:55Z</time>
      </trkpt>
      <trkpt lat="45.04046" lon="5.5678">
        <ele>1624</ele>
        <time>2019-08-17T11:20:01Z</time>
      </trkpt>
      <trkpt lat="45.04043" lon="5.56775">
        <ele>1624.8</ele>
        <time>2019-08-17T11:20:04Z</time>
      </trkpt>
      <trkpt lat="45.0404" lon="5.56767">
        <ele>1626.2</ele>
        <time>2019-08-17T11:20:09Z</time>
      </trkpt>
      <trkpt lat="45.04035" lon="5.56759">
        <ele>1627.4</ele>
        <time>2019-08-17T11:20:13Z</time>
      </trkpt>
      <trkpt lat="45.04039" lon="5.56766">
        <ele>1630.6</ele>
        <time>2019-08-17T11:20:39Z</time>
      </trkpt>
      <trkpt lat="45.04044" lon="5.56778">
        <ele>1631.2</ele>
        <time>2019-08-17T11:20:45Z</time>
      </trkpt>
      <trkpt lat="45.04049" lon="5.56783">
        <ele>1631.4</ele>
        <time>2019-08-17T11:20:47Z</time>
      </trkpt>
      <trkpt lat="45.0407" lon="5.56796">
        <ele>1632.4</ele>
        <time>2019-08-17T11:20:53Z</time>
      </trkpt>
      <trkpt lat="45.04075" lon="5.56801">
        <ele>1632.8</ele>
        <time>2019-08-17T11:20:55Z</time>
      </trkpt>
      <trkpt lat="45.04085" lon="5.56817">
        <ele>1633.6</ele>
        <time>2019-08-17T11:20:59Z</time>
      </trkpt>
      <trkpt lat="45.04086" lon="5.56822">
        <ele>1633.8</ele>
        <time>2019-08-17T11:21:00Z</time>
      </trkpt>
      <trkpt lat="45.04087" lon="5.56845">
        <ele>1635.6</ele>
        <time>2019-08-17T11:21:07Z</time>
      </trkpt>
      <trkpt lat="45.04089" lon="5.5685">
        <ele>1633</ele>
        <time>2019-08-17T11:22:09Z</time>
      </trkpt>
      <trkpt lat="45.04095" lon="5.56859">
        <ele>1633</ele>
        <time>2019-08-17T11:22:11Z</time>
      </trkpt>
      <trkpt lat="45.0411" lon="5.56876">
        <ele>1632.4</ele>
        <time>2019-08-17T11:22:15Z</time>
      </trkpt>
      <trkpt lat="45.04122" lon="5.56888">
        <ele>1631.8</ele>
        <time>2019-08-17T11:23:04Z</time>
      </trkpt>
      <trkpt lat="45.04129" lon="5.56893">
        <ele>1631.4</ele>
        <time>2019-08-17T11:23:07Z</time>
      </trkpt>
      <trkpt lat="45.04139" lon="5.56897">
        <ele>1631.2</ele>
        <time>2019-08-17T11:23:10Z</time>
      </trkpt>
      <trkpt lat="45.04144" lon="5.56897">
        <ele>1631</ele>
        <time>2019-08-17T11:23:11Z</time>
      </trkpt>
      <trkpt lat="45.04173" lon="5.56896">
        <ele>1631.4</ele>
        <time>2019-08-17T11:23:16Z</time>
      </trkpt>
      <trkpt lat="45.0419" lon="5.56893">
        <ele>1631.8</ele>
        <time>2019-08-17T11:23:19Z</time>
      </trkpt>
      <trkpt lat="45.04196" lon="5.5689">
        <ele>1631.8</ele>
        <time>2019-08-17T11:23:20Z</time>
      </trkpt>
      <trkpt lat="45.04213" lon="5.56876">
        <ele>1632</ele>
        <time>2019-08-17T11:23:24Z</time>
      </trkpt>
      <trkpt lat="45.04218" lon="5.56874">
        <ele>1632</ele>
        <time>2019-08-17T11:23:25Z</time>
      </trkpt>
      <trkpt lat="45.04237" lon="5.56873">
        <ele>1632.2</ele>
        <time>2019-08-17T11:23:29Z</time>
      </trkpt>
      <trkpt lat="45.0424" lon="5.56867">
        <ele>1632.4</ele>
        <time>2019-08-17T11:23:31Z</time>
      </trkpt>
      <trkpt lat="45.04236" lon="5.56857">
        <ele>1634</ele>
        <time>2019-08-17T11:24:25Z</time>
      </trkpt>
      <trkpt lat="45.04242" lon="5.56852">
        <ele>1633.6</ele>
        <time>2019-08-17T11:24:27Z</time>
      </trkpt>
      <trkpt lat="45.04248" lon="5.5685">
        <ele>1633.4</ele>
        <time>2019-08-17T11:24:29Z</time>
      </trkpt>
      <trkpt lat="45.04253" lon="5.56844">
        <ele>1633.2</ele>
        <time>2019-08-17T11:24:31Z</time>
      </trkpt>
      <trkpt lat="45.04261" lon="5.56839">
        <ele>1632.8</ele>
        <time>2019-08-17T11:24:34Z</time>
      </trkpt>
      <trkpt lat="45.04265" lon="5.56837">
        <ele>1632.8</ele>
        <time>2019-08-17T11:24:35Z</time>
      </trkpt>
      <trkpt lat="45.04281" lon="5.56836">
        <ele>1632.6</ele>
        <time>2019-08-17T11:24:39Z</time>
      </trkpt>
      <trkpt lat="45.04288" lon="5.56827">
        <ele>1632.4</ele>
        <time>2019-08-17T11:24:42Z</time>
      </trkpt>
      <trkpt lat="45.04294" lon="5.56825">
        <ele>1632.2</ele>
        <time>2019-08-17T11:24:44Z</time>
      </trkpt>
      <trkpt lat="45.04299" lon="5.56822">
        <ele>1632.2</ele>
        <time>2019-08-17T11:24:45Z</time>
      </trkpt>
      <trkpt lat="45.0431" lon="5.56812">
        <ele>1631.8</ele>
        <time>2019-08-17T11:24:49Z</time>
      </trkpt>
      <trkpt lat="45.04316" lon="5.5681">
        <ele>1631.4</ele>
        <time>2019-08-17T11:24:51Z</time>
      </trkpt>
      <trkpt lat="45.04317" lon="5.56805">
        <ele>1631</ele>
        <time>2019-08-17T11:24:54Z</time>
      </trkpt>
      <trkpt lat="45.0431" lon="5.56799">
        <ele>1630.6</ele>
        <time>2019-08-17T11:24:57Z</time>
      </trkpt>
      <trkpt lat="45.0429" lon="5.5677">
        <ele>1629.2</ele>
        <time>2019-08-17T11:25:02Z</time>
      </trkpt>
      <trkpt lat="45.04272" lon="5.56757">
        <ele>1628</ele>
        <time>2019-08-17T11:25:05Z</time>
      </trkpt>
      <trkpt lat="45.04246" lon="5.56732">
        <ele>1626.4</ele>
        <time>2019-08-17T11:25:11Z</time>
      </trkpt>
      <trkpt lat="45.04252" lon="5.56725">
        <ele>1624.4</ele>
        <time>2019-08-17T11:25:16Z</time>
      </trkpt>
      <trkpt lat="45.04277" lon="5.56728">
        <ele>1623.2</ele>
        <time>2019-08-17T11:25:22Z</time>
      </trkpt>
      <trkpt lat="45.04281" lon="5.56725">
        <ele>1622.6</ele>
        <time>2019-08-17T11:25:25Z</time>
      </trkpt>
      <trkpt lat="45.04276" lon="5.56709">
        <ele>1621.4</ele>
        <time>2019-08-17T11:25:30Z</time>
      </trkpt>
      <trkpt lat="45.04272" lon="5.56702">
        <ele>1620.8</ele>
        <time>2019-08-17T11:25:32Z</time>
      </trkpt>
      <trkpt lat="45.04264" lon="5.56696">
        <ele>1620.2</ele>
        <time>2019-08-17T11:25:35Z</time>
      </trkpt>
      <trkpt lat="45.04269" lon="5.56686">
        <ele>1619</ele>
        <time>2019-08-17T11:25:39Z</time>
      </trkpt>
      <trkpt lat="45.04287" lon="5.56685">
        <ele>1618.2</ele>
        <time>2019-08-17T11:25:43Z</time>
      </trkpt>
      <trkpt lat="45.04304" lon="5.56679">
        <ele>1617</ele>
        <time>2019-08-17T11:25:48Z</time>
      </trkpt>
      <trkpt lat="45.04312" lon="5.56678">
        <ele>1616</ele>
        <time>2019-08-17T11:25:52Z</time>
      </trkpt>
      <trkpt lat="45.0431" lon="5.56673">
        <ele>1615.4</ele>
        <time>2019-08-17T11:25:55Z</time>
      </trkpt>
      <trkpt lat="45.04303" lon="5.5667">
        <ele>1614.8</ele>
        <time>2019-08-17T11:25:58Z</time>
      </trkpt>
      <trkpt lat="45.04297" lon="5.56664">
        <ele>1614.2</ele>
        <time>2019-08-17T11:26:02Z</time>
      </trkpt>
      <trkpt lat="45.04292" lon="5.56654">
        <ele>1611</ele>
        <time>2019-08-17T11:26:25Z</time>
      </trkpt>
      <trkpt lat="45.04299" lon="5.56651">
        <ele>1609.8</ele>
        <time>2019-08-17T11:26:29Z</time>
      </trkpt>
      <trkpt lat="45.04305" lon="5.56653">
        <ele>1609.4</ele>
        <time>2019-08-17T11:26:31Z</time>
      </trkpt>
      <trkpt lat="45.04313" lon="5.5665">
        <ele>1608.6</ele>
        <time>2019-08-17T11:26:34Z</time>
      </trkpt>
      <trkpt lat="45.04319" lon="5.56646">
        <ele>1607.6</ele>
        <time>2019-08-17T11:26:38Z</time>
      </trkpt>
      <trkpt lat="45.04323" lon="5.56638">
        <ele>1606.8</ele>
        <time>2019-08-17T11:26:41Z</time>
      </trkpt>
      <trkpt lat="45.04326" lon="5.56629">
        <ele>1606.2</ele>
        <time>2019-08-17T11:26:44Z</time>
      </trkpt>
      <trkpt lat="45.04324" lon="5.56622">
        <ele>1605.4</ele>
        <time>2019-08-17T11:26:47Z</time>
      </trkpt>
      <trkpt lat="45.04318" lon="5.56612">
        <ele>1604.8</ele>
        <time>2019-08-17T11:26:50Z</time>
      </trkpt>
      <trkpt lat="45.04316" lon="5.56605">
        <ele>1604.2</ele>
        <time>2019-08-17T11:26:52Z</time>
      </trkpt>
      <trkpt lat="45.04317" lon="5.56597">
        <ele>1603.8</ele>
        <time>2019-08-17T11:26:54Z</time>
      </trkpt>
      <trkpt lat="45.0432" lon="5.5659">
        <ele>1603.2</ele>
        <time>2019-08-17T11:26:56Z</time>
      </trkpt>
      <trkpt lat="45.04326" lon="5.56588">
        <ele>1602.6</ele>
        <time>2019-08-17T11:26:58Z</time>
      </trkpt>
      <trkpt lat="45.0435" lon="5.56595">
        <ele>1601.2</ele>
        <time>2019-08-17T11:27:05Z</time>
      </trkpt>
      <trkpt lat="45.04354" lon="5.56595">
        <ele>1600.6</ele>
        <time>2019-08-17T11:27:07Z</time>
      </trkpt>
      <trkpt lat="45.04362" lon="5.56589">
        <ele>1597.6</ele>
        <time>2019-08-17T11:27:23Z</time>
      </trkpt>
      <trkpt lat="45.04365" lon="5.56588">
        <ele>1597.6</ele>
        <time>2019-08-17T11:27:24Z</time>
      </trkpt>
      <trkpt lat="45.04376" lon="5.56587">
        <ele>1597</ele>
        <time>2019-08-17T11:27:27Z</time>
      </trkpt>
      <trkpt lat="45.04383" lon="5.56579">
        <ele>1596.2</ele>
        <time>2019-08-17T11:27:30Z</time>
      </trkpt>
      <trkpt lat="45.04371" lon="5.5657">
        <ele>1595.2</ele>
        <time>2019-08-17T11:27:34Z</time>
      </trkpt>
      <trkpt lat="45.04361" lon="5.56556">
        <ele>1594.4</ele>
        <time>2019-08-17T11:27:37Z</time>
      </trkpt>
      <trkpt lat="45.04357" lon="5.56552">
        <ele>1594.2</ele>
        <time>2019-08-17T11:27:38Z</time>
      </trkpt>
      <trkpt lat="45.04348" lon="5.56545">
        <ele>1593.8</ele>
        <time>2019-08-17T11:27:40Z</time>
      </trkpt>
      <trkpt lat="45.04347" lon="5.56538">
        <ele>1593</ele>
        <time>2019-08-17T11:27:43Z</time>
      </trkpt>
      <trkpt lat="45.04356" lon="5.56539">
        <ele>1592.4</ele>
        <time>2019-08-17T11:27:45Z</time>
      </trkpt>
      <trkpt lat="45.04365" lon="5.56537">
        <ele>1591.8</ele>
        <time>2019-08-17T11:27:47Z</time>
      </trkpt>
      <trkpt lat="45.04373" lon="5.56534">
        <ele>1591.2</ele>
        <time>2019-08-17T11:27:49Z</time>
      </trkpt>
      <trkpt lat="45.04395" lon="5.56533">
        <ele>1590</ele>
        <time>2019-08-17T11:27:53Z</time>
      </trkpt>
      <trkpt lat="45.04407" lon="5.56529">
        <ele>1589.6</ele>
        <time>2019-08-17T11:27:55Z</time>
      </trkpt>
      <trkpt lat="45.04415" lon="5.56523">
        <ele>1589</ele>
        <time>2019-08-17T11:27:57Z</time>
      </trkpt>
      <trkpt lat="45.0442" lon="5.56515">
        <ele>1588.4</ele>
        <time>2019-08-17T11:27:59Z</time>
      </trkpt>
      <trkpt lat="45.04419" lon="5.56508">
        <ele>1587.8</ele>
        <time>2019-08-17T11:28:01Z</time>
      </trkpt>
      <trkpt lat="45.04408" lon="5.56499">
        <ele>1587</ele>
        <time>2019-08-17T11:28:04Z</time>
      </trkpt>
      <trkpt lat="45.0439" lon="5.56476">
        <ele>1585.2</ele>
        <time>2019-08-17T11:28:09Z</time>
      </trkpt>
      <trkpt lat="45.04364" lon="5.56452">
        <ele>1583.4</ele>
        <time>2019-08-17T11:28:14Z</time>
      </trkpt>
      <trkpt lat="45.04361" lon="5.56448">
        <ele>1583</ele>
        <time>2019-08-17T11:28:15Z</time>
      </trkpt>
      <trkpt lat="45.0436" lon="5.56437">
        <ele>1582</ele>
        <time>2019-08-17T11:28:17Z</time>
      </trkpt>
      <trkpt lat="45.04366" lon="5.56436">
        <ele>1580.8</ele>
        <time>2019-08-17T11:28:19Z</time>
      </trkpt>
      <trkpt lat="45.04373" lon="5.56432">
        <ele>1579.6</ele>
        <time>2019-08-17T11:28:21Z</time>
      </trkpt>
      <trkpt lat="45.04376" lon="5.56431">
        <ele>1579</ele>
        <time>2019-08-17T11:28:22Z</time>
      </trkpt>
      <trkpt lat="45.04397" lon="5.56436">
        <ele>1576.4</ele>
        <time>2019-08-17T11:28:27Z</time>
      </trkpt>
      <trkpt lat="45.0441" lon="5.56435">
        <ele>1574.8</ele>
        <time>2019-08-17T11:28:30Z</time>
      </trkpt>
      <trkpt lat="45.04418" lon="5.56437">
        <ele>1573.8</ele>
        <time>2019-08-17T11:28:32Z</time>
      </trkpt>
      <trkpt lat="45.04423" lon="5.56432">
        <ele>1572.2</ele>
        <time>2019-08-17T11:28:35Z</time>
      </trkpt>
      <trkpt lat="45.04421" lon="5.56426">
        <ele>1571.2</ele>
        <time>2019-08-17T11:28:37Z</time>
      </trkpt>
      <trkpt lat="45.04412" lon="5.56412">
        <ele>1569.8</ele>
        <time>2019-08-17T11:28:40Z</time>
      </trkpt>
      <trkpt lat="45.04388" lon="5.56386">
        <ele>1566.8</ele>
        <time>2019-08-17T11:28:46Z</time>
      </trkpt>
      <trkpt lat="45.04394" lon="5.56379">
        <ele>1564.2</ele>
        <time>2019-08-17T11:28:50Z</time>
      </trkpt>
      <trkpt lat="45.04413" lon="5.56388">
        <ele>1560.4</ele>
        <time>2019-08-17T11:28:56Z</time>
      </trkpt>
      <trkpt lat="45.04416" lon="5.56391">
        <ele>1559.4</ele>
        <time>2019-08-17T11:28:58Z</time>
      </trkpt>
      <trkpt lat="45.04425" lon="5.56391">
        <ele>1550.2</ele>
        <time>2019-08-17T11:29:29Z</time>
      </trkpt>
      <trkpt lat="45.0444" lon="5.56396">
        <ele>1549.8</ele>
        <time>2019-08-17T11:29:32Z</time>
      </trkpt>
      <trkpt lat="45.04461" lon="5.56399">
        <ele>1548.4</ele>
        <time>2019-08-17T11:29:35Z</time>
      </trkpt>
      <trkpt lat="45.04472" lon="5.56398">
        <ele>1546.6</ele>
        <time>2019-08-17T11:29:38Z</time>
      </trkpt>
      <trkpt lat="45.04475" lon="5.56395">
        <ele>1540.4</ele>
        <time>2019-08-17T11:29:59Z</time>
      </trkpt>
      <trkpt lat="45.04469" lon="5.56389">
        <ele>1539.6</ele>
        <time>2019-08-17T11:30:02Z</time>
      </trkpt>
      <trkpt lat="45.04467" lon="5.56387">
        <ele>1539.4</ele>
        <time>2019-08-17T11:30:03Z</time>
      </trkpt>
      <trkpt lat="45.04462" lon="5.56374">
        <ele>1538</ele>
        <time>2019-08-17T11:30:06Z</time>
      </trkpt>
      <trkpt lat="45.0445" lon="5.56352">
        <ele>1536</ele>
        <time>2019-08-17T11:30:10Z</time>
      </trkpt>
      <trkpt lat="45.04447" lon="5.56341">
        <ele>1534.2</ele>
        <time>2019-08-17T11:30:13Z</time>
      </trkpt>
      <trkpt lat="45.04451" lon="5.56338">
        <ele>1532.4</ele>
        <time>2019-08-17T11:30:16Z</time>
      </trkpt>
      <trkpt lat="45.04456" lon="5.56332">
        <ele>1531.2</ele>
        <time>2019-08-17T11:30:18Z</time>
      </trkpt>
      <trkpt lat="45.04458" lon="5.56326">
        <ele>1530.6</ele>
        <time>2019-08-17T11:30:19Z</time>
      </trkpt>
      <trkpt lat="45.04456" lon="5.56319">
        <ele>1530</ele>
        <time>2019-08-17T11:30:20Z</time>
      </trkpt>
      <trkpt lat="45.04449" lon="5.56302">
        <ele>1528.4</ele>
        <time>2019-08-17T11:30:22Z</time>
      </trkpt>
      <trkpt lat="45.04445" lon="5.56296">
        <ele>1527.6</ele>
        <time>2019-08-17T11:30:23Z</time>
      </trkpt>
      <trkpt lat="45.04447" lon="5.56287">
        <ele>1524.6</ele>
        <time>2019-08-17T11:30:26Z</time>
      </trkpt>
      <trkpt lat="45.04456" lon="5.56296">
        <ele>1522.4</ele>
        <time>2019-08-17T11:30:28Z</time>
      </trkpt>
      <trkpt lat="45.04466" lon="5.56304">
        <ele>1520.6</ele>
        <time>2019-08-17T11:30:30Z</time>
      </trkpt>
      <trkpt lat="45.04472" lon="5.56306">
        <ele>1519.2</ele>
        <time>2019-08-17T11:30:31Z</time>
      </trkpt>
      <trkpt lat="45.04477" lon="5.56307">
        <ele>1518.2</ele>
        <time>2019-08-17T11:30:32Z</time>
      </trkpt>
      <trkpt lat="45.0448" lon="5.56302">
        <ele>1517</ele>
        <time>2019-08-17T11:30:33Z</time>
      </trkpt>
      <trkpt lat="45.0448" lon="5.56294">
        <ele>1515.8</ele>
        <time>2019-08-17T11:30:34Z</time>
      </trkpt>
      <trkpt lat="45.0447" lon="5.56275">
        <ele>1511.8</ele>
        <time>2019-08-17T11:30:37Z</time>
      </trkpt>
      <trkpt lat="45.04467" lon="5.56262">
        <ele>1509.2</ele>
        <time>2019-08-17T11:30:39Z</time>
      </trkpt>
      <trkpt lat="45.04467" lon="5.56255">
        <ele>1508</ele>
        <time>2019-08-17T11:30:40Z</time>
      </trkpt>
      <trkpt lat="45.04473" lon="5.56248">
        <ele>1505.4</ele>
        <time>2019-08-17T11:30:42Z</time>
      </trkpt>
      <trkpt lat="45.0449" lon="5.56254">
        <ele>1501.8</ele>
        <time>2019-08-17T11:30:45Z</time>
      </trkpt>
      <trkpt lat="45.04496" lon="5.56255">
        <ele>1500.6</ele>
        <time>2019-08-17T11:30:46Z</time>
      </trkpt>
      <trkpt lat="45.04508" lon="5.56247">
        <ele>1498.4</ele>
        <time>2019-08-17T11:30:48Z</time>
      </trkpt>
      <trkpt lat="45.04535" lon="5.56211">
        <ele>1490.4</ele>
        <time>2019-08-17T11:30:54Z</time>
      </trkpt>
      <trkpt lat="45.04541" lon="5.56204">
        <ele>1489.2</ele>
        <time>2019-08-17T11:30:55Z</time>
      </trkpt>
      <trkpt lat="45.04577" lon="5.56171">
        <ele>1483</ele>
        <time>2019-08-17T11:31:00Z</time>
      </trkpt>
      <trkpt lat="45.0458" lon="5.56166">
        <ele>1481.8</ele>
        <time>2019-08-17T11:31:01Z</time>
      </trkpt>
      <trkpt lat="45.04529" lon="5.56151">
        <ele>1185.8</ele>
      </trkpt>
      <trkpt lat="45.04529" lon="5.56151">
        <ele>1185.8</ele>
      </trkpt>
      <trkpt lat="45.04519" lon="5.56146">
        <ele>1184.3</ele>
      </trkpt>
      <trkpt lat="45.04519" lon="5.56146">
        <ele>1184.3</ele>
      </trkpt>
      <trkpt lat="45.04514" lon="5.56137">
        <ele>1182.3</ele>
      </trkpt>
      <trkpt lat="45.04514" lon="5.56137">
        <ele>1182.3</ele>
      </trkpt>
      <trkpt lat="45.04508" lon="5.56126">
        <ele>1180</ele>
      </trkpt>
      <trkpt lat="45.04508" lon="5.56126">
        <ele>1180</ele>
      </trkpt>
      <trkpt lat="45.04509" lon="5.56101">
        <ele>1176.1</ele>
      </trkpt>
      <trkpt lat="45.04509" lon="5.56101">
        <ele>1176.1</ele>
      </trkpt>
      <trkpt lat="45.04525" lon="5.56061">
        <ele>1171.9</ele>
      </trkpt>
      <trkpt lat="45.04545" lon="5.55993">
        <ele>1163.2</ele>
      </trkpt>
      <trkpt lat="45.04552" lon="5.55973">
        <ele>1161.1</ele>
      </trkpt>
      <trkpt lat="45.04555" lon="5.55974">
        <ele>1161.6</ele>
      </trkpt>
      <trkpt lat="45.04623" lon="5.55818">
        <ele>1158.1</ele>
      </trkpt>
      <trkpt lat="45.04625" lon="5.55792">
        <ele>1156.5</ele>
      </trkpt>
      <trkpt lat="45.04621" lon="5.5571">
        <ele>1145.6</ele>
      </trkpt>
      <trkpt lat="45.04627" lon="5.55714">
        <ele>1147.2</ele>
      </trkpt>
      <trkpt lat="45.04667" lon="5.55714">
        <ele>1153.9</ele>
      </trkpt>
      <trkpt lat="45.04667" lon="5.55714">
        <ele>1153.9</ele>
      </trkpt>
      <trkpt lat="45.04704" lon="5.55726">
        <ele>1154.3</ele>
      </trkpt>
      <trkpt lat="45.04704" lon="5.55726">
        <ele>1154.3</ele>
      </trkpt>
      <trkpt lat="45.04806" lon="5.55719">
        <ele>1151</ele>
      </trkpt>
      <trkpt lat="45.04806" lon="5.55719">
        <ele>1151</ele>
      </trkpt>
      <trkpt lat="45.04889" lon="5.55784">
        <ele>1159.9</ele>
      </trkpt>
      <trkpt lat="45.04889" lon="5.55784">
        <ele>1159.9</ele>
      </trkpt>
      <trkpt lat="45.04943" lon="5.55808">
        <ele>1164.9</ele>
      </trkpt>
      <trkpt lat="45.04943" lon="5.55808">
        <ele>1164.9</ele>
      </trkpt>
      <trkpt lat="45.04967" lon="5.55784">
        <ele>1165.9</ele>
      </trkpt>
      <trkpt lat="45.04967" lon="5.55784">
        <ele>1165.9</ele>
      </trkpt>
      <trkpt lat="45.04969" lon="5.5577">
        <ele>1165.4</ele>
      </trkpt>
      <trkpt lat="45.04969" lon="5.5577">
        <ele>1165.4</ele>
      </trkpt>
      <trkpt lat="45.04974" lon="5.5576">
        <ele>1360</ele>
        <time>2019-08-17T11:32:59Z</time>
      </trkpt>
      <trkpt lat="45.04973" lon="5.55739">
        <ele>1356.8</ele>
        <time>2019-08-17T11:33:03Z</time>
      </trkpt>
      <trkpt lat="45.04972" lon="5.5573">
        <ele>1355.2</ele>
        <time>2019-08-17T11:33:05Z</time>
      </trkpt>
      <trkpt lat="45.0497" lon="5.55706">
        <ele>1350.6</ele>
        <time>2019-08-17T11:33:11Z</time>
      </trkpt>
      <trkpt lat="45.0497" lon="5.55703">
        <ele>1349.8</ele>
        <time>2019-08-17T11:33:12Z</time>
      </trkpt>
      <trkpt lat="45.04971" lon="5.55688">
        <ele>1346.4</ele>
        <time>2019-08-17T11:33:16Z</time>
      </trkpt>
      <trkpt lat="45.0497" lon="5.5567">
        <ele>1342.2</ele>
        <time>2019-08-17T11:33:21Z</time>
      </trkpt>
      <trkpt lat="45.04971" lon="5.55653">
        <ele>1337.8</ele>
        <time>2019-08-17T11:33:26Z</time>
      </trkpt>
      <trkpt lat="45.04971" lon="5.55642">
        <ele>1335.4</ele>
        <time>2019-08-17T11:33:29Z</time>
      </trkpt>
      <trkpt lat="45.04971" lon="5.55618">
        <ele>1330</ele>
        <time>2019-08-17T11:33:36Z</time>
      </trkpt>
      <trkpt lat="45.04969" lon="5.55598">
        <ele>1326</ele>
        <time>2019-08-17T11:33:42Z</time>
      </trkpt>
      <trkpt lat="45.04967" lon="5.55584">
        <ele>1323.4</ele>
        <time>2019-08-17T11:33:46Z</time>
      </trkpt>
      <trkpt lat="45.04964" lon="5.55561">
        <ele>1319.2</ele>
        <time>2019-08-17T11:33:53Z</time>
      </trkpt>
      <trkpt lat="45.04964" lon="5.55555">
        <ele>1318</ele>
        <time>2019-08-17T11:33:55Z</time>
      </trkpt>
      <trkpt lat="45.04965" lon="5.55546">
        <ele>1316.4</ele>
        <time>2019-08-17T11:33:58Z</time>
      </trkpt>
      <trkpt lat="45.04968" lon="5.55541">
        <ele>1315.4</ele>
        <time>2019-08-17T11:34:00Z</time>
      </trkpt>
      <trkpt lat="45.04975" lon="5.55537">
        <ele>1313.8</ele>
        <time>2019-08-17T11:34:03Z</time>
      </trkpt>
      <trkpt lat="45.04981" lon="5.55541">
        <ele>1313</ele>
        <time>2019-08-17T11:34:06Z</time>
      </trkpt>
      <trkpt lat="45.04987" lon="5.55561">
        <ele>1309.8</ele>
        <time>2019-08-17T11:34:13Z</time>
      </trkpt>
      <trkpt lat="45.04988" lon="5.5557">
        <ele>1308.2</ele>
        <time>2019-08-17T11:34:16Z</time>
      </trkpt>
      <trkpt lat="45.0499" lon="5.55587">
        <ele>1305.4</ele>
        <time>2019-08-17T11:34:22Z</time>
      </trkpt>
      <trkpt lat="45.04992" lon="5.55596">
        <ele>1303.8</ele>
        <time>2019-08-17T11:34:25Z</time>
      </trkpt>
      <trkpt lat="45.04992" lon="5.55602">
        <ele>1302.8</ele>
        <time>2019-08-17T11:34:27Z</time>
      </trkpt>
      <trkpt lat="45.04993" lon="5.55611">
        <ele>1301.2</ele>
        <time>2019-08-17T11:34:30Z</time>
      </trkpt>
      <trkpt lat="45.04995" lon="5.5562">
        <ele>1299.6</ele>
        <time>2019-08-17T11:34:33Z</time>
      </trkpt>
      <trkpt lat="45.05002" lon="5.55639">
        <ele>1295.8</ele>
        <time>2019-08-17T11:34:40Z</time>
      </trkpt>
      <trkpt lat="45.05006" lon="5.55651">
        <ele>1294</ele>
        <time>2019-08-17T11:34:44Z</time>
      </trkpt>
      <trkpt lat="45.05013" lon="5.55669">
        <ele>1291</ele>
        <time>2019-08-17T11:34:51Z</time>
      </trkpt>
      <trkpt lat="45.05018" lon="5.55685">
        <ele>1288.6</ele>
        <time>2019-08-17T11:34:57Z</time>
      </trkpt>
      <trkpt lat="45.05021" lon="5.55693">
        <ele>1287.6</ele>
        <time>2019-08-17T11:35:00Z</time>
      </trkpt>
      <trkpt lat="45.05029" lon="5.55712">
        <ele>1285.2</ele>
        <time>2019-08-17T11:35:07Z</time>
      </trkpt>
      <trkpt lat="45.05031" lon="5.55718">
        <ele>1284.4</ele>
        <time>2019-08-17T11:35:09Z</time>
      </trkpt>
      <trkpt lat="45.05039" lon="5.55737">
        <ele>1282.8</ele>
        <time>2019-08-17T11:35:16Z</time>
      </trkpt>
      <trkpt lat="45.05042" lon="5.55748">
        <ele>1282</ele>
        <time>2019-08-17T11:35:20Z</time>
      </trkpt>
      <trkpt lat="45.05044" lon="5.55754">
        <ele>1282</ele>
        <time>2019-08-17T11:35:22Z</time>
      </trkpt>
      <trkpt lat="45.05048" lon="5.55774">
        <ele>1281.8</ele>
        <time>2019-08-17T11:35:29Z</time>
      </trkpt>
      <trkpt lat="45.05049" lon="5.55786">
        <ele>1281.4</ele>
        <time>2019-08-17T11:35:33Z</time>
      </trkpt>
      <trkpt lat="45.05052" lon="5.55805">
        <ele>1282</ele>
        <time>2019-08-17T11:35:39Z</time>
      </trkpt>
      <trkpt lat="45.05054" lon="5.55825">
        <ele>1282.4</ele>
        <time>2019-08-17T11:35:46Z</time>
      </trkpt>
      <trkpt lat="45.05054" lon="5.5585">
        <ele>1282.6</ele>
        <time>2019-08-17T11:35:54Z</time>
      </trkpt>
      <trkpt lat="45.05055" lon="5.55862">
        <ele>1282.8</ele>
        <time>2019-08-17T11:35:58Z</time>
      </trkpt>
      <trkpt lat="45.05055" lon="5.55881">
        <ele>1283.4</ele>
        <time>2019-08-17T11:36:04Z</time>
      </trkpt>
      <trkpt lat="45.05057" lon="5.55891">
        <ele>1283.8</ele>
        <time>2019-08-17T11:36:07Z</time>
      </trkpt>
      <trkpt lat="45.0506" lon="5.55896">
        <ele>1283.8</ele>
        <time>2019-08-17T11:36:09Z</time>
      </trkpt>
      <trkpt lat="45.05066" lon="5.55901">
        <ele>1284.2</ele>
        <time>2019-08-17T11:36:12Z</time>
      </trkpt>
      <trkpt lat="45.05076" lon="5.55898">
        <ele>1285.2</ele>
        <time>2019-08-17T11:36:16Z</time>
      </trkpt>
      <trkpt lat="45.05079" lon="5.55893">
        <ele>1285.8</ele>
        <time>2019-08-17T11:36:18Z</time>
      </trkpt>
      <trkpt lat="45.05082" lon="5.55887">
        <ele>1286.2</ele>
        <time>2019-08-17T11:36:20Z</time>
      </trkpt>
      <trkpt lat="45.05084" lon="5.5588">
        <ele>1286.6</ele>
        <time>2019-08-17T11:36:22Z</time>
      </trkpt>
      <trkpt lat="45.05084" lon="5.55872">
        <ele>1287</ele>
        <time>2019-08-17T11:36:24Z</time>
      </trkpt>
      <trkpt lat="45.05083" lon="5.55862">
        <ele>1287.8</ele>
        <time>2019-08-17T11:36:27Z</time>
      </trkpt>
      <trkpt lat="45.05081" lon="5.55855">
        <ele>1288.4</ele>
        <time>2019-08-17T11:36:29Z</time>
      </trkpt>
      <trkpt lat="45.05079" lon="5.55842">
        <ele>1289.6</ele>
        <time>2019-08-17T11:36:33Z</time>
      </trkpt>
      <trkpt lat="45.05078" lon="5.55839">
        <ele>1290</ele>
        <time>2019-08-17T11:36:34Z</time>
      </trkpt>
      <trkpt lat="45.05076" lon="5.55815">
        <ele>1292.4</ele>
        <time>2019-08-17T11:36:41Z</time>
      </trkpt>
      <trkpt lat="45.05075" lon="5.55812">
        <ele>1292.8</ele>
        <time>2019-08-17T11:36:42Z</time>
      </trkpt>
      <trkpt lat="45.05075" lon="5.558">
        <ele>1294.2</ele>
        <time>2019-08-17T11:36:46Z</time>
      </trkpt>
      <trkpt lat="45.05073" lon="5.55778">
        <ele>1297</ele>
        <time>2019-08-17T11:36:53Z</time>
      </trkpt>
      <trkpt lat="45.05073" lon="5.55772">
        <ele>1297.8</ele>
        <time>2019-08-17T11:36:55Z</time>
      </trkpt>
      <trkpt lat="45.05073" lon="5.55758">
        <ele>1300</ele>
        <time>2019-08-17T11:37:00Z</time>
      </trkpt>
      <trkpt lat="45.05071" lon="5.55735">
        <ele>1303.8</ele>
        <time>2019-08-17T11:37:08Z</time>
      </trkpt>
      <trkpt lat="45.05071" lon="5.5573">
        <ele>1304.6</ele>
        <time>2019-08-17T11:37:10Z</time>
      </trkpt>
      <trkpt lat="45.05071" lon="5.55718">
        <ele>1306.4</ele>
        <time>2019-08-17T11:37:14Z</time>
      </trkpt>
      <trkpt lat="45.05073" lon="5.557">
        <ele>1308.8</ele>
        <time>2019-08-17T11:37:20Z</time>
      </trkpt>
      <trkpt lat="45.05078" lon="5.55692">
        <ele>1310.4</ele>
        <time>2019-08-17T11:37:24Z</time>
      </trkpt>
      <trkpt lat="45.05084" lon="5.5569">
        <ele>1311.8</ele>
        <time>2019-08-17T11:37:27Z</time>
      </trkpt>
      <trkpt lat="45.0509" lon="5.55694">
        <ele>1313.6</ele>
        <time>2019-08-17T11:37:30Z</time>
      </trkpt>
      <trkpt lat="45.05093" lon="5.55701">
        <ele>1315.2</ele>
        <time>2019-08-17T11:37:33Z</time>
      </trkpt>
      <trkpt lat="45.05096" lon="5.5572">
        <ele>1317.2</ele>
        <time>2019-08-17T11:37:40Z</time>
      </trkpt>
      <trkpt lat="45.05098" lon="5.55732">
        <ele>1317.8</ele>
        <time>2019-08-17T11:37:44Z</time>
      </trkpt>
      <trkpt lat="45.05099" lon="5.55734">
        <ele>1318</ele>
        <time>2019-08-17T11:37:45Z</time>
      </trkpt>
      <trkpt lat="45.05102" lon="5.55755">
        <ele>1318.6</ele>
        <time>2019-08-17T11:37:52Z</time>
      </trkpt>
      <trkpt lat="45.05103" lon="5.55763">
        <ele>1318.8</ele>
        <time>2019-08-17T11:37:55Z</time>
      </trkpt>
      <trkpt lat="45.05106" lon="5.55774">
        <ele>1319.4</ele>
        <time>2019-08-17T11:37:59Z</time>
      </trkpt>
      <trkpt lat="45.05112" lon="5.55794">
        <ele>1322.6</ele>
        <time>2019-08-17T11:38:06Z</time>
      </trkpt>
      <trkpt lat="45.05113" lon="5.55803">
        <ele>1324</ele>
        <time>2019-08-17T11:38:09Z</time>
      </trkpt>
      <trkpt lat="45.05116" lon="5.55824">
        <ele>1327.2</ele>
        <time>2019-08-17T11:38:16Z</time>
      </trkpt>
      <trkpt lat="45.05117" lon="5.5583">
        <ele>1328.2</ele>
        <time>2019-08-17T11:38:18Z</time>
      </trkpt>
      <trkpt lat="45.05121" lon="5.5584">
        <ele>1329.8</ele>
        <time>2019-08-17T11:38:22Z</time>
      </trkpt>
      <trkpt lat="45.05125" lon="5.55858">
        <ele>1333</ele>
        <time>2019-08-17T11:38:29Z</time>
      </trkpt>
      <trkpt lat="45.05127" lon="5.55872">
        <ele>1333.4</ele>
        <time>2019-08-17T11:38:34Z</time>
      </trkpt>
      <trkpt lat="45.05131" lon="5.55891">
        <ele>1333.8</ele>
        <time>2019-08-17T11:38:41Z</time>
      </trkpt>
      <trkpt lat="45.05133" lon="5.55902">
        <ele>1333.6</ele>
        <time>2019-08-17T11:38:45Z</time>
      </trkpt>
      <trkpt lat="45.05133" lon="5.5591">
        <ele>1333.6</ele>
        <time>2019-08-17T11:38:48Z</time>
      </trkpt>
      <trkpt lat="45.05132" lon="5.55922">
        <ele>1333.4</ele>
        <time>2019-08-17T11:38:52Z</time>
      </trkpt>
      <trkpt lat="45.0513" lon="5.5593">
        <ele>1333.8</ele>
        <time>2019-08-17T11:38:55Z</time>
      </trkpt>
      <trkpt lat="45.05124" lon="5.55946">
        <ele>1334.4</ele>
        <time>2019-08-17T11:39:01Z</time>
      </trkpt>
      <trkpt lat="45.05122" lon="5.55951">
        <ele>1334.4</ele>
        <time>2019-08-17T11:39:03Z</time>
      </trkpt>
      <trkpt lat="45.05114" lon="5.55968">
        <ele>1335.4</ele>
        <time>2019-08-17T11:39:10Z</time>
      </trkpt>
      <trkpt lat="45.05111" lon="5.55976">
        <ele>1336</ele>
        <time>2019-08-17T11:39:13Z</time>
      </trkpt>
      <trkpt lat="45.0511" lon="5.55982">
        <ele>1336.4</ele>
        <time>2019-08-17T11:39:15Z</time>
      </trkpt>
      <trkpt lat="45.05111" lon="5.55991">
        <ele>1337</ele>
        <time>2019-08-17T11:39:18Z</time>
      </trkpt>
      <trkpt lat="45.05116" lon="5.56001">
        <ele>1337</ele>
        <time>2019-08-17T11:39:22Z</time>
      </trkpt>
      <trkpt lat="45.05122" lon="5.56005">
        <ele>1337.2</ele>
        <time>2019-08-17T11:39:25Z</time>
      </trkpt>
      <trkpt lat="45.05128" lon="5.56004">
        <ele>1338</ele>
        <time>2019-08-17T11:39:28Z</time>
      </trkpt>
      <trkpt lat="45.05136" lon="5.55997">
        <ele>1339</ele>
        <time>2019-08-17T11:39:32Z</time>
      </trkpt>
      <trkpt lat="45.0514" lon="5.5599">
        <ele>1339.8</ele>
        <time>2019-08-17T11:39:35Z</time>
      </trkpt>
      <trkpt lat="45.05143" lon="5.55981">
        <ele>1340.6</ele>
        <time>2019-08-17T11:39:38Z</time>
      </trkpt>
      <trkpt lat="45.05145" lon="5.55975">
        <ele>1341.2</ele>
        <time>2019-08-17T11:39:40Z</time>
      </trkpt>
      <trkpt lat="45.0515" lon="5.55964">
        <ele>1342.2</ele>
        <time>2019-08-17T11:39:44Z</time>
      </trkpt>
      <trkpt lat="45.05152" lon="5.55952">
        <ele>1343.2</ele>
        <time>2019-08-17T11:39:48Z</time>
      </trkpt>
      <trkpt lat="45.05156" lon="5.55933">
        <ele>1345</ele>
        <time>2019-08-17T11:39:55Z</time>
      </trkpt>
      <trkpt lat="45.05162" lon="5.55918">
        <ele>1347.2</ele>
        <time>2019-08-17T11:40:01Z</time>
      </trkpt>
      <trkpt lat="45.0517" lon="5.5591">
        <ele>1349</ele>
        <time>2019-08-17T11:40:06Z</time>
      </trkpt>
      <trkpt lat="45.05177" lon="5.55909">
        <ele>1350.6</ele>
        <time>2019-08-17T11:40:10Z</time>
      </trkpt>
      <trkpt lat="45.05183" lon="5.55917">
        <ele>1352.6</ele>
        <time>2019-08-17T11:40:14Z</time>
      </trkpt>
      <trkpt lat="45.05185" lon="5.55922">
        <ele>1353.8</ele>
        <time>2019-08-17T11:40:16Z</time>
      </trkpt>
      <trkpt lat="45.05188" lon="5.55942">
        <ele>1357.4</ele>
        <time>2019-08-17T11:40:23Z</time>
      </trkpt>
      <trkpt lat="45.05189" lon="5.55951">
        <ele>1358.8</ele>
        <time>2019-08-17T11:40:26Z</time>
      </trkpt>
      <trkpt lat="45.0519" lon="5.55965">
        <ele>1360.8</ele>
        <time>2019-08-17T11:40:31Z</time>
      </trkpt>
      <trkpt lat="45.05193" lon="5.55982">
        <ele>1365</ele>
        <time>2019-08-17T11:40:38Z</time>
      </trkpt>
      <trkpt lat="45.05196" lon="5.55999">
        <ele>1369.6</ele>
        <time>2019-08-17T11:40:45Z</time>
      </trkpt>
      <trkpt lat="45.05197" lon="5.56004">
        <ele>1370.6</ele>
        <time>2019-08-17T11:40:47Z</time>
      </trkpt>
      <trkpt lat="45.05203" lon="5.56021">
        <ele>1374.6</ele>
        <time>2019-08-17T11:40:54Z</time>
      </trkpt>
      <trkpt lat="45.05208" lon="5.56034">
        <ele>1377</ele>
        <time>2019-08-17T11:40:59Z</time>
      </trkpt>
      <trkpt lat="45.05211" lon="5.56046">
        <ele>1378.6</ele>
        <time>2019-08-17T11:41:03Z</time>
      </trkpt>
      <trkpt lat="45.05216" lon="5.56057">
        <ele>1380.4</ele>
        <time>2019-08-17T11:41:07Z</time>
      </trkpt>
      <trkpt lat="45.05222" lon="5.56078">
        <ele>1383.2</ele>
        <time>2019-08-17T11:41:14Z</time>
      </trkpt>
      <trkpt lat="45.05233" lon="5.56099">
        <ele>1386.6</ele>
        <time>2019-08-17T11:41:22Z</time>
      </trkpt>
      <trkpt lat="45.05238" lon="5.56111">
        <ele>1389</ele>
        <time>2019-08-17T11:41:27Z</time>
      </trkpt>
      <trkpt lat="45.05244" lon="5.56131">
        <ele>1392</ele>
        <time>2019-08-17T11:41:34Z</time>
      </trkpt>
      <trkpt lat="45.05245" lon="5.56143">
        <ele>1393.6</ele>
        <time>2019-08-17T11:41:38Z</time>
      </trkpt>
      <trkpt lat="45.05243" lon="5.56155">
        <ele>1395.6</ele>
        <time>2019-08-17T11:41:42Z</time>
      </trkpt>
      <trkpt lat="45.0524" lon="5.5618">
        <ele>1399.2</ele>
        <time>2019-08-17T11:41:49Z</time>
      </trkpt>
      <trkpt lat="45.05237" lon="5.56195">
        <ele>1401.4</ele>
        <time>2019-08-17T11:41:53Z</time>
      </trkpt>
      <trkpt lat="45.05236" lon="5.56205">
        <ele>1403.2</ele>
        <time>2019-08-17T11:41:56Z</time>
      </trkpt>
      <trkpt lat="45.05234" lon="5.56216">
        <ele>1404.8</ele>
        <time>2019-08-17T11:41:59Z</time>
      </trkpt>
      <trkpt lat="45.05232" lon="5.56222">
        <ele>1405.8</ele>
        <time>2019-08-17T11:42:01Z</time>
      </trkpt>
      <trkpt lat="45.05228" lon="5.56229">
        <ele>1407</ele>
        <time>2019-08-17T11:42:03Z</time>
      </trkpt>
      <trkpt lat="45.05225" lon="5.56239">
        <ele>1408.6</ele>
        <time>2019-08-17T11:42:06Z</time>
      </trkpt>
      <trkpt lat="45.05222" lon="5.5625">
        <ele>1410.8</ele>
        <time>2019-08-17T11:42:10Z</time>
      </trkpt>
      <trkpt lat="45.0522" lon="5.56257">
        <ele>1412.2</ele>
        <time>2019-08-17T11:42:13Z</time>
      </trkpt>
      <trkpt lat="45.05216" lon="5.5627">
        <ele>1414.2</ele>
        <time>2019-08-17T11:42:18Z</time>
      </trkpt>
      <trkpt lat="45.05214" lon="5.5628">
        <ele>1415.8</ele>
        <time>2019-08-17T11:42:22Z</time>
      </trkpt>
      <trkpt lat="45.05219" lon="5.56291">
        <ele>1418.8</ele>
        <time>2019-08-17T11:42:28Z</time>
      </trkpt>
      <trkpt lat="45.0523" lon="5.56293">
        <ele>1420.4</ele>
        <time>2019-08-17T11:42:32Z</time>
      </trkpt>
      <trkpt lat="45.05239" lon="5.56289">
        <ele>1421.8</ele>
        <time>2019-08-17T11:42:35Z</time>
      </trkpt>
      <trkpt lat="45.05244" lon="5.56283">
        <ele>1422.6</ele>
        <time>2019-08-17T11:42:37Z</time>
      </trkpt>
      <trkpt lat="45.05246" lon="5.56278">
        <ele>1423</ele>
        <time>2019-08-17T11:42:38Z</time>
      </trkpt>
      <trkpt lat="45.05249" lon="5.56268">
        <ele>1423.8</ele>
        <time>2019-08-17T11:42:40Z</time>
      </trkpt>
      <trkpt lat="45.05248" lon="5.56258">
        <ele>1424.6</ele>
        <time>2019-08-17T11:42:42Z</time>
      </trkpt>
      <trkpt lat="45.05243" lon="5.56247">
        <ele>1426</ele>
        <time>2019-08-17T11:42:45Z</time>
      </trkpt>
      <trkpt lat="45.05239" lon="5.56241">
        <ele>1430.4</ele>
        <time>2019-08-17T11:43:50Z</time>
      </trkpt>
      <trkpt lat="45.05237" lon="5.56234">
        <ele>1430.2</ele>
        <time>2019-08-17T11:43:52Z</time>
      </trkpt>
      <trkpt lat="45.05237" lon="5.56228">
        <ele>1430</ele>
        <time>2019-08-17T11:43:54Z</time>
      </trkpt>
      <trkpt lat="45.05238" lon="5.56209">
        <ele>1429.6</ele>
        <time>2019-08-17T11:43:59Z</time>
      </trkpt>
      <trkpt lat="45.0524" lon="5.56201">
        <ele>1429.6</ele>
        <time>2019-08-17T11:44:01Z</time>
      </trkpt>
      <trkpt lat="45.05241" lon="5.56182">
        <ele>1429.6</ele>
        <time>2019-08-17T11:44:06Z</time>
      </trkpt>
      <trkpt lat="45.05244" lon="5.56162">
        <ele>1429.8</ele>
        <time>2019-08-17T11:44:11Z</time>
      </trkpt>
      <trkpt lat="45.05244" lon="5.56141">
        <ele>1430.2</ele>
        <time>2019-08-17T11:44:16Z</time>
      </trkpt>
      <trkpt lat="45.05241" lon="5.5612">
        <ele>1430.8</ele>
        <time>2019-08-17T11:44:22Z</time>
      </trkpt>
      <trkpt lat="45.05241" lon="5.56111">
        <ele>1431</ele>
        <time>2019-08-17T11:44:25Z</time>
      </trkpt>
      <trkpt lat="45.05244" lon="5.56093">
        <ele>1431</ele>
        <time>2019-08-17T11:44:33Z</time>
      </trkpt>
      <trkpt lat="45.05243" lon="5.56082">
        <ele>1430.8</ele>
        <time>2019-08-17T11:44:37Z</time>
      </trkpt>
      <trkpt lat="45.05242" lon="5.56076">
        <ele>1430.6</ele>
        <time>2019-08-17T11:44:40Z</time>
      </trkpt>
      <trkpt lat="45.05248" lon="5.56079">
        <ele>1430.4</ele>
        <time>2019-08-17T11:44:46Z</time>
      </trkpt>
      <trkpt lat="45.05246" lon="5.56088">
        <ele>1430</ele>
        <time>2019-08-17T11:44:49Z</time>
      </trkpt>
      <trkpt lat="45.05243" lon="5.56105">
        <ele>1429.2</ele>
        <time>2019-08-17T11:44:57Z</time>
      </trkpt>
      <trkpt lat="45.05241" lon="5.56112">
        <ele>1428.6</ele>
        <time>2019-08-17T11:45:00Z</time>
      </trkpt>
      <trkpt lat="45.05241" lon="5.56119">
        <ele>1428.4</ele>
        <time>2019-08-17T11:45:02Z</time>
      </trkpt>
      <trkpt lat="45.05243" lon="5.5613">
        <ele>1426.8</ele>
        <time>2019-08-17T11:45:20Z</time>
      </trkpt>
      <trkpt lat="45.05238" lon="5.5612">
        <ele>1426.2</ele>
        <time>2019-08-17T11:45:25Z</time>
      </trkpt>
      <trkpt lat="45.05233" lon="5.56101">
        <ele>1425.6</ele>
        <time>2019-08-17T11:45:31Z</time>
      </trkpt>
      <trkpt lat="45.05224" lon="5.5608">
        <ele>1424.8</ele>
        <time>2019-08-17T11:45:38Z</time>
      </trkpt>
      <trkpt lat="45.0522" lon="5.56071">
        <ele>1424.6</ele>
        <time>2019-08-17T11:45:41Z</time>
      </trkpt>
      <trkpt lat="45.05214" lon="5.56054">
        <ele>1424.4</ele>
        <time>2019-08-17T11:45:48Z</time>
      </trkpt>
      <trkpt lat="45.05212" lon="5.56045">
        <ele>1424.2</ele>
        <time>2019-08-17T11:45:53Z</time>
      </trkpt>
      <trkpt lat="45.05206" lon="5.56037">
        <ele>1424</ele>
        <time>2019-08-17T11:45:57Z</time>
      </trkpt>
      <trkpt lat="45.05208" lon="5.56045">
        <ele>1423.8</ele>
        <time>2019-08-17T11:46:01Z</time>
      </trkpt>
      <trkpt lat="45.0521" lon="5.56051">
        <ele>1423.6</ele>
        <time>2019-08-17T11:46:03Z</time>
      </trkpt>
      <trkpt lat="45.05218" lon="5.56072">
        <ele>1423</ele>
        <time>2019-08-17T11:46:11Z</time>
      </trkpt>
      <trkpt lat="45.05223" lon="5.5608">
        <ele>1422.6</ele>
        <time>2019-08-17T11:46:14Z</time>
      </trkpt>
      <trkpt lat="45.05229" lon="5.56095">
        <ele>1421.8</ele>
        <time>2019-08-17T11:46:19Z</time>
      </trkpt>
      <trkpt lat="45.05232" lon="5.56105">
        <ele>1421.2</ele>
        <time>2019-08-17T11:46:22Z</time>
      </trkpt>
      <trkpt lat="45.05238" lon="5.56118">
        <ele>1420.6</ele>
        <time>2019-08-17T11:46:26Z</time>
      </trkpt>
      <trkpt lat="45.05242" lon="5.56134">
        <ele>1419.2</ele>
        <time>2019-08-17T11:46:32Z</time>
      </trkpt>
      <trkpt lat="45.05246" lon="5.56141">
        <ele>1418.2</ele>
        <time>2019-08-17T11:46:36Z</time>
      </trkpt>
      <trkpt lat="45.05246" lon="5.56151">
        <ele>1417.6</ele>
        <time>2019-08-17T11:46:40Z</time>
      </trkpt>
      <trkpt lat="45.05246" lon="5.56157">
        <ele>1417.4</ele>
        <time>2019-08-17T11:46:42Z</time>
      </trkpt>
      <trkpt lat="45.05241" lon="5.5617">
        <ele>1417</ele>
        <time>2019-08-17T11:46:46Z</time>
      </trkpt>
      <trkpt lat="45.0524" lon="5.56177">
        <ele>1416.8</ele>
        <time>2019-08-17T11:46:48Z</time>
      </trkpt>
      <trkpt lat="45.05239" lon="5.56188">
        <ele>1416.6</ele>
        <time>2019-08-17T11:46:51Z</time>
      </trkpt>
      <trkpt lat="45.05236" lon="5.56197">
        <ele>1416.4</ele>
        <time>2019-08-17T11:46:54Z</time>
      </trkpt>
      <trkpt lat="45.05232" lon="5.56218">
        <ele>1415.6</ele>
        <time>2019-08-17T11:47:00Z</time>
      </trkpt>
      <trkpt lat="45.0523" lon="5.56223">
        <ele>1415.4</ele>
        <time>2019-08-17T11:47:02Z</time>
      </trkpt>
      <trkpt lat="45.05231" lon="5.56231">
        <ele>1415.2</ele>
        <time>2019-08-17T11:47:05Z</time>
      </trkpt>
      <trkpt lat="45.05236" lon="5.56242">
        <ele>1415</ele>
        <time>2019-08-17T11:47:10Z</time>
      </trkpt>
      <trkpt lat="45.05241" lon="5.56246">
        <ele>1414.8</ele>
        <time>2019-08-17T11:47:12Z</time>
      </trkpt>
      <trkpt lat="45.05249" lon="5.56247">
        <ele>1414.8</ele>
        <time>2019-08-17T11:47:14Z</time>
      </trkpt>
      <trkpt lat="45.05253" lon="5.56245">
        <ele>1415</ele>
        <time>2019-08-17T11:47:15Z</time>
      </trkpt>
      <trkpt lat="45.05261" lon="5.56238">
        <ele>1415.4</ele>
        <time>2019-08-17T11:47:17Z</time>
      </trkpt>
      <trkpt lat="45.05264" lon="5.56235">
        <ele>1415.4</ele>
        <time>2019-08-17T11:47:18Z</time>
      </trkpt>
      <trkpt lat="45.05272" lon="5.56223">
        <ele>1415.8</ele>
        <time>2019-08-17T11:47:59Z</time>
      </trkpt>
      <trkpt lat="45.05284" lon="5.56214">
        <ele>1415</ele>
        <time>2019-08-17T11:48:03Z</time>
      </trkpt>
      <trkpt lat="45.05293" lon="5.56209">
        <ele>1414.8</ele>
        <time>2019-08-17T11:48:05Z</time>
      </trkpt>
      <trkpt lat="45.05306" lon="5.56206">
        <ele>1415</ele>
        <time>2019-08-17T11:48:07Z</time>
      </trkpt>
      <trkpt lat="45.05312" lon="5.56206">
        <ele>1415.2</ele>
        <time>2019-08-17T11:48:08Z</time>
      </trkpt>
      <trkpt lat="45.05319" lon="5.56207">
        <ele>1415.4</ele>
        <time>2019-08-17T11:48:09Z</time>
      </trkpt>
      <trkpt lat="45.0535" lon="5.56221">
        <ele>1417</ele>
        <time>2019-08-17T11:48:13Z</time>
      </trkpt>
      <trkpt lat="45.05404" lon="5.56256">
        <ele>1420.8</ele>
        <time>2019-08-17T11:48:20Z</time>
      </trkpt>
      <trkpt lat="45.05441" lon="5.56282">
        <ele>1424.2</ele>
        <time>2019-08-17T11:48:26Z</time>
      </trkpt>
      <trkpt lat="45.05446" lon="5.56284">
        <ele>1424.6</ele>
        <time>2019-08-17T11:48:27Z</time>
      </trkpt>
      <trkpt lat="45.05454" lon="5.56281">
        <ele>1426.2</ele>
        <time>2019-08-17T11:48:30Z</time>
      </trkpt>
      <trkpt lat="45.05459" lon="5.56279">
        <ele>1427.6</ele>
        <time>2019-08-17T11:48:33Z</time>
      </trkpt>
      <trkpt lat="45.05469" lon="5.56279">
        <ele>1430.6</ele>
        <time>2019-08-17T11:48:39Z</time>
      </trkpt>
      <trkpt lat="45.05479" lon="5.56282">
        <ele>1434.2</ele>
        <time>2019-08-17T11:48:47Z</time>
      </trkpt>
      <trkpt lat="45.0549" lon="5.56282">
        <ele>1435.4</ele>
        <time>2019-08-17T11:49:35Z</time>
      </trkpt>
      <trkpt lat="45.05494" lon="5.56277">
        <ele>1435</ele>
        <time>2019-08-17T11:49:38Z</time>
      </trkpt>
      <trkpt lat="45.05498" lon="5.56269">
        <ele>1430</ele>
        <time>2019-08-17T11:49:53Z</time>
      </trkpt>
      <trkpt lat="45.0551" lon="5.5624">
        <ele>1429.2</ele>
        <time>2019-08-17T11:49:58Z</time>
      </trkpt>
      <trkpt lat="45.05518" lon="5.56227">
        <ele>1429.8</ele>
        <time>2019-08-17T11:50:01Z</time>
      </trkpt>
      <trkpt lat="45.05536" lon="5.56206">
        <ele>1431.4</ele>
        <time>2019-08-17T11:50:05Z</time>
      </trkpt>
      <trkpt lat="45.05547" lon="5.56185">
        <ele>1435.6</ele>
        <time>2019-08-17T11:50:13Z</time>
      </trkpt>
      <trkpt lat="45.05542" lon="5.56169">
        <ele>1439.8</ele>
        <time>2019-08-17T11:50:27Z</time>
      </trkpt>
      <trkpt lat="45.05542" lon="5.5616">
        <ele>1440.4</ele>
        <time>2019-08-17T11:50:29Z</time>
      </trkpt>
      <trkpt lat="45.05537" lon="5.56133">
        <ele>1442</ele>
        <time>2019-08-17T11:50:33Z</time>
      </trkpt>
      <trkpt lat="45.05539" lon="5.56123">
        <ele>1444.4</ele>
        <time>2019-08-17T11:50:37Z</time>
      </trkpt>
      <trkpt lat="45.05546" lon="5.56123">
        <ele>1447</ele>
        <time>2019-08-17T11:50:41Z</time>
      </trkpt>
      <trkpt lat="45.05552" lon="5.56117">
        <ele>1450</ele>
        <time>2019-08-17T11:50:45Z</time>
      </trkpt>
      <trkpt lat="45.05556" lon="5.56112">
        <ele>1455.4</ele>
        <time>2019-08-17T11:50:58Z</time>
      </trkpt>
      <trkpt lat="45.05557" lon="5.56094">
        <ele>1458.2</ele>
        <time>2019-08-17T11:51:07Z</time>
      </trkpt>
      <trkpt lat="45.05555" lon="5.56085">
        <ele>1459.8</ele>
        <time>2019-08-17T11:51:10Z</time>
      </trkpt>
      <trkpt lat="45.05555" lon="5.56079">
        <ele>1460.2</ele>
        <time>2019-08-17T11:51:11Z</time>
      </trkpt>
      <trkpt lat="45.05558" lon="5.56067">
        <ele>1461.6</ele>
        <time>2019-08-17T11:51:14Z</time>
      </trkpt>
      <trkpt lat="45.05561" lon="5.56059">
        <ele>1462.6</ele>
        <time>2019-08-17T11:51:16Z</time>
      </trkpt>
      <trkpt lat="45.05561" lon="5.56053">
        <ele>1463.8</ele>
        <time>2019-08-17T11:51:18Z</time>
      </trkpt>
      <trkpt lat="45.05557" lon="5.56033">
        <ele>1466.6</ele>
        <time>2019-08-17T11:51:23Z</time>
      </trkpt>
      <trkpt lat="45.05554" lon="5.56024">
        <ele>1467.8</ele>
        <time>2019-08-17T11:51:25Z</time>
      </trkpt>
      <trkpt lat="45.05557" lon="5.56014">
        <ele>1470</ele>
        <time>2019-08-17T11:51:29Z</time>
      </trkpt>
      <trkpt lat="45.0556" lon="5.56002">
        <ele>1471.2</ele>
        <time>2019-08-17T11:51:32Z</time>
      </trkpt>
      <trkpt lat="45.05569" lon="5.55996">
        <ele>1473</ele>
        <time>2019-08-17T11:51:36Z</time>
      </trkpt>
      <trkpt lat="45.05575" lon="5.55996">
        <ele>1475</ele>
        <time>2019-08-17T11:51:40Z</time>
      </trkpt>
      <trkpt lat="45.05584" lon="5.55984">
        <ele>1479.4</ele>
        <time>2019-08-17T11:51:58Z</time>
      </trkpt>
      <trkpt lat="45.05587" lon="5.55979">
        <ele>1479.6</ele>
        <time>2019-08-17T11:52:00Z</time>
      </trkpt>
      <trkpt lat="45.05597" lon="5.55966">
        <ele>1479.8</ele>
        <time>2019-08-17T11:52:04Z</time>
      </trkpt>
      <trkpt lat="45.05611" lon="5.55952">
        <ele>1480.4</ele>
        <time>2019-08-17T11:52:08Z</time>
      </trkpt>
      <trkpt lat="45.05615" lon="5.55948">
        <ele>1480.4</ele>
        <time>2019-08-17T11:52:09Z</time>
      </trkpt>
      <trkpt lat="45.05633" lon="5.5594">
        <ele>1481.2</ele>
        <time>2019-08-17T11:52:13Z</time>
      </trkpt>
      <trkpt lat="45.05637" lon="5.55936">
        <ele>1481.2</ele>
        <time>2019-08-17T11:52:14Z</time>
      </trkpt>
      <trkpt lat="45.05646" lon="5.55936">
        <ele>1481.6</ele>
        <time>2019-08-17T11:52:16Z</time>
      </trkpt>
      <trkpt lat="45.05652" lon="5.5593">
        <ele>1481.8</ele>
        <time>2019-08-17T11:52:18Z</time>
      </trkpt>
      <trkpt lat="45.05651" lon="5.55919">
        <ele>1482.2</ele>
        <time>2019-08-17T11:52:22Z</time>
      </trkpt>
      <trkpt lat="45.05652" lon="5.55913">
        <ele>1482.6</ele>
        <time>2019-08-17T11:52:26Z</time>
      </trkpt>
      <trkpt lat="45.05653" lon="5.55903">
        <ele>1483.2</ele>
        <time>2019-08-17T11:52:50Z</time>
      </trkpt>
      <trkpt lat="45.05656" lon="5.55892">
        <ele>1483.2</ele>
        <time>2019-08-17T11:52:53Z</time>
      </trkpt>
      <trkpt lat="45.05657" lon="5.55884">
        <ele>1483</ele>
        <time>2019-08-17T11:52:55Z</time>
      </trkpt>
      <trkpt lat="45.05653" lon="5.55874">
        <ele>1482.8</ele>
        <time>2019-08-17T11:52:58Z</time>
      </trkpt>
      <trkpt lat="45.05649" lon="5.55866">
        <ele>1482.4</ele>
        <time>2019-08-17T11:53:03Z</time>
      </trkpt>
      <trkpt lat="45.05647" lon="5.55851">
        <ele>1481.8</ele>
        <time>2019-08-17T11:53:20Z</time>
      </trkpt>
      <trkpt lat="45.05649" lon="5.55847">
        <ele>1481.6</ele>
        <time>2019-08-17T11:53:22Z</time>
      </trkpt>
      <trkpt lat="45.05656" lon="5.55835">
        <ele>1480.8</ele>
        <time>2019-08-17T11:53:26Z</time>
      </trkpt>
      <trkpt lat="45.05666" lon="5.55822">
        <ele>1480</ele>
        <time>2019-08-17T11:53:29Z</time>
      </trkpt>
      <trkpt lat="45.05673" lon="5.55815">
        <ele>1479.6</ele>
        <time>2019-08-17T11:53:31Z</time>
      </trkpt>
      <trkpt lat="45.05685" lon="5.55811">
        <ele>1478.8</ele>
        <time>2019-08-17T11:53:35Z</time>
      </trkpt>
      <trkpt lat="45.05693" lon="5.5581">
        <ele>1478.4</ele>
        <time>2019-08-17T11:53:39Z</time>
      </trkpt>
      <trkpt lat="45.05697" lon="5.55811">
        <ele>1478.2</ele>
        <time>2019-08-17T11:53:41Z</time>
      </trkpt>
      <trkpt lat="45.05704" lon="5.55815">
        <ele>1477.8</ele>
        <time>2019-08-17T11:53:44Z</time>
      </trkpt>
      <trkpt lat="45.05708" lon="5.55816">
        <ele>1477.6</ele>
        <time>2019-08-17T11:53:46Z</time>
      </trkpt>
      <trkpt lat="45.05715" lon="5.55819">
        <ele>1477.4</ele>
        <time>2019-08-17T11:53:49Z</time>
      </trkpt>
      <trkpt lat="45.05721" lon="5.55823">
        <ele>1477</ele>
        <time>2019-08-17T11:53:52Z</time>
      </trkpt>
      <trkpt lat="45.05727" lon="5.55825">
        <ele>1476.6</ele>
        <time>2019-08-17T11:53:56Z</time>
      </trkpt>
      <trkpt lat="45.05733" lon="5.55824">
        <ele>1476.4</ele>
        <time>2019-08-17T11:53:59Z</time>
      </trkpt>
      <trkpt lat="45.05747" lon="5.55826">
        <ele>1475.2</ele>
        <time>2019-08-17T11:54:07Z</time>
      </trkpt>
      <trkpt lat="45.05754" lon="5.5583">
        <ele>1474.8</ele>
        <time>2019-08-17T11:54:10Z</time>
      </trkpt>
      <trkpt lat="45.05761" lon="5.55836">
        <ele>1474.2</ele>
        <time>2019-08-17T11:54:13Z</time>
      </trkpt>
      <trkpt lat="45.05766" lon="5.55839">
        <ele>1474</ele>
        <time>2019-08-17T11:54:15Z</time>
      </trkpt>
      <trkpt lat="45.05779" lon="5.5585">
        <ele>1472.8</ele>
        <time>2019-08-17T11:54:21Z</time>
      </trkpt>
      <trkpt lat="45.05786" lon="5.55859">
        <ele>1471.6</ele>
        <time>2019-08-17T11:54:26Z</time>
      </trkpt>
      <trkpt lat="45.058" lon="5.55872">
        <ele>1470</ele>
        <time>2019-08-17T11:54:33Z</time>
      </trkpt>
      <trkpt lat="45.05806" lon="5.55878">
        <ele>1469.2</ele>
        <time>2019-08-17T11:54:36Z</time>
      </trkpt>
      <trkpt lat="45.0581" lon="5.55883">
        <ele>1468.8</ele>
        <time>2019-08-17T11:54:38Z</time>
      </trkpt>
      <trkpt lat="45.05816" lon="5.55887">
        <ele>1468.4</ele>
        <time>2019-08-17T11:54:40Z</time>
      </trkpt>
      <trkpt lat="45.05821" lon="5.55894">
        <ele>1467.6</ele>
        <time>2019-08-17T11:54:43Z</time>
      </trkpt>
      <trkpt lat="45.05824" lon="5.55901">
        <ele>1466.8</ele>
        <time>2019-08-17T11:54:47Z</time>
      </trkpt>
      <trkpt lat="45.0583" lon="5.5591">
        <ele>1465.8</ele>
        <time>2019-08-17T11:54:53Z</time>
      </trkpt>
      <trkpt lat="45.05838" lon="5.55917">
        <ele>1464.8</ele>
        <time>2019-08-17T11:54:58Z</time>
      </trkpt>
      <trkpt lat="45.05845" lon="5.55927">
        <ele>1464</ele>
        <time>2019-08-17T11:55:03Z</time>
      </trkpt>
      <trkpt lat="45.05853" lon="5.55935">
        <ele>1463.4</ele>
        <time>2019-08-17T11:55:08Z</time>
      </trkpt>
      <trkpt lat="45.05861" lon="5.55948">
        <ele>1463</ele>
        <time>2019-08-17T11:55:13Z</time>
      </trkpt>
      <trkpt lat="45.05864" lon="5.55952">
        <ele>1462.8</ele>
        <time>2019-08-17T11:55:15Z</time>
      </trkpt>
      <trkpt lat="45.0587" lon="5.55957">
        <ele>1462.8</ele>
        <time>2019-08-17T11:55:18Z</time>
      </trkpt>
      <trkpt lat="45.05876" lon="5.55963">
        <ele>1462.8</ele>
        <time>2019-08-17T11:55:21Z</time>
      </trkpt>
      <trkpt lat="45.05882" lon="5.55967">
        <ele>1462.6</ele>
        <time>2019-08-17T11:55:23Z</time>
      </trkpt>
      <trkpt lat="45.05897" lon="5.55982">
        <ele>1462.6</ele>
        <time>2019-08-17T11:55:27Z</time>
      </trkpt>
      <trkpt lat="45.05924" lon="5.56018">
        <ele>1462</ele>
        <time>2019-08-17T11:55:34Z</time>
      </trkpt>
      <trkpt lat="45.05941" lon="5.56046">
        <ele>1461.8</ele>
        <time>2019-08-17T11:55:39Z</time>
      </trkpt>
      <trkpt lat="45.05948" lon="5.56056">
        <ele>1462</ele>
        <time>2019-08-17T11:55:41Z</time>
      </trkpt>
      <trkpt lat="45.05967" lon="5.56081">
        <ele>1462.4</ele>
        <time>2019-08-17T11:55:46Z</time>
      </trkpt>
      <trkpt lat="45.05982" lon="5.56101">
        <ele>1462.6</ele>
        <time>2019-08-17T11:55:50Z</time>
      </trkpt>
      <trkpt lat="45.05996" lon="5.56115">
        <ele>1462.4</ele>
        <time>2019-08-17T11:55:53Z</time>
      </trkpt>
      <trkpt lat="45.06006" lon="5.56129">
        <ele>1462.4</ele>
        <time>2019-08-17T11:55:55Z</time>
      </trkpt>
      <trkpt lat="45.06028" lon="5.56153">
        <ele>1462.4</ele>
        <time>2019-08-17T11:56:00Z</time>
      </trkpt>
      <trkpt lat="45.06039" lon="5.56161">
        <ele>1462.2</ele>
        <time>2019-08-17T11:56:03Z</time>
      </trkpt>
      <trkpt lat="45.06044" lon="5.56163">
        <ele>1462.2</ele>
        <time>2019-08-17T11:56:04Z</time>
      </trkpt>
      <trkpt lat="45.0605" lon="5.56163">
        <ele>1462</ele>
        <time>2019-08-17T11:56:05Z</time>
      </trkpt>
      <trkpt lat="45.06072" lon="5.56161">
        <ele>1461.4</ele>
        <time>2019-08-17T11:56:09Z</time>
      </trkpt>
      <trkpt lat="45.06077" lon="5.56159">
        <ele>1461.2</ele>
        <time>2019-08-17T11:56:10Z</time>
      </trkpt>
      <trkpt lat="45.06084" lon="5.56152">
        <ele>1460.6</ele>
        <time>2019-08-17T11:56:12Z</time>
      </trkpt>
      <trkpt lat="45.06086" lon="5.56145">
        <ele>1460.4</ele>
        <time>2019-08-17T11:56:13Z</time>
      </trkpt>
      <trkpt lat="45.06091" lon="5.56116">
        <ele>1459.4</ele>
        <time>2019-08-17T11:56:16Z</time>
      </trkpt>
      <trkpt lat="45.06095" lon="5.561">
        <ele>1458.4</ele>
        <time>2019-08-17T11:56:18Z</time>
      </trkpt>
      <trkpt lat="45.06099" lon="5.56091">
        <ele>1457.6</ele>
        <time>2019-08-17T11:56:20Z</time>
      </trkpt>
      <trkpt lat="45.06104" lon="5.56088">
        <ele>1456.6</ele>
        <time>2019-08-17T11:56:22Z</time>
      </trkpt>
      <trkpt lat="45.06109" lon="5.56098">
        <ele>1454.4</ele>
        <time>2019-08-17T11:56:26Z</time>
      </trkpt>
      <trkpt lat="45.06115" lon="5.56101">
        <ele>1453.2</ele>
        <time>2019-08-17T11:56:28Z</time>
      </trkpt>
      <trkpt lat="45.06124" lon="5.56101">
        <ele>1451.6</ele>
        <time>2019-08-17T11:56:31Z</time>
      </trkpt>
      <trkpt lat="45.06139" lon="5.561">
        <ele>1448.8</ele>
        <time>2019-08-17T11:56:36Z</time>
      </trkpt>
      <trkpt lat="45.06145" lon="5.56099">
        <ele>1447.6</ele>
        <time>2019-08-17T11:56:38Z</time>
      </trkpt>
      <trkpt lat="45.06163" lon="5.56095">
        <ele>1442.8</ele>
        <time>2019-08-17T11:56:44Z</time>
      </trkpt>
      <trkpt lat="45.06176" lon="5.56093">
        <ele>1439.6</ele>
        <time>2019-08-17T11:56:49Z</time>
      </trkpt>
      <trkpt lat="45.06186" lon="5.56092">
        <ele>1438</ele>
        <time>2019-08-17T11:56:52Z</time>
      </trkpt>
      <trkpt lat="45.06203" lon="5.56088">
        <ele>1434.4</ele>
        <time>2019-08-17T11:56:58Z</time>
      </trkpt>
      <trkpt lat="45.06211" lon="5.56089">
        <ele>1432.6</ele>
        <time>2019-08-17T11:57:01Z</time>
      </trkpt>
      <trkpt lat="45.06218" lon="5.56087">
        <ele>1430.6</ele>
        <time>2019-08-17T11:57:04Z</time>
      </trkpt>
      <trkpt lat="45.06224" lon="5.56095">
        <ele>1428.6</ele>
        <time>2019-08-17T11:57:07Z</time>
      </trkpt>
      <trkpt lat="45.06229" lon="5.56096">
        <ele>1427.2</ele>
        <time>2019-08-17T11:57:09Z</time>
      </trkpt>
      <trkpt lat="45.06234" lon="5.56095">
        <ele>1425.8</ele>
        <time>2019-08-17T11:57:11Z</time>
      </trkpt>
      <trkpt lat="45.0625" lon="5.56094">
        <ele>1419.4</ele>
        <time>2019-08-17T11:57:23Z</time>
      </trkpt>
      <trkpt lat="45.06254" lon="5.56091">
        <ele>1416</ele>
        <time>2019-08-17T11:57:48Z</time>
      </trkpt>
      <trkpt lat="45.06256" lon="5.56079">
        <ele>1415.2</ele>
        <time>2019-08-17T11:57:51Z</time>
      </trkpt>
      <trkpt lat="45.06253" lon="5.56068">
        <ele>1413.4</ele>
        <time>2019-08-17T11:57:55Z</time>
      </trkpt>
      <trkpt lat="45.06255" lon="5.56061">
        <ele>1412.2</ele>
        <time>2019-08-17T11:57:58Z</time>
      </trkpt>
      <trkpt lat="45.0626" lon="5.56054">
        <ele>1411.4</ele>
        <time>2019-08-17T11:58:00Z</time>
      </trkpt>
      <trkpt lat="45.0627" lon="5.56035">
        <ele>1409.2</ele>
        <time>2019-08-17T11:58:06Z</time>
      </trkpt>
      <trkpt lat="45.06276" lon="5.56026">
        <ele>1407.6</ele>
        <time>2019-08-17T11:58:09Z</time>
      </trkpt>
      <trkpt lat="45.06278" lon="5.56022">
        <ele>1407</ele>
        <time>2019-08-17T11:58:10Z</time>
      </trkpt>
      <trkpt lat="45.06286" lon="5.55997">
        <ele>1403.8</ele>
        <time>2019-08-17T11:58:14Z</time>
      </trkpt>
      <trkpt lat="45.0629" lon="5.55969">
        <ele>1401.2</ele>
        <time>2019-08-17T11:58:17Z</time>
      </trkpt>
      <trkpt lat="45.06298" lon="5.55917">
        <ele>1396.6</ele>
        <time>2019-08-17T11:58:22Z</time>
      </trkpt>
      <trkpt lat="45.06298" lon="5.55903">
        <ele>1394.6</ele>
        <time>2019-08-17T11:58:24Z</time>
      </trkpt>
      <trkpt lat="45.06294" lon="5.55879">
        <ele>1391.8</ele>
        <time>2019-08-17T11:58:27Z</time>
      </trkpt>
      <trkpt lat="45.06296" lon="5.55874">
        <ele>1389.2</ele>
        <time>2019-08-17T11:58:30Z</time>
      </trkpt>
      <trkpt lat="45.06304" lon="5.55879">
        <ele>1386.8</ele>
        <time>2019-08-17T11:58:33Z</time>
      </trkpt>
      <trkpt lat="45.06395" lon="5.56091">
        <ele>1066.5</ele>
      </trkpt>
      <trkpt lat="45.06395" lon="5.56091">
        <ele>1066.5</ele>
      </trkpt>
      <trkpt lat="45.06418" lon="5.56097">
        <ele>1060.8</ele>
      </trkpt>
      <trkpt lat="45.06418" lon="5.56097">
        <ele>1060.8</ele>
      </trkpt>
      <trkpt lat="45.06453" lon="5.5607">
        <ele>1060.6</ele>
      </trkpt>
      <trkpt lat="45.06453" lon="5.5607">
        <ele>1060.6</ele>
      </trkpt>
      <trkpt lat="45.06496" lon="5.5592">
        <ele>1050.4</ele>
      </trkpt>
      <trkpt lat="45.06496" lon="5.5592">
        <ele>1050.4</ele>
      </trkpt>
      <trkpt lat="45.06525" lon="5.55893">
        <ele>1048.1</ele>
      </trkpt>
      <trkpt lat="45.06525" lon="5.55893">
        <ele>1048.1</ele>
      </trkpt>
      <trkpt lat="45.06598" lon="5.55897">
        <ele>1050.4</ele>
      </trkpt>
      <trkpt lat="45.06598" lon="5.55897">
        <ele>1050.4</ele>
      </trkpt>
      <trkpt lat="45.06708" lon="5.55808">
        <ele>1046.1</ele>
      </trkpt>
      <trkpt lat="45.06727" lon="5.55782">
        <ele>1044.5</ele>
      </trkpt>
      <trkpt lat="45.06727" lon="5.55782">
        <ele>1044.5</ele>
      </trkpt>
      <trkpt lat="45.06811" lon="5.55758">
        <ele>1046.2</ele>
      </trkpt>
      <trkpt lat="45.06811" lon="5.55758">
        <ele>1046.2</ele>
      </trkpt>
      <trkpt lat="45.06955" lon="5.5557">
        <ele>1037.1</ele>
      </trkpt>
      <trkpt lat="45.06955" lon="5.5557">
        <ele>1037.1</ele>
      </trkpt>
      <trkpt lat="45.07017" lon="5.55454">
        <ele>1034.5</ele>
      </trkpt>
      <trkpt lat="45.07017" lon="5.55454">
        <ele>1034.5</ele>
      </trkpt>
      <trkpt lat="45.07143" lon="5.55502">
        <ele>1036.5</ele>
      </trkpt>
      <trkpt lat="45.07143" lon="5.55502">
        <ele>1036.5</ele>
      </trkpt>
      <trkpt lat="45.07276" lon="5.55668">
        <ele>1029.7</ele>
      </trkpt>
      <trkpt lat="45.07276" lon="5.55668">
        <ele>1029.7</ele>
      </trkpt>
      <trkpt lat="45.07322" lon="5.55693">
        <ele>1027.7</ele>
      </trkpt>
      <trkpt lat="45.07322" lon="5.55693">
        <ele>1027.7</ele>
      </trkpt>
      <trkpt lat="45.07309" lon="5.55845">
        <ele>1023.4</ele>
      </trkpt>
      <trkpt lat="45.07309" lon="5.55845">
        <ele>1023.4</ele>
      </trkpt>
      <trkpt lat="45.07318" lon="5.55914">
        <ele>1024.5</ele>
      </trkpt>
      <trkpt lat="45.07318" lon="5.55914">
        <ele>1024.5</ele>
      </trkpt>
      <trkpt lat="45.07313" lon="5.55982">
        <ele>1029.3</ele>
      </trkpt>
      <trkpt lat="45.07313" lon="5.55982">
        <ele>1029.3</ele>
      </trkpt>
      <trkpt lat="45.07361" lon="5.55996">
        <ele>1031.7</ele>
      </trkpt>
      <trkpt lat="45.07361" lon="5.55996">
        <ele>1031.7</ele>
      </trkpt>
    </trkseg>
  </trk>
</gpx>